[[{"header":{"parameterUnit":"m.s-1","parameterCategory":1,"la1":30.6,"la2":28.766,"lo1":-90.7593,"lo2":-88.6598,"dy":0.0162,"dx":0.0183,"nx":116,"ny":114,"refTime":"2023-03-27T06:00:00:Z","depth":0,"parameterNumber":2,"parameterNumberName":"U-component_of_WINDS"},"data":[0.0,0.0,0.0,0.0,0.0,0.0,0.0,0.0,0.0,0.0,0.0,0.0,0.0,0.0,0.0,0.0,0.0,0.0,0.0,0.0,0.0,0.0,0.0,0.0,0.0,0.0,0.0,0.0,0.0,0.0,0.0,0.0,0.0,0.0,0.0,0.0,0.0,0.0,0.0,0.0,0.0,0.0,0.0,0.0,0.0,0.0,0.0,0.0,0.0,0.0,0.0,0.0,0.0,0.0,0.0,0.0,0.0,0.0,0.0,0.0,0.0,0.0,0.0,0.0,0.0,0.0,0.0,0.0,0.0,0.0,0.0,0.0,0.0,0.0,0.0,0.0,0.0,0.0,0.0,0.0,0.0,0.0,0.0,0.0,0.0,0.0,0.0,0.0,0.0,0.0,0.0,0.0,0.0,0.0,0.0,0.0,0.0,0.0,0.0,0.0,0.0,0.0,0.0,0.0,0.0,0.0,0.0,0.0,0.0,0.0,0.0,0.0,0.0,0.0,0.0,0.0,0.0,0.0,0.0,0.0,0.0,0.0,0.0,0.0,0.0,0.0,0.0,0.0,0.0,0.0,0.0,0.0,0.0,0.0,0.0,0.0,0.0,0.0,0.0,0.0,0.0,0.0,0.0,0.0,0.0,0.0,0.0,0.0,0.0,0.0,0.0,0.0,0.0,0.0,0.0,0.0,0.0,0.0,0.0,0.0,0.0,0.0,0.0,0.0,0.0,0.0,0.0,0.0,0.0,0.0,0.0,0.0,0.0,0.0,0.0,0.0,0.0,0.0,0.0,0.0,0.0,0.0,0.0,0.0,0.0,0.0,0.0,0.0,0.0,0.0,0.0,0.0,0.0,0.0,0.0,0.0,0.0,0.0,0.0,0.0,0.0,0.0,0.0,0.0,0.0,0.0,0.0,0.0,0.0,0.0,0.0,0.0,0.0,0.0,0.0,0.0,0.0,0.0,0.0,0.0,0.0,0.0,0.0,0.0,0.0,0.0,0.0,0.0,0.0,0.0,0.0,0.0,0.0,0.0,0.0,0.0,0.0,0.0,0.0,0.0,0.0,0.0,0.0,0.0,0.0,0.0,0.0,0.0,0.0,0.0,0.0,0.0,0.0,0.0,0.0,0.0,0.0,0.0,0.0,0.0,0.0,0.0,0.0,0.0,0.0,0.0,0.0,0.0,0.0,0.0,0.0,0.0,0.0,0.0,0.0,0.0,0.0,0.0,0.0,0.0,0.0,0.0,0.0,0.0,0.0,0.0,0.0,0.0,0.0,0.0,0.0,0.0,0.0,0.0,0.0,0.0,0.0,0.0,0.0,0.0,0.0,0.0,0.0,0.0,0.0,0.0,0.0,0.0,0.0,0.0,0.0,0.0,0.0,0.0,0.0,0.0,0.0,0.0,0.0,0.0,0.0,0.0,0.0,0.0,0.0,0.0,0.0,0.0,0.0,0.0,0.0,0.0,0.0,0.0,0.0,0.0,0.0,0.0,0.0,0.0,0.0,0.0,0.0,0.0,0.0,0.0,0.0,0.0,0.0,0.0,0.0,0.0,0.0,0.0,0.0,0.0,0.0,0.0,0.0,0.0,0.0,0.0,0.0,0.0,0.0,0.0,0.0,0.0,0.0,0.0,0.0,0.0,0.0,0.0,0.0,0.0,0.0,0.0,0.0,0.0,0.0,0.0,0.0,0.0,0.0,0.0,0.0,0.0,0.0,0.0,0.0,0.0,0.0,0.0,0.0,0.0,0.0,0.0,0.0,0.0,0.0,0.0,0.0,0.0,0.0,0.0,0.0,0.0,0.0,0.0,0.0,0.0,0.0,0.0,0.0,0.0,0.0,0.0,0.0,0.0,0.0,0.0,0.0,0.0,0.0,0.0,0.0,0.0,0.0,0.0,0.0,0.0,0.0,0.0,0.0,0.0,0.0,0.0,0.0,0.0,0.0,0.0,0.0,0.0,0.0,0.0,0.0,0.0,0.0,0.0,0.0,0.0,0.0,0.0,0.0,0.0,0.0,0.0,0.0,0.0,0.0,0.0,0.0,0.0,0.0,0.0,0.0,0.0,0.0,0.0,0.0,0.0,0.0,0.0,0.0,0.0,0.0,0.0,0.0,0.0,0.0,0.0,0.0,0.0,0.0,0.0,0.0,0.0,0.0,0.0,0.0,0.0,0.0,0.0,0.0,0.0,0.0,0.0,0.0,0.0,0.0,0.0,0.0,0.0,0.0,0.0,0.0,0.0,0.0,0.0,0.0,0.0,0.0,0.0,0.0,0.0,0.0,0.0,0.0,0.0,0.0,0.0,0.0,0.0,0.0,0.0,0.0,0.0,0.0,0.0,0.0,0.0,0.0,0.0,0.0,0.0,0.0,0.0,0.0,0.0,0.0,0.0,0.0,0.0,0.0,0.0,0.0,0.0,0.0,0.0,0.0,0.0,0.0,0.0,0.0,0.0,0.0,0.0,0.0,0.0,0.0,0.0,0.0,0.0,0.0,0.0,0.0,0.0,0.0,0.0,0.0,0.0,0.0,0.0,0.0,0.0,0.0,0.0,0.0,0.0,0.0,0.0,0.0,0.0,0.0,0.0,0.0,0.0,0.0,0.0,0.0,0.0,0.0,0.0,0.0,0.0,0.0,0.0,0.0,0.0,0.0,0.0,0.0,0.0,0.0,0.0,0.0,0.0,0.0,0.0,0.0,0.0,0.0,0.0,0.0,0.0,0.0,0.0,0.0,0.0,0.0,0.0,0.0,0.0,0.0,0.0,0.0,0.0,0.0,0.0,0.0,0.0,0.0,0.0,0.0,0.0,0.0,0.0,0.0,0.0,0.0,0.0,0.0,0.0,0.0,0.0,0.0,0.0,0.0,0.0,0.0,0.0,0.0,0.0,0.0,0.0,0.0,0.0,0.0,0.0,0.0,0.0,0.0,0.0,0.0,0.0,0.0,0.0,0.0,0.0,0.0,0.0,0.0,0.0,0.0,0.0,0.0,0.0,0.0,0.0,0.0,0.0,0.0,0.0,0.0,0.0,0.0,0.0,0.0,0.0,0.0,0.0,0.0,0.0,0.0,0.0,0.0,0.0,0.0,0.0,0.0,0.0,0.0,0.0,0.0,0.0,0.0,0.0,0.0,0.0,0.0,0.0,0.0,0.0,0.0,0.0,0.0,0.0,0.0,0.0,0.0,0.0,0.0,0.0,0.0,0.0,0.0,0.0,0.0,0.0,0.0,0.0,0.0,0.0,0.0,0.0,0.0,0.0,0.0,0.0,0.0,0.0,0.0,0.0,0.0,0.0,0.0,0.0,0.0,0.0,0.0,0.0,0.0,0.0,0.0,0.0,0.0,0.0,0.0,0.0,0.0,0.0,0.0,0.0,0.0,0.0,0.0,0.0,0.0,0.0,0.0,0.0,0.0,0.0,0.0,0.0,0.0,0.0,0.0,0.0,0.0,0.0,0.0,0.0,0.0,0.0,0.0,0.0,0.0,0.0,0.0,0.0,0.0,0.0,0.0,0.0,0.0,0.0,0.0,0.0,0.0,0.0,0.0,0.0,0.0,0.0,0.0,0.0,0.0,0.0,0.0,0.0,0.0,0.0,0.0,0.0,0.0,0.0,0.0,0.0,0.0,0.0,0.0,0.0,0.0,0.0,0.0,0.0,0.0,0.0,0.0,0.0,0.0,0.0,0.0,0.0,0.0,0.0,0.0,0.0,0.0,0.0,0.0,0.0,0.0,0.0,0.0,0.0,0.0,0.0,0.0,0.0,0.0,0.0,0.0,0.0,0.0,0.0,0.0,0.0,0.0,0.0,0.0,0.0,0.0,0.0,0.0,0.0,0.0,0.0,0.0,0.0,0.0,0.0,0.0,0.0,0.0,0.0,0.0,0.0,0.0,0.0,0.0,0.0,0.0,0.0,0.0,0.0,0.0,0.0,0.0,0.0,0.0,0.0,0.0,0.0,0.0,0.0,0.0,0.0,0.0,0.0,0.0,0.0,0.0,0.0,0.0,0.0,0.0,0.0,0.0,0.0,0.0,0.0,0.0,0.0,0.0,0.0,0.0,0.0,0.0,0.0,0.0,0.0,0.0,0.0,0.0,0.0,0.0,0.0,0.0,0.0,0.0,0.0,0.0,0.0,0.0,0.0,0.0,0.0,0.0,0.0,0.0,0.0,0.0,0.0,0.0,0.0,0.0,0.0,0.0,0.0,0.0,0.0,0.0,0.0,0.0,0.0,0.0,0.0,0.0,0.0,0.0,0.0,0.0,0.0,0.0,0.0,0.0,0.0,0.0,0.0,0.0,0.0,0.0,0.0,0.0,0.0,0.0,0.0,0.0,0.0,0.0,0.0,0.0,0.0,0.0,0.0,0.0,0.0,0.0,0.0,0.0,0.0,0.0,0.0,0.0,0.0,0.0,0.0,0.0,0.0,0.0,0.0,0.0,0.0,0.0,0.0,0.0,0.0,0.0,0.0,0.0,0.0,0.0,0.0,0.0,0.0,0.0,0.0,0.0,0.0,0.0,0.0,0.0,0.0,0.0,0.0,0.0,0.0,0.0,0.0,0.0,0.0,0.0,0.0,0.0,0.0,0.0,0.0,0.0,0.0,0.0,0.0,0.0,0.0,0.0,0.0,0.0,0.0,0.0,0.0,0.0,0.0,0.0,0.0,0.0,0.0,0.0,0.0,0.0,0.0,0.0,0.0,0.0,0.0,0.0,0.0,0.0,0.0,0.0,0.0,0.0,0.0,0.0,0.0,0.0,0.0,0.0,0.0,0.0,0.0,0.0,0.0,0.0,0.0,0.0,0.0,0.0,0.0,0.0,0.0,0.0,0.0,0.0,0.0,0.0,0.0,0.0,0.0,0.0,0.0,0.0,0.0,0.0,0.0,0.0,0.0,0.0,0.0,0.0,0.0,0.0,0.0,0.0,0.0,0.0,0.0,0.0,0.0,0.0,0.0,0.0,0.0,0.0,0.0,0.0,0.0,0.0,0.0,0.0,0.0,0.0,0.0,0.0,0.0,0.0,0.0,0.0,0.0,0.0,0.0,0.0,0.0,0.0,0.0,0.0,0.0,0.0,0.0,0.0,0.0,0.0,0.0,0.0,0.0,0.0,0.0,0.0,0.0,0.0,0.0,0.0,0.0,0.0,0.0,0.0,0.0,0.0,0.0,0.0,0.0,0.0,0.0,0.0,0.0,0.0,0.0,0.0,0.0,0.0,0.0,0.0,0.0,0.0,0.0,0.0,0.0,0.0,0.0,0.0,0.0,0.0,0.0,0.0,0.0,0.0,0.0,0.0,0.0,0.0,0.0,0.0,0.0,0.0,0.0,0.0,0.0,0.0,0.0,0.0,0.0,0.0,0.0,0.0,0.0,0.0,0.0,0.0,0.0,0.0,0.0,0.0,0.0,0.0,0.0,0.0,0.0,0.0,0.0,0.0,0.0,0.0,0.0,0.0,0.0,0.0,0.0,0.0,0.0,0.0,0.0,0.0,0.0,0.0,0.0,0.0,0.0,0.0,0.0,0.0,0.0,0.0,0.0,0.0,0.0,0.0,0.0,0.0,0.0,0.0,0.0,0.0,0.0,0.0,0.0,0.0,0.0,0.0,0.0,0.0,0.0,0.0,0.0,0.0,0.0,0.0,0.0,0.0,0.0,0.0,0.0,0.0,0.0,0.0,0.0,0.0,0.0,0.0,0.0,0.0,0.0,0.0,0.0,0.0,0.0,0.0,0.0,0.0,0.0,0.0,0.0,0.0,0.0,0.0,0.0,0.0,0.0,0.0,0.0,0.0,0.0,0.0,0.0,0.0,0.0,0.0,0.0,0.0,0.0,0.0,0.0,0.0,0.0,0.0,0.0,0.0,0.0,0.0,0.0,0.0,0.0,0.0,0.0,0.0,0.0,0.0,0.0,0.0,0.0,0.0,0.0,0.0,0.0,0.0,0.0,0.0,0.0,0.0,0.0,0.0,0.0,0.0,0.0,0.0,0.0,0.0,0.0,0.0,0.0,0.0,0.0,0.0,0.0,0.0,0.0,0.0,0.0,0.0,0.0,0.0,0.0,0.0,0.0,0.0,0.0,0.0,0.0,0.0,0.0,-3.3379,0.0,0.0,0.0,0.0,0.0,0.0,0.0,0.0,0.0,0.0,0.0,0.0,0.0,0.0,0.0,0.0,0.0,0.0,0.0,0.0,0.0,0.0,0.0,0.0,0.0,0.0,0.0,0.0,0.0,0.0,0.0,0.0,0.0,0.0,0.0,0.0,0.0,0.0,0.0,-1.3034,-1.5191,-1.8293,-1.806,-1.7715,-1.7256,0.0,0.0,0.0,0.0,0.0,0.0,0.0,0.0,0.0,0.0,0.0,0.0,0.0,0.0,0.0,0.0,0.0,0.0,0.0,0.0,0.0,0.0,0.0,0.0,0.0,0.0,0.0,0.0,0.0,0.0,0.0,0.0,0.0,0.0,0.0,0.0,0.0,0.0,0.0,0.0,0.0,0.0,0.0,0.0,0.0,0.0,0.0,0.0,0.0,0.0,0.0,0.0,0.0,0.0,0.0,0.0,0.0,0.0,0.0,0.0,0.0,0.0,0.0,0.0,0.0,0.0,0.0,0.0,0.0,0.0,0.0,-3.4163,0.0,0.0,0.0,0.0,0.0,0.0,0.0,0.0,0.0,0.0,0.0,0.0,0.0,0.0,0.0,0.0,0.0,0.0,0.0,0.0,0.0,0.0,0.0,0.0,-0.6548,-0.6904,-0.793,0.0,0.0,0.0,0.0,0.0,0.0,0.0,0.0,0.0,0.0,-1.3094,-1.5702,-1.8373,-2.1129,-2.2101,-2.1593,-1.9778,-1.8268,0.0,0.0,0.0,0.0,0.0,0.0,0.0,0.0,0.0,0.0,0.0,0.0,0.0,0.0,0.0,0.0,0.0,0.0,0.0,0.0,0.0,0.0,0.0,0.0,0.0,0.0,0.0,0.0,0.0,0.0,0.0,0.0,0.0,0.0,0.0,0.0,0.0,0.0,0.0,0.0,0.0,0.0,0.0,0.0,0.0,0.0,0.0,0.0,0.0,0.0,0.0,0.0,0.0,0.0,0.0,0.0,0.0,0.0,0.0,0.0,0.0,0.0,0.0,-3.8133,-3.875,-3.9257,-3.9876,-4.0996,-4.2182,-3.8252,-3.7198,-3.7989,0.0,0.0,0.0,0.0,0.0,0.0,0.0,0.0,0.0,0.0,0.0,0.0,0.0,0.0,0.0,0.0,0.0,0.0,0.0,0.0,0.0,0.0,-0.6683,-0.7104,-0.785,-0.8744,-0.9422,0.0,0.0,0.0,0.0,0.0,0.0,0.0,-1.1924,-1.3163,-1.4695,-1.9574,-2.1828,-2.1648,-2.2979,-2.3631,-2.3634,-2.2861,-2.2499,-2.2433,0.0,0.0,0.0,0.0,0.0,0.0,0.0,0.0,0.0,0.0,0.0,0.0,0.0,0.0,0.0,0.0,0.0,0.0,0.0,0.0,0.0,0.0,0.0,0.0,0.0,0.0,0.0,0.0,0.0,0.0,0.0,0.0,0.0,0.0,0.0,0.0,0.0,0.0,0.0,0.0,0.0,-2.9536,-2.8648,0.0,0.0,0.0,0.0,0.0,0.0,0.0,0.0,0.0,0.0,0.0,0.0,0.0,-3.518,-3.6739,-3.7931,-3.885,-3.9488,-4.0989,-4.2032,-4.2672,-4.2761,-4.3398,-4.4389,-4.3679,0.0,-4.0442,-3.8631,0.0,0.0,0.0,0.0,0.0,0.0,0.0,0.0,0.0,0.0,0.0,0.0,0.0,0.0,0.0,0.0,0.0,0.0,0.0,0.0,0.0,-0.8833,-0.9616,-1.0086,-1.1824,-1.2397,-1.125,0.0,0.0,0.0,0.0,-1.2101,-1.229,-1.3591,-1.5693,-1.8607,-2.1542,-2.3565,-2.4642,-2.5759,-2.6719,-2.7514,-2.7332,-2.5994,-2.3799,-2.2547,0.0,0.0,0.0,0.0,0.0,0.0,0.0,0.0,0.0,0.0,0.0,0.0,0.0,0.0,0.0,0.0,0.0,0.0,0.0,0.0,0.0,0.0,0.0,0.0,0.0,0.0,0.0,0.0,0.0,0.0,0.0,0.0,0.0,0.0,0.0,0.0,0.0,0.0,0.0,-2.8566,-2.9554,-3.0439,-2.9379,-2.8435,0.0,0.0,0.0,0.0,0.0,0.0,0.0,0.0,0.0,-3.7697,-3.7526,-3.8343,-4.0292,-4.076,-4.1148,-4.1411,-4.2471,-4.3119,-4.3415,-4.3825,-4.426,-4.4693,-4.4348,-4.3519,-4.2346,-4.0853,-3.9254,-3.7567,0.0,0.0,0.0,0.0,-3.3089,-3.335,0.0,0.0,0.0,0.0,0.0,0.0,0.0,0.0,0.0,0.0,0.0,0.0,-0.9319,-1.1092,-1.227,-1.2352,-1.4422,-1.4839,-1.2759,-1.3684,0.0,0.0,0.0,-1.2797,-1.3457,-1.5435,-1.8135,-2.158,-2.3254,-2.4927,-2.665,-2.7838,-2.8764,-2.9394,-2.9802,-2.8372,-2.5635,-2.4547,-2.3338,-2.1963,0.0,0.0,0.0,0.0,0.0,0.0,0.0,0.0,0.0,0.0,0.0,0.0,0.0,0.0,0.0,0.0,0.0,0.0,0.0,0.0,0.0,0.0,0.0,0.0,0.0,0.0,0.0,0.0,0.0,0.0,0.0,0.0,0.0,0.0,0.0,0.0,0.0,-2.908,-3.0395,-3.2085,-3.1571,-3.0747,0.0,0.0,0.0,0.0,0.0,0.0,-3.6163,-3.6258,-3.744,-4.0005,-4.0092,-4.1016,-4.2844,-4.267,-4.257,-4.253,-4.2995,-4.3304,-4.3536,-4.4089,-4.4446,-4.4632,-4.4486,-4.4366,-4.4139,-4.2404,-4.1282,-4.0455,-3.8356,-3.6998,-3.63,-3.628,-3.6594,-3.7202,0.0,0.0,0.0,0.0,0.0,0.0,0.0,0.0,0.0,0.0,0.0,-1.0628,-1.0612,-1.2898,-1.4369,-1.4198,-1.5291,-1.5531,-1.4443,-1.4787,-1.4777,-1.4141,-1.4278,-1.4326,-1.424,-1.7173,-1.9869,-2.2156,-2.5082,-2.6307,-2.5989,-2.7943,-2.8475,-2.7784,-2.8854,-2.941,-2.941,-2.7795,-2.6554,-2.5399,-2.1791,0.0,0.0,0.0,0.0,0.0,0.0,0.0,0.0,0.0,0.0,0.0,0.0,0.0,0.0,0.0,0.0,0.0,0.0,0.0,0.0,0.0,0.0,0.0,0.0,0.0,0.0,0.0,0.0,0.0,0.0,0.0,0.0,0.0,0.0,0.0,0.0,0.0,0.0,-3.3109,-3.4924,0.0,0.0,0.0,0.0,-3.5157,-3.5164,-3.6201,-3.86,-3.815,-3.9301,-4.2611,-4.2105,-4.2123,-4.2822,-4.2649,-4.249,-4.2328,-4.2341,-4.2751,-4.3518,-4.3554,-4.4007,-4.485,-4.5713,-4.6079,-4.5899,-4.3664,-4.1579,-3.9904,-4.0548,-3.9155,-3.7106,-3.9256,-4.0061,-4.0202,0.0,0.0,0.0,0.0,0.0,0.0,0.0,0.0,0.0,-0.8361,-0.9936,-1.1274,-1.1978,-1.4529,-1.6336,-1.6574,-1.8055,-1.8351,-1.6924,-1.6811,-1.6434,-1.5453,-1.4943,-1.5642,-1.772,-1.9493,-2.1649,-2.4267,-2.5453,-2.6502,-2.7391,-2.8488,-2.9139,-2.9477,-2.9906,-3.007,-3.0011,-2.9102,-2.7933,-2.6498,-2.3942,-2.1744,0.0,0.0,0.0,0.0,0.0,0.0,0.0,0.0,0.0,0.0,0.0,0.0,0.0,0.0,0.0,0.0,0.0,0.0,0.0,0.0,0.0,0.0,0.0,0.0,0.0,0.0,0.0,0.0,0.0,0.0,0.0,0.0,0.0,0.0,0.0,0.0,0.0,-3.5159,-3.6045,0.0,-3.6667,-3.6961,-3.7386,-3.7993,-3.8779,-3.9877,-4.1283,-4.1252,-4.165,-4.2714,-4.274,-4.2777,-4.2862,-4.2688,-4.2609,-4.2627,-4.2992,-4.3077,-4.2956,-4.3996,-4.442,-4.4322,-4.509,-4.5474,-4.5485,-4.4597,-4.4037,-4.3781,-4.3483,-4.2732,-4.1881,-4.2713,-4.3075,-4.3198,0.0,0.0,0.0,0.0,0.0,0.0,0.0,0.0,-0.8805,-0.9932,-1.1432,-1.2902,-1.4222,-1.6679,-1.8295,-1.8461,-1.9726,-1.9751,-1.7978,-1.7812,-1.7238,-1.5937,-1.5773,-1.711,-2.0079,-2.1085,-2.2715,-2.5114,-2.5787,-2.6858,-2.8192,-2.8855,-2.9499,-3.0162,-3.0369,-3.021,-2.976,-2.9553,-2.8793,-2.7457,-2.5416,-2.34,-2.1372,0.0,0.0,0.0,0.0,0.0,0.0,0.0,0.0,0.0,0.0,0.0,0.0,0.0,0.0,0.0,0.0,0.0,0.0,0.0,0.0,0.0,0.0,0.0,0.0,0.0,0.0,0.0,0.0,0.0,0.0,0.0,0.0,0.0,0.0,0.0,-3.5666,-3.6306,-3.7653,-3.8528,-3.8496,-3.9283,-4.0,-4.0526,-4.1452,-4.221,-4.2752,-4.2976,-4.3122,-4.3262,-4.3324,-4.3452,-4.3677,-4.3367,-4.3307,-4.3556,-4.3922,-4.3904,-4.3454,-4.4556,-4.4795,-4.4385,-4.5178,-4.5544,-4.5644,-4.5915,-4.6206,-4.6457,-4.5354,-4.4695,-4.4396,-4.4742,-4.4952,-4.5066,0.0,0.0,0.0,0.0,0.0,0.0,0.0,-0.8969,-1.0032,-1.2309,-1.4011,-1.564,-1.7219,-1.9156,-2.0194,-1.9631,-2.0093,-1.9547,-1.7604,-1.7693,-1.7107,-1.552,-1.6882,-1.8735,-2.1003,-2.1867,-2.3111,-2.4672,-2.624,-2.7442,-2.824,-2.9042,-2.9448,-2.9483,-3.0087,-2.9838,-2.8965,-2.9315,-2.9182,-2.8514,-2.6209,-2.4734,-2.3606,0.0,0.0,0.0,0.0,0.0,0.0,0.0,0.0,0.0,0.0,0.0,0.0,0.0,0.0,0.0,0.0,0.0,0.0,0.0,0.0,0.0,0.0,0.0,0.0,0.0,0.0,0.0,0.0,0.0,0.0,0.0,0.0,0.0,-3.2635,-3.5308,-3.729,-3.6666,-3.9976,-4.1889,-4.0901,-4.2285,-4.3087,-4.2786,-4.288,-4.3012,-4.3104,-4.3233,-4.3634,-4.4436,-4.3956,-4.4144,-4.5224,-4.4704,-4.4626,-4.5,-4.5183,-4.5183,-4.5042,-4.5201,-4.5219,-4.5114,-4.6096,-4.6545,-4.6599,-4.7583,-4.7888,-4.7554,-4.5997,-4.4892,-4.4313,-4.5319,-4.5721,-4.5842,0.0,0.0,0.0,0.0,0.0,0.0,0.0,-0.9425,-1.0349,-1.2607,-1.4223,-1.5672,-1.7024,-1.8719,-1.9739,-1.9729,-1.9995,-1.9914,-1.9184,-1.8712,-1.7922,-1.6669,-1.8281,-2.0006,-2.1682,-2.2778,-2.4323,-2.6426,-2.724,-2.8119,-2.9074,-2.9713,-3.0015,-3.0104,-3.0107,-2.9903,-2.9534,-2.9329,-2.8997,-2.8591,-2.7411,-2.6176,-2.481,0.0,0.0,0.0,0.0,0.0,0.0,0.0,0.0,0.0,0.0,0.0,0.0,0.0,0.0,0.0,0.0,0.0,0.0,0.0,0.0,0.0,0.0,0.0,0.0,0.0,0.0,0.0,0.0,0.0,0.0,0.0,0.0,-3.6504,-3.5144,-3.7731,-4.0111,-4.1022,-4.1733,-4.243,-4.3161,-4.3476,-4.3839,-4.4391,-4.443,-4.4652,-4.5223,-4.5205,-4.5297,-4.5607,-4.5242,-4.5222,-4.5603,-4.5249,-4.5171,-4.5367,-4.6168,-4.6189,-4.5485,-4.6887,-4.7067,-4.6317,-4.7052,-4.7438,-4.7601,-4.7715,-4.7801,-4.7765,-4.727,-4.6795,-4.65,-4.6934,-4.7211,-4.7286,0.0,0.0,0.0,0.0,0.0,0.0,0.0,-0.9867,-1.1092,-1.4082,-1.5083,-1.6362,-1.8711,-1.9606,-2.01,-2.0188,-1.9661,-1.9244,-1.907,-1.8493,-1.8215,-1.8371,-1.9557,-2.0854,-2.2311,-2.3555,-2.5034,-2.671,-2.7638,-2.848,-2.9287,-2.9722,-3.006,-3.0316,-3.006,-2.987,-2.9754,-2.9699,-2.9281,-2.8685,-2.8686,-2.7532,-2.5666,-2.4511,-2.3459,-2.2587,-2.2284,-2.2408,-2.2737,-2.2898,0.0,0.0,0.0,0.0,0.0,0.0,0.0,0.0,0.0,0.0,0.0,0.0,0.0,0.0,0.0,0.0,0.0,0.0,0.0,0.0,0.0,0.0,0.0,0.0,-3.678,-3.8719,-3.8242,-4.0515,-4.2382,-4.2791,-4.2921,-4.3264,-4.3974,-4.3902,-4.3989,-4.4398,-4.4699,-4.507,-4.5478,-4.5754,-4.614,-4.6597,-4.6085,-4.6121,-4.6836,-4.6316,-4.62,-4.6564,-4.7236,-4.7238,-4.6624,-4.7789,-4.7954,0.0,-4.7769,-4.801,-4.8111,-4.805,-4.8028,0.0,0.0,0.0,0.0,0.0,-4.7764,-4.8064,0.0,0.0,0.0,0.0,0.0,0.0,0.0,-1.0236,-1.1967,-1.5882,-1.6181,-1.738,-2.1027,-2.1067,-2.0851,-2.0851,-1.9381,-1.8367,-1.8149,-1.7928,-1.8549,-2.0203,-2.067,-2.1549,-2.2999,-2.4273,-2.5433,-2.6416,-2.7722,-2.8638,-2.9136,-2.9409,-2.9786,-3.0277,-3.0011,-2.9899,-2.9971,-3.0352,-2.9911,-2.906,-2.999,-2.8842,-2.6456,-2.5388,-2.4574,-2.3943,-2.3047,-2.3642,-2.4801,-2.4879,0.0,0.0,0.0,0.0,0.0,0.0,0.0,0.0,0.0,0.0,0.0,0.0,0.0,0.0,0.0,0.0,0.0,0.0,0.0,0.0,0.0,0.0,0.0,0.0,-3.866,-4.0943,-4.1185,-4.2953,-4.3916,-4.302,-4.3658,-4.4061,-4.3837,-4.3804,-4.3775,-4.3642,-4.4413,-4.4837,-4.4837,0.0,0.0,0.0,0.0,-4.693,-4.8306,-4.7609,-4.7494,-4.8032,-4.8169,-4.8169,-4.8032,-4.8169,-4.8169,-4.8032,-4.8229,-4.8306,-4.8306,-4.8419,-4.8401,-4.8194,-4.7364,-4.6996,-4.6998,-4.7352,-4.7832,-4.8284,0.0,0.0,0.0,0.0,0.0,0.0,0.0,-1.051,-1.199,-1.5483,-1.634,-1.76,-2.0184,-2.0816,-2.1015,-2.1015,-2.0004,-1.9256,-1.8979,-1.9749,-2.0344,-2.0599,-2.1552,-2.2794,-2.4324,-2.4974,-2.6075,-2.7731,-2.8449,-2.8997,-2.9425,-2.9633,-3.0089,-3.0762,-3.0593,-3.087,-3.1388,-3.1262,-3.1086,-3.091,-3.123,-3.0069,-2.8155,-2.7498,-2.73,-2.7359,-2.7336,-2.7316,-2.7394,-2.7805,-2.793,-2.7779,-2.7147,0.0,0.0,0.0,0.0,0.0,0.0,0.0,0.0,0.0,0.0,0.0,0.0,0.0,0.0,0.0,0.0,0.0,0.0,0.0,0.0,-3.5875,-3.8896,-4.114,-4.1185,-4.2751,-4.3828,-4.3706,-4.3791,-4.3869,-4.3804,-4.3804,-4.3996,-4.4502,-4.5381,-4.586,-4.5663,-4.7151,0.0,-4.7369,-4.7646,-4.7992,-4.8457,-4.8157,-4.8041,-4.8148,0.0,0.0,-4.8267,-4.8495,-4.8439,-4.8187,-4.8286,-4.8306,-4.8306,-4.8306,-4.8229,-4.8053,-4.7882,-4.7787,-4.7809,-4.7974,-4.8121,-4.8242,0.0,0.0,0.0,0.0,0.0,0.0,0.0,-1.0656,-1.1818,-1.4518,-1.5443,-1.671,-1.8871,-1.9542,-1.9908,-2.0101,-1.9821,-1.9374,-1.8761,-2.0592,-2.1828,-2.1996,-2.3137,-2.4231,-2.5206,-2.5953,-2.6927,-2.8268,-2.8826,-2.9198,-2.9396,-3.0003,-3.0448,-3.0836,-3.1175,-3.1577,-3.1948,-3.216,-3.1999,-3.1646,-3.2079,-3.139,-3.0038,-2.9057,-2.8706,-2.8793,-2.8629,-2.8783,-2.9157,-2.9789,-2.9952,-2.9884,-2.9678,-2.9497,-2.9078,0.0,0.0,0.0,0.0,0.0,0.0,0.0,0.0,0.0,0.0,0.0,0.0,0.0,0.0,-3.2402,0.0,0.0,-3.6056,-3.7308,-3.954,-4.1172,-4.1248,-4.2636,-4.3719,-4.3818,-4.3837,-4.3753,-4.3719,-4.3719,-4.3833,-4.4186,-4.4854,-4.5332,-4.5438,-4.6838,-4.7592,-4.7457,-4.794,-4.8343,-4.8661,-4.8343,-4.8226,-4.8343,-4.8458,-4.8402,-4.8247,-4.8382,-4.8382,-4.8247,-4.8286,-4.8344,-4.8458,-4.8401,-4.8229,-4.7992,-4.8087,-4.8024,-4.7997,-4.8532,-4.8462,-4.8145,0.0,0.0,0.0,0.0,0.0,0.0,0.0,0.0,-1.1654,-1.3586,-1.4471,-1.5682,-1.7681,-1.8301,-1.8639,-1.8863,-1.9735,-1.9741,-1.8525,-2.1257,-2.3082,-2.3426,-2.4349,-2.5202,-2.6056,-2.6758,-2.755,-2.8541,-2.9029,-2.9369,-2.9573,-3.0218,-3.0728,-3.1146,-3.1722,-3.2172,-3.2464,-3.3016,-3.2886,-3.2289,-3.2885,-3.2724,-3.1951,-3.0606,-2.9888,-2.9553,-2.9242,-2.9593,-3.0309,-3.1015,-3.1368,-3.1542,-3.1821,-3.1636,-3.1046,-2.9644,-2.9278,0.0,0.0,0.0,0.0,0.0,0.0,0.0,0.0,0.0,-3.1222,-3.3024,-3.3569,-3.433,-3.6376,-3.6859,-3.7423,-3.8939,-4.0327,-4.1277,-4.1533,-4.2695,-4.3566,-4.3704,-4.3738,-4.3652,-4.3532,-4.3566,-4.3566,-4.3566,-4.4125,-4.4637,-4.4936,-4.6177,-4.7039,-4.7404,-4.7978,-4.8419,-4.8715,-4.8363,-4.8304,-4.8437,-4.8324,-4.8247,-4.8187,-4.8226,-4.8247,-4.8306,-4.8306,-4.8458,-4.8587,-4.8494,-4.8265,-4.7992,-4.8068,-4.8024,-4.8011,-4.868,-4.8561,-4.8105,0.0,0.0,0.0,0.0,0.0,0.0,0.0,0.0,0.0,-1.3347,-1.42,-1.5374,-1.7269,-1.8096,-1.8401,-1.8152,-2.0654,-2.1443,-1.9485,-2.2224,-2.3949,-2.4005,-2.3867,-2.4822,-2.6991,-2.681,-2.7453,-2.9029,-2.9213,-2.9685,-3.0446,-3.0023,-3.0824,-3.2627,-3.2207,-3.2692,-3.3874,-3.3955,-3.3939,-3.3874,-3.3955,-3.3889,-3.3727,-3.282,-3.1773,-3.0749,-3.0875,-3.0803,-3.0733,-3.1269,-3.1538,-3.1617,-3.1821,-3.2546,-3.272,-2.981,0.0,-3.0749,-2.7929,-2.8959,-3.1138,-3.2498,-3.2857,-3.3593,0.0,0.0,-3.5781,-3.7398,-3.7912,-3.8173,-3.8377,-3.8633,-3.911,-4.0076,-4.0956,-4.1779,-4.2452,-4.3162,-4.3566,-4.3465,-4.3429,-4.3376,-4.3251,-4.3376,-4.3411,-4.3411,-4.4322,-4.4816,-4.4744,-4.6323,-4.7187,-4.715,-4.7996,-4.8419,-4.8344,-4.8306,-4.8286,-4.8226,-4.8226,-4.8187,-4.8187,-4.8247,-4.8306,-4.8306,-4.8419,-4.8513,-4.8587,-4.8324,-4.813,-4.7992,-4.7824,-4.7814,-4.7904,-4.8088,-4.8079,-4.8097,0.0,0.0,0.0,0.0,0.0,0.0,0.0,0.0,0.0,0.0,-1.3268,-1.4106,-1.5019,-1.6237,-1.7058,-1.7249,-2.002,-2.1342,-2.0317,-2.3447,-2.5274,-2.5097,-2.5792,-2.6622,-2.7664,-2.7891,-2.8355,-2.8967,-2.9259,-2.9601,-2.9934,-3.0183,-3.0806,-3.174,-3.1994,-3.243,-3.2999,-3.3405,-3.3567,-3.36,-3.3872,-3.4,-3.3968,-3.3593,-3.2934,-3.1915,-3.0451,-2.9683,0.0,-2.9986,-3.015,-3.0341,-3.1489,-3.2192,-3.2232,-3.034,-3.0272,0.0,-3.0707,-3.1508,0.0,0.0,-3.4782,-3.5131,-3.6499,-3.6349,-3.6394,-3.8054,-3.851,-3.8652,-3.8689,-3.8713,-3.9073,0.0,-4.0843,-4.1643,-4.2519,-4.3185,-4.3548,-4.3375,-4.3376,-4.334,-4.3196,-4.3358,-4.3629,-4.4106,-4.4508,-4.4965,-4.5549,-4.6544,-4.7169,-4.7261,-4.8071,-4.8494,-4.8476,-4.8382,-4.8324,-4.8381,-4.8284,-4.8187,-4.8187,-4.8169,-4.8111,-4.8151,-4.8381,-4.8476,-4.842,-4.8306,-4.8187,-4.8087,-4.7947,-4.7861,-4.7898,-4.8557,-4.8454,-4.8138,0.0,0.0,0.0,0.0,0.0,0.0,0.0,0.0,0.0,0.0,-1.2488,-1.3031,-1.3488,-1.4929,-1.6039,-1.6454,-1.9045,-2.0654,-2.067,-2.3631,-2.5546,-2.582,-2.6864,-2.7643,-2.8155,-2.8561,-2.8886,-2.9059,-2.9412,-2.9659,-2.991,-3.0277,-3.0739,-3.1235,-3.1651,-3.2071,-3.2478,-3.2982,-3.3242,-3.3405,-3.374,-3.3899,-3.3832,-3.3689,-3.3095,-3.2174,-3.0391,-2.9476,-2.9152,-2.9296,-2.9317,-2.9558,-3.0941,-3.1551,-3.1583,-3.0457,-3.0009,-3.0263,-3.2112,0.0,0.0,-3.583,-3.6544,-3.688,-3.7162,-3.6871,-3.703,-3.8696,-3.8757,-3.8583,-3.887,-3.8755,-3.8982,-4.0197,-4.088,-4.1636,-4.277,-4.3332,-4.3582,-4.3408,-4.341,-4.3376,-4.3196,-4.3358,-4.3793,-4.4564,-4.4637,-4.5168,-4.6394,-4.6819,-4.7223,-4.7647,-4.8181,-4.8476,-4.8514,-4.8306,-4.8286,-4.8437,-4.8226,-4.8148,-4.8187,-4.8169,-4.8151,-4.819,-4.8419,-4.8457,-4.8363,-4.8286,-4.8226,-4.8181,-4.805,-4.8088,-4.8345,-4.9138,-4.8834,-4.8161,0.0,0.0,0.0,0.0,0.0,0.0,0.0,0.0,0.0,0.0,0.0,0.0,0.0,-1.4952,-1.5847,-1.5919,-1.7963,-1.9599,-2.0348,-2.2262,-2.4162,-2.5925,-2.5893,-2.6716,-2.8542,-2.8185,-2.8426,-2.9473,-2.9608,-3.008,-3.0833,-3.0214,-3.0635,-3.1947,-3.1267,-3.1737,-3.3048,-3.3064,-3.342,-3.3866,-3.3882,-3.3797,-3.363,-3.3076,-3.2047,-3.1021,-3.144,-3.1357,-3.0862,-2.9972,-2.9756,-2.9937,-3.0166,-3.0822,0.0,-2.9848,-2.9236,0.0,0.0,0.0,-3.5232,-3.6772,-3.8281,-3.9597,-4.0379,-3.944,-3.883,-4.0304,-3.9477,-3.8716,-3.9455,-3.9153,-3.9307,-4.0909,-4.1403,-4.2087,-4.3578,-4.3786,-4.3753,-4.3597,-4.3548,-4.3428,0.0,-4.334,-4.3669,-4.4364,-4.4583,-4.5406,-4.7003,-4.7113,-4.748,-4.8251,-4.8288,-4.8306,-4.8306,-4.8111,-4.809,-4.8187,-4.809,-4.809,-4.8187,-4.8399,-4.8513,-4.8587,-4.8513,-4.8513,-4.8475,-4.8265,-4.8224,-4.8181,-4.805,-4.8553,-4.9349,-4.9441,-4.8859,-4.8247,0.0,0.0,0.0,0.0,0.0,0.0,0.0,0.0,0.0,0.0,0.0,0.0,0.0,0.0,0.0,0.0,-1.8312,-1.946,-1.9908,-2.2357,-2.4139,-2.4998,-2.6639,-2.7905,-2.8718,-2.9002,-2.9392,-2.9826,-2.9726,-2.9839,-3.0182,-2.9955,-3.0162,-3.066,-3.0372,-3.072,-3.1547,-3.2031,-3.2579,-3.304,-3.3006,-3.3278,-3.3518,-3.1903,-3.1467,-3.1593,0.0,-2.9117,-2.8323,0.0,0.0,0.0,-3.0071,0.0,0.0,-2.8816,0.0,0.0,0.0,0.0,-3.6413,-3.7482,-3.8486,-3.9192,-3.9023,-3.9018,-3.9197,-3.9779,-3.8631,-3.7576,-3.7885,-3.733,-3.7405,-3.9234,-4.0504,-4.1857,-4.3564,-4.3719,-4.3634,-4.3548,-4.3463,0.0,0.0,0.0,0.0,-4.4528,-4.5276,-4.6155,-4.726,-4.7665,-4.8031,-4.8306,-4.7774,-4.7461,-4.7441,-4.6757,-4.6444,-4.6462,-4.7069,-4.7696,-4.8381,-4.8475,-4.8532,-4.8587,-4.8532,-4.8513,-4.8513,-4.8324,-4.8247,-4.832,-4.8776,-4.9179,-4.9661,-5.0149,-5.0208,-5.0126,0.0,0.0,0.0,0.0,0.0,0.0,0.0,0.0,0.0,0.0,0.0,0.0,0.0,0.0,0.0,0.0,0.0,0.0,-1.9491,-2.1418,-2.2853,-2.3588,-2.5417,-2.6559,-2.6844,-2.7671,-2.8012,-2.7869,-2.8576,-2.8952,-2.9018,-2.945,-2.9842,-3.0087,-2.9946,-3.0409,-3.1286,-3.1801,-3.2191,-3.2531,-3.245,-3.2434,-3.2192,-3.0596,-3.0173,0.0,-2.8971,-2.7709,-2.6799,0.0,0.0,0.0,0.0,0.0,0.0,0.0,0.0,0.0,0.0,-3.5628,-3.7496,-3.8526,-3.8924,-3.9068,-3.8939,-3.8831,-3.8957,-3.9588,-3.8013,-3.663,-3.6971,-3.6417,-3.631,-3.7576,-3.9179,-4.0896,-4.2599,-4.2769,-4.2938,-4.3474,-4.3463,0.0,0.0,0.0,0.0,-4.504,-4.5786,-4.6666,-4.7684,-4.8106,-4.8324,-4.8286,-4.7772,-4.7331,-4.6941,-4.6335,-4.6041,-4.6097,-4.7074,-4.7886,-4.8532,-4.8569,-4.8587,-4.8587,-4.855,-4.8532,-4.8494,-4.8419,-4.8546,-4.8895,-4.9391,-5.0016,-5.0677,-5.1173,-5.1603,-5.1927,0.0,0.0,0.0,0.0,0.0,0.0,0.0,0.0,0.0,0.0,0.0,0.0,0.0,0.0,0.0,0.0,0.0,0.0,-1.9033,-1.9605,-2.051,-2.1856,-2.2572,-2.3061,-2.3304,-2.4395,-2.4663,-2.4047,-2.6319,-2.7429,-2.7496,-2.8583,-2.9468,-3.0079,-2.9831,-3.0542,-3.1965,-3.2089,-3.2134,-3.2163,-3.204,-3.1148,-2.9815,-2.914,-2.8168,-2.7241,-2.7743,-2.723,0.0,0.0,0.0,0.0,0.0,0.0,0.0,0.0,0.0,-3.302,-3.6204,-3.7597,-3.8456,-3.9805,-3.9606,-3.9319,-4.0021,-3.905,-3.8366,-3.9695,-3.7644,-3.5874,0.0,0.0,-3.6058,-3.6095,-3.7698,-3.9498,-4.1015,-4.1268,-4.1885,0.0,0.0,0.0,0.0,0.0,0.0,-4.5792,0.0,-4.6942,-4.8197,-4.8438,-4.8419,-4.8226,-4.8151,-4.7709,-4.6825,-4.677,-4.6827,-4.7016,-4.8034,-4.8586,-4.8623,-4.8751,-4.8732,-4.8623,-4.8623,-4.8587,-4.8513,-4.8531,-4.9103,-4.9895,-4.9987,-5.0956,-5.2302,-5.2375,-5.2844,-5.3402,0.0,0.0,0.0,0.0,0.0,0.0,0.0,0.0,0.0,0.0,0.0,0.0,0.0,0.0,0.0,0.0,0.0,0.0,-1.7979,-1.9147,-2.0036,-2.0555,-2.2321,-2.3429,-2.3731,-2.4231,-2.4503,-2.4506,-2.4825,-2.533,-2.595,-2.6252,-2.6768,-2.7487,-2.7394,-2.7781,-2.8494,-2.8471,-2.8704,-2.9067,-2.8421,-2.8266,-2.8314,-2.6611,-2.6343,-2.6708,-2.5917,0.0,0.0,0.0,0.0,0.0,0.0,0.0,-3.1954,0.0,0.0,-3.5466,-3.6461,-3.8456,-4.0039,-3.9365,-3.9437,-3.9493,-3.8761,-3.8776,-3.8755,-3.8077,-3.6381,-3.4732,0.0,0.0,0.0,-3.5933,-3.9004,0.0,-4.266,-4.2842,0.0,0.0,0.0,-4.3431,-4.3773,-4.3944,0.0,0.0,-4.6863,-4.7469,-4.7874,-4.831,-4.8475,-4.8437,-4.7737,-4.7239,-4.6941,-4.6377,-4.6452,-4.7075,-4.7481,-4.8138,-4.8903,-4.8822,-4.8802,-4.8807,-4.8768,-4.8643,-4.8532,-4.9141,-4.9547,-4.988,-5.1063,-5.1894,-5.2449,-5.3085,-5.3496,-5.37,0.0,0.0,0.0,0.0,0.0,0.0,0.0,0.0,0.0,0.0,0.0,0.0,0.0,0.0,0.0,0.0,0.0,0.0,0.0,-1.8589,-1.9158,-1.9252,-2.048,-2.1248,-2.1472,-2.2014,-2.2185,-2.1987,-2.2819,-2.363,-2.4413,-2.4961,-2.5754,-2.6657,-2.659,-2.6873,-2.7453,-2.7473,-2.7487,0.0,0.0,-2.6673,-2.6376,-2.523,-2.5071,-2.5453,0.0,0.0,0.0,0.0,0.0,-3.1768,-3.2355,-3.2588,-3.2829,-3.3651,0.0,-3.6451,-3.7793,-3.9292,-4.0388,-3.995,-3.9611,-3.906,-3.7596,-3.7379,-3.707,-3.5533,-3.4051,0.0,0.0,0.0,0.0,0.0,0.0,0.0,-4.2101,-4.2245,-4.2519,0.0,-4.3269,0.0,-4.3975,-4.4247,-4.5129,0.0,-4.7088,-4.7478,-4.8184,-4.851,-4.8569,-4.8513,-4.8016,-4.7574,-4.7131,-4.6801,-4.6818,-4.7242,-4.7846,-4.841,-4.8956,-4.8892,-4.8872,-4.8859,0.0,-4.8919,-4.9104,-4.9547,-5.0194,-5.0951,-5.188,-5.2568,-5.3068,-5.3552,-5.3775,-5.3774,0.0,0.0,0.0,0.0,0.0,0.0,0.0,0.0,0.0,0.0,0.0,0.0,0.0,0.0,0.0,0.0,0.0,0.0,0.0,0.0,0.0,-1.8232,-1.8304,-1.8348,-1.8406,-1.9155,-1.9213,-1.8485,-2.0612,-2.1983,-2.268,-2.392,-2.5115,-2.6247,-2.6177,-2.6537,-2.7182,-2.7215,-2.6906,-2.6373,-2.6343,-2.5544,-2.4343,0.0,0.0,0.0,0.0,0.0,0.0,0.0,-3.2429,-3.3158,-3.3002,-3.2861,-3.3124,-3.4694,-3.5701,-3.6834,-3.9218,-3.9881,-4.0092,-4.077,-3.9878,-3.836,-3.672,-3.5775,-3.4722,-3.2855,0.0,-3.0812,-3.0585,0.0,-3.4111,-3.3728,0.0,-3.9565,-4.056,-4.0848,-4.1466,-4.2777,-4.3214,-4.3758,-4.4634,-4.4985,-4.5879,-4.7667,-4.7052,-4.7248,-4.873,-4.8711,-4.8584,-4.8421,-4.8569,-4.8273,-4.75,-4.7677,-4.7712,-4.7624,-4.8627,-4.9049,-4.8943,-4.8909,-4.8872,-4.8781,-4.8824,0.0,-4.9713,-4.9785,-5.0805,-5.23,-5.2356,-5.2957,-5.3794,-5.3683,-5.3701,-5.3756,0.0,0.0,0.0,0.0,0.0,0.0,0.0,0.0,0.0,0.0,-1.4901,-1.5627,0.0,0.0,0.0,0.0,0.0,0.0,0.0,0.0,0.0,0.0,-1.8426,-1.8465,-1.8485,0.0,0.0,0.0,0.0,-1.9611,-2.0389,-2.1344,-2.2159,-2.2877,-2.3517,-2.385,-2.392,-2.3813,-2.3727,-2.3676,-2.3488,-2.3241,-2.2973,0.0,0.0,0.0,0.0,0.0,0.0,0.0,-3.3098,-3.4923,-3.5929,-3.6162,-3.6077,-3.6379,-3.7246,-3.8164,-3.8496,-3.926,-3.9911,-3.9975,-3.9391,-3.838,-3.688,-3.608,0.0,0.0,0.0,-3.0786,-2.9416,-3.1128,0.0,-3.4457,0.0,0.0,0.0,0.0,-4.1885,0.0,0.0,0.0,0.0,0.0,0.0,0.0,0.0,-4.7276,-4.8781,-4.8293,-4.7939,-4.7837,-4.8435,-4.8677,-4.8547,-4.8635,-4.8686,-4.8736,-4.8974,-4.9083,-4.9046,-4.8943,-4.8872,-4.8816,-4.8855,0.0,-4.9173,-4.9753,-5.0655,-5.1769,-5.2233,-5.2976,-5.372,-5.3051,-5.3219,-5.3682,0.0,0.0,0.0,0.0,0.0,0.0,0.0,-1.2869,-1.3074,-1.3567,-1.4341,-1.5245,-1.6342,-1.7288,-1.7922,0.0,0.0,0.0,0.0,0.0,0.0,0.0,0.0,0.0,0.0,0.0,0.0,0.0,0.0,0.0,0.0,0.0,0.0,0.0,0.0,0.0,0.0,-2.2968,-2.307,0.0,0.0,0.0,0.0,0.0,0.0,0.0,0.0,0.0,0.0,0.0,-3.2247,-3.5021,-3.6511,-3.7052,-3.7069,-3.693,-3.7408,-3.8011,-3.8362,-3.883,-3.9337,-3.9708,-3.9206,-3.8053,-3.5791,0.0,0.0,0.0,-2.9717,-2.973,-2.9352,0.0,0.0,0.0,0.0,0.0,0.0,0.0,0.0,0.0,0.0,0.0,0.0,0.0,0.0,0.0,0.0,-4.7666,-4.8394,-4.763,-4.7117,-4.6984,-4.7747,-4.814,-4.8015,-4.8564,-4.8839,-4.8802,-4.8909,-4.8993,-4.8986,-4.894,-4.889,-4.8853,-4.889,0.0,-4.9573,-4.9891,-5.0543,-5.1435,-5.1658,-5.2085,-5.2493,-5.212,-5.2214,-5.2494,0.0,0.0,0.0,0.0,0.0,0.0,0.0,-1.3033,-1.3104,-1.3329,-1.4211,-1.5144,-1.6038,-1.7181,-1.8004,0.0,0.0,0.0,0.0,0.0,0.0,0.0,0.0,0.0,0.0,0.0,0.0,0.0,0.0,0.0,0.0,0.0,0.0,0.0,0.0,0.0,0.0,0.0,0.0,0.0,0.0,0.0,0.0,0.0,0.0,0.0,0.0,0.0,0.0,0.0,-3.0866,-3.3754,-3.5545,-3.6521,-3.6915,-3.667,-3.6766,-3.7127,-3.8087,-3.8315,-3.851,-3.9292,-3.888,-3.7494,-3.4707,-3.3422,0.0,0.0,-2.8432,-2.8771,-2.9565,0.0,0.0,0.0,0.0,0.0,0.0,0.0,0.0,0.0,0.0,0.0,0.0,0.0,0.0,0.0,0.0,0.0,-4.7658,-4.6959,-4.6415,-4.6131,-4.6913,-4.7363,-4.7388,-4.8142,-4.8566,-4.8642,-4.8804,-4.889,-4.89,-4.8906,-4.8927,-4.8946,-4.8909,0.0,0.0,-4.9778,-5.0271,-5.1036,-5.0988,-5.1266,-5.1614,-5.1264,-5.1359,-5.1619,0.0,0.0,0.0,0.0,0.0,0.0,0.0,-1.3123,-1.321,-1.3526,-1.4865,-1.5572,-1.502,-1.63,-1.7542,0.0,0.0,0.0,0.0,0.0,0.0,0.0,0.0,0.0,0.0,0.0,0.0,0.0,0.0,0.0,0.0,0.0,0.0,0.0,0.0,0.0,0.0,0.0,0.0,0.0,0.0,0.0,0.0,0.0,0.0,0.0,0.0,0.0,0.0,0.0,0.0,-3.0712,-3.2943,-3.4483,-3.5482,-3.5401,0.0,0.0,-3.7127,-3.7479,-3.758,-3.828,-3.7931,-3.6821,-3.4445,0.0,0.0,-2.9017,-2.8484,-2.8822,-2.9644,-2.9898,0.0,0.0,0.0,0.0,0.0,0.0,0.0,0.0,0.0,0.0,0.0,0.0,0.0,0.0,0.0,0.0,-4.6601,-4.6428,-4.6071,-4.5494,-4.6211,-4.6925,-4.7667,-4.7692,-4.8064,-4.8787,-4.8788,-4.8825,-4.8898,-4.8911,-4.8964,-4.9057,-4.889,0.0,0.0,-4.9052,-4.957,-5.0536,-5.0283,-5.1138,-5.2308,-5.0766,-5.1175,-5.2271,0.0,0.0,0.0,0.0,0.0,0.0,-1.3295,-1.3261,-1.3329,-1.362,-1.4251,-1.4943,-1.5624,-1.6357,-1.7081,-1.7788,0.0,0.0,0.0,0.0,0.0,0.0,0.0,0.0,0.0,0.0,0.0,0.0,0.0,0.0,0.0,0.0,0.0,0.0,0.0,0.0,0.0,0.0,0.0,0.0,0.0,0.0,0.0,0.0,0.0,0.0,0.0,0.0,0.0,0.0,0.0,0.0,-3.0457,-3.1719,0.0,0.0,-3.537,-3.5695,-3.7167,-3.7374,-3.7379,-3.8213,-3.7058,-3.5454,-3.4401,0.0,0.0,-2.8856,-2.8889,-2.9493,-3.0315,-3.0115,-3.0249,-3.1356,0.0,0.0,0.0,0.0,0.0,0.0,0.0,0.0,0.0,0.0,0.0,0.0,0.0,0.0,-4.5445,-4.5203,-4.4859,-4.4493,-4.5305,-4.5848,-4.6149,-4.7048,-4.7661,-4.8011,-4.855,-4.8827,-4.8844,-4.8952,-4.9019,-4.8983,-4.889,0.0,0.0,-4.8993,-4.9222,-4.974,-4.9466,-5.0098,-5.1026,-5.0358,-5.0859,-5.1788,0.0,0.0,0.0,0.0,0.0,-1.3243,-1.3429,-1.3396,-1.3461,-1.3759,-1.4103,-1.4654,-1.5555,-1.6238,-1.6682,-1.6796,-1.7697,0.0,0.0,0.0,0.0,0.0,0.0,0.0,0.0,0.0,-1.9017,-1.9087,-1.9137,0.0,0.0,0.0,0.0,0.0,0.0,0.0,0.0,0.0,0.0,0.0,0.0,0.0,0.0,0.0,0.0,0.0,0.0,0.0,0.0,0.0,0.0,0.0,0.0,0.0,0.0,0.0,-3.4576,-3.5223,-3.6762,-3.722,-3.7423,-3.8122,-3.6555,-3.4783,0.0,0.0,0.0,-2.9457,-2.9502,-3.0062,-3.111,-3.0921,-3.0649,-3.0884,0.0,-3.1293,0.0,0.0,0.0,0.0,0.0,0.0,0.0,0.0,0.0,0.0,0.0,0.0,0.0,-4.4276,-4.4073,-4.3979,-4.4594,-4.5003,-4.5166,-4.6456,-4.7254,-4.7511,-4.8384,-4.8809,-4.8844,-4.9001,-4.9043,-4.909,0.0,0.0,0.0,-4.9266,-4.9389,-4.966,-4.9631,-5.0135,-5.0804,-5.058,-5.1026,-5.1714,0.0,0.0,0.0,0.0,0.0,0.0,-1.3573,-1.354,-1.3617,-1.3963,-1.4745,-1.4988,-1.4207,-1.5666,-1.6352,-1.55,-1.6229,0.0,0.0,0.0,0.0,0.0,0.0,0.0,0.0,0.0,-1.9235,-1.9301,-1.9301,-1.9314,-1.9289,-1.9314,0.0,0.0,0.0,0.0,0.0,0.0,0.0,0.0,0.0,0.0,0.0,0.0,0.0,0.0,0.0,0.0,0.0,0.0,0.0,0.0,0.0,0.0,0.0,0.0,-3.2446,-3.3866,-3.5478,-3.679,-3.7703,-3.781,-3.6538,-3.5142,0.0,0.0,0.0,-3.1029,-3.0386,-3.0305,-3.1983,-3.2236,-3.1898,-3.1018,-3.0948,0.0,0.0,0.0,0.0,0.0,0.0,0.0,0.0,0.0,0.0,0.0,0.0,0.0,0.0,-4.3929,-4.4011,-4.4184,-4.4274,-4.4647,-4.5289,-4.6099,-4.6836,-4.7511,-4.8401,-4.8862,-4.9002,-4.8927,-4.9137,0.0,0.0,0.0,0.0,-4.9888,-5.02,-5.0549,-5.1134,-5.1881,-5.2475,-5.1676,-5.1899,-5.2475,0.0,0.0,0.0,0.0,0.0,0.0,0.0,-1.3856,-1.3924,-1.4172,-1.4454,-1.4733,-1.5013,-1.5601,-1.606,-1.6323,-1.6609,0.0,0.0,0.0,0.0,0.0,0.0,0.0,0.0,-1.8477,-1.8812,-1.936,-1.9408,-1.9438,-1.9435,-1.9438,-1.9435,0.0,0.0,0.0,0.0,0.0,0.0,0.0,0.0,0.0,0.0,0.0,0.0,0.0,0.0,0.0,0.0,0.0,0.0,0.0,0.0,0.0,0.0,-2.9572,0.0,0.0,-3.3879,-3.4474,-3.4749,-3.5274,-3.4199,-3.2947,-3.2799,0.0,0.0,-2.9463,-2.9616,-2.9961,-3.0495,-3.0577,-3.0432,-3.0071,-2.9575,0.0,0.0,0.0,0.0,0.0,0.0,0.0,0.0,0.0,0.0,0.0,0.0,0.0,0.0,-4.3749,-4.4011,-4.4184,-4.4314,-4.4485,-4.467,-4.5916,-4.6703,-4.6978,-4.8231,-4.8953,-4.9092,-4.9071,0.0,0.0,0.0,0.0,0.0,-5.0081,-5.0407,-5.0736,-5.1223,-5.1881,-5.2568,-5.2308,-5.2735,-5.3385,0.0,0.0,0.0,0.0,0.0,0.0,0.0,-1.4113,-1.4178,-1.4344,-1.4404,-1.4599,-1.5067,-1.5172,-1.5416,-1.5895,-1.5953,0.0,0.0,0.0,0.0,0.0,0.0,0.0,-1.8133,-1.818,-1.8628,-1.9493,-1.9493,-1.9508,-1.9555,-1.9555,-1.9536,-1.9546,-1.9489,-1.9738,0.0,0.0,0.0,0.0,0.0,0.0,-2.4284,0.0,0.0,0.0,0.0,0.0,0.0,0.0,0.0,0.0,0.0,0.0,0.0,0.0,-2.9807,0.0,0.0,-3.3168,-3.3582,-3.4073,-3.2933,0.0,0.0,0.0,0.0,0.0,0.0,0.0,-3.0188,-3.0188,-3.0017,-2.9656,0.0,0.0,0.0,0.0,0.0,0.0,0.0,0.0,0.0,0.0,0.0,0.0,0.0,0.0,0.0,-4.3597,-4.3897,-4.4073,-4.4285,-4.4475,-4.4744,-4.5991,-4.6775,-4.7099,-4.8333,-4.8952,-4.9111,-4.9145,0.0,0.0,0.0,0.0,0.0,-5.1087,-5.1376,-5.1726,-5.2172,-5.2698,-5.3144,-5.3144,-5.3461,-5.3851,0.0,0.0,0.0,0.0,0.0,0.0,0.0,-1.4326,-1.4373,-1.4501,-1.4574,-1.4592,-1.4522,-1.456,-1.4589,-1.4524,0.0,0.0,0.0,0.0,0.0,0.0,0.0,0.0,-1.8024,-1.8093,-1.8573,-1.9521,-1.9509,-1.9527,-1.9614,-1.9614,-1.9614,-1.9614,-1.9614,-1.9643,-1.9801,-2.1266,-2.238,-2.3212,-2.4061,-2.4412,0.0,0.0,0.0,0.0,0.0,0.0,0.0,0.0,0.0,0.0,0.0,0.0,0.0,0.0,0.0,0.0,0.0,0.0,0.0,0.0,0.0,0.0,0.0,0.0,0.0,0.0,0.0,0.0,0.0,0.0,0.0,0.0,0.0,0.0,0.0,0.0,0.0,0.0,0.0,0.0,0.0,0.0,0.0,0.0,0.0,0.0,0.0,-4.3477,-4.3697,-4.3883,-4.4147,-4.4599,-4.5307,-4.6221,-4.6993,-4.7635,-4.849,-4.8946,-4.9052,-4.9075,0.0,0.0,0.0,0.0,0.0,-5.2473,-5.2688,-5.3005,-5.3644,-5.3907,-5.3907,-5.3982,-5.3982,-5.3982,0.0,0.0,0.0,0.0,0.0,0.0,0.0,0.0,0.0,0.0,-1.4746,-1.4746,-1.4726,-1.4645,-1.4606,0.0,0.0,0.0,0.0,0.0,0.0,0.0,0.0,0.0,-1.6414,-1.7046,-1.7782,-1.869,-1.9285,-1.9614,-1.9673,-1.9673,-1.9681,-1.9688,-1.9668,-2.0028,-2.0667,-2.1626,-2.2558,-2.3414,-2.4232,-2.4549,0.0,0.0,0.0,0.0,-2.4284,-2.4192,0.0,0.0,0.0,0.0,0.0,0.0,0.0,0.0,-2.924,-2.9376,-2.9829,0.0,-3.0431,-3.0277,-3.0438,-3.0423,0.0,0.0,0.0,0.0,0.0,0.0,0.0,0.0,0.0,0.0,0.0,0.0,0.0,0.0,0.0,0.0,0.0,0.0,0.0,0.0,0.0,0.0,0.0,0.0,0.0,-4.3513,-4.3667,-4.3837,-4.3992,-4.4426,-4.5226,-4.6147,-4.6763,-4.7043,-4.8397,-4.8897,-4.857,-4.9038,0.0,0.0,0.0,0.0,-5.1319,-5.1261,-5.1211,-5.1335,-5.2632,-5.305,-5.3014,-5.3721,-5.3944,-5.3851,0.0,0.0,0.0,0.0,0.0,0.0,0.0,0.0,0.0,0.0,0.0,-1.4841,-1.4794,-1.4765,0.0,0.0,0.0,0.0,0.0,0.0,0.0,0.0,0.0,-1.5117,-1.5932,-1.6727,-1.7578,-1.8453,-1.9244,-1.9655,-1.9694,-1.9725,-1.9719,-1.9695,-1.9707,-1.9969,-2.0474,-2.161,-2.2361,-2.2902,-2.4113,0.0,0.0,0.0,0.0,0.0,-2.4393,-2.4284,0.0,-2.4705,-2.5051,-2.5544,0.0,0.0,0.0,0.0,-2.9262,-2.9323,-2.9386,-2.9407,-2.9365,-2.9218,-2.9484,-2.9596,-2.902,0.0,0.0,0.0,0.0,0.0,0.0,0.0,0.0,0.0,0.0,0.0,0.0,0.0,0.0,0.0,0.0,0.0,0.0,0.0,0.0,0.0,0.0,0.0,0.0,-4.3398,-4.3767,-4.3804,-4.3929,-4.4549,-4.5686,-4.6331,-4.7015,-4.7772,-4.8715,-4.9028,-4.8813,-4.9159,-5.004,0.0,0.0,0.0,-5.2001,-5.1567,-5.1306,-5.1251,-5.2495,-5.2877,-5.2899,-5.3793,-5.4092,-5.4019,0.0,0.0,0.0,0.0,0.0,0.0,0.0,0.0,0.0,0.0,0.0,0.0,0.0,0.0,0.0,0.0,0.0,0.0,0.0,0.0,0.0,0.0,-1.4774,-1.5112,-1.5797,-1.6605,-1.7457,-1.8335,-1.9239,-1.9707,-1.9738,-1.992,-1.9901,-1.9738,-1.9738,-1.9757,-1.9901,-2.1466,-2.2129,-2.2279,-2.3958,0.0,0.0,0.0,0.0,0.0,0.0,0.0,0.0,-2.4247,-2.4722,-2.5491,-2.642,0.0,0.0,0.0,0.0,0.0,-2.9365,-2.9553,-2.9681,-2.9336,-2.913,-2.8975,-2.9021,0.0,0.0,0.0,0.0,0.0,0.0,0.0,0.0,0.0,0.0,0.0,0.0,0.0,0.0,0.0,0.0,0.0,0.0,0.0,0.0,0.0,0.0,0.0,0.0,-4.3356,-4.3929,-4.3851,-4.4103,-4.4915,-4.6353,-4.6564,-4.7367,-4.8788,-4.9098,-4.9226,-4.9219,-4.9322,-5.0228,-5.1701,0.0,0.0,-5.2771,-5.2046,-5.1688,-5.1705,-5.2492,-5.2885,-5.3075,-5.3971,-5.4179,-5.4013,0.0,0.0,0.0,0.0,0.0,0.0,0.0,0.0,0.0,0.0,0.0,0.0,0.0,0.0,0.0,0.0,0.0,0.0,0.0,0.0,0.0,-1.4803,-1.4785,-1.485,-1.4982,-1.5756,-1.6648,-1.7579,-1.8995,-1.977,-1.9892,-2.059,-2.0534,-1.9873,-1.9873,-1.983,-1.99,-2.1561,-2.2281,-2.2422,-2.4084,0.0,0.0,0.0,0.0,0.0,0.0,0.0,0.0,-2.4303,-2.4819,-2.561,-2.6443,0.0,0.0,0.0,0.0,0.0,-2.9323,-3.0302,-3.0979,-2.9421,-2.8998,-2.8881,-2.8767,0.0,0.0,0.0,0.0,0.0,0.0,0.0,0.0,0.0,0.0,0.0,0.0,0.0,0.0,0.0,0.0,0.0,0.0,0.0,0.0,0.0,0.0,0.0,0.0,-4.3602,-4.4151,-4.4151,-4.486,-4.573,-4.6632,-4.6624,-4.7169,-4.8319,-4.9017,-4.9164,-4.8796,-4.9313,-5.0105,-5.1013,0.0,-5.0438,-5.1136,-5.0438,-5.0395,-5.0862,-5.1715,-5.2432,-5.3024,-5.3955,-5.3716,-5.2844,0.0,0.0,0.0,0.0,0.0,0.0,0.0,0.0,0.0,0.0,0.0,0.0,0.0,0.0,0.0,0.0,0.0,0.0,0.0,0.0,-1.4794,-1.4804,-1.4823,-1.5067,-1.5489,-1.6334,-1.7171,-1.8052,-1.9235,-1.9842,-1.9908,-2.0323,-2.0308,-1.9945,-1.9919,-2.0134,-2.0644,-2.1834,-2.2599,-2.3107,0.0,0.0,0.0,0.0,0.0,0.0,0.0,0.0,0.0,0.0,-2.4838,-2.5648,-2.6502,0.0,0.0,0.0,0.0,0.0,-2.8614,-2.9396,-3.0249,-3.0241,-3.0863,-3.1399,-3.1319,0.0,0.0,0.0,0.0,0.0,0.0,0.0,0.0,0.0,0.0,0.0,0.0,0.0,0.0,0.0,0.0,0.0,0.0,0.0,0.0,0.0,0.0,0.0,0.0,0.0,-4.4561,-4.4934,-4.5386,-4.6202,-4.744,-4.7454,-4.7928,-4.8846,-4.9329,-4.9485,-4.9296,-4.9493,-5.0086,-5.0862,0.0,-5.0164,-5.0679,-5.0061,-4.9879,-5.0084,-5.0935,-5.1448,-5.1813,-5.2623,-5.2576,-5.1989,0.0,0.0,0.0,0.0,0.0,0.0,0.0,0.0,0.0,0.0,0.0,0.0,0.0,0.0,0.0,0.0,0.0,0.0,0.0,-1.4832,-1.4794,-1.4794,-1.485,-1.5198,-1.581,-1.6658,-1.7526,-1.834,-1.9409,-2.0025,-2.0229,-2.008,-2.0007,-2.0009,-1.9955,-2.0399,-2.1251,-2.2061,-2.2846,-2.3658,0.0,0.0,0.0,0.0,0.0,0.0,0.0,0.0,0.0,0.0,0.0,0.0,0.0,0.0,0.0,-2.752,-2.7764,-2.7786,-2.7682,-2.846,-2.9538,-3.0691,-3.1727,0.0,0.0,0.0,0.0,0.0,0.0,0.0,0.0,0.0,0.0,0.0,0.0,0.0,0.0,0.0,0.0,0.0,0.0,0.0,0.0,0.0,0.0,0.0,0.0,0.0,0.0,0.0,-4.4982,-4.5688,-4.5933,-4.6732,-4.8144,-4.8415,-4.8867,-4.948,-4.9625,-4.9769,-4.9822,-4.9683,-4.9992,-5.0598,-5.0004,-4.9992,-5.0385,-4.9927,-4.9736,-4.9847,-5.0447,-5.0804,-5.0997,-5.133,-5.1345,-5.1188,0.0,0.0,0.0,0.0,0.0,0.0,0.0,0.0,0.0,0.0,0.0,0.0,0.0,0.0,0.0,0.0,0.0,0.0,0.0,-1.4794,-1.4794,-1.4794,-1.4869,-1.4934,-1.499,-1.5837,-1.6706,-1.7577,-1.9209,-2.0408,-2.1173,-2.0382,-2.003,-2.0078,-2.002,-2.0435,-2.1251,-2.2054,-2.286,-2.3658,-2.4473,0.0,0.0,0.0,0.0,0.0,0.0,0.0,0.0,0.0,0.0,0.0,0.0,0.0,-2.5742,-2.6571,-2.6831,-2.687,-2.673,-2.8315,-3.0015,-3.001,-2.9497,0.0,-3.2894,-3.2346,0.0,-3.3195,0.0,0.0,0.0,0.0,0.0,0.0,0.0,0.0,0.0,0.0,0.0,0.0,0.0,0.0,0.0,0.0,0.0,0.0,0.0,0.0,0.0,0.0,0.0,-4.6036,-4.673,-4.7486,-4.8276,-4.9152,-4.9598,-4.9681,-4.9778,-4.9816,-4.9879,-4.9759,-4.973,-4.9787,-4.96,-4.9527,-4.9584,-4.9558,-4.9953,-5.0616,-5.0673,-5.1129,-5.1611,-5.0781,-5.0452,-5.0256,0.0,0.0,0.0,0.0,0.0,0.0,0.0,0.0,0.0,0.0,0.0,0.0,0.0,0.0,0.0,0.0,0.0,0.0,0.0,-1.4823,-1.4823,-1.486,-1.5413,-1.5713,-1.5722,-1.6563,-1.7672,-1.9049,-1.9726,-2.0241,-2.0614,-2.0288,-2.0135,-2.0184,-2.0632,-2.1287,-2.2121,-2.2886,-2.3701,-2.4482,-2.4757,-2.4846,0.0,0.0,0.0,0.0,0.0,0.0,0.0,0.0,-2.4429,-2.4505,-2.5301,-2.5171,-2.4855,-2.5663,-2.5941,-2.5961,-2.5823,-2.7907,-3.0094,-3.0088,-3.009,0.0,0.0,-3.431,-3.3677,-3.3506,-3.4243,0.0,0.0,0.0,0.0,0.0,0.0,0.0,0.0,0.0,0.0,0.0,0.0,0.0,0.0,0.0,0.0,0.0,0.0,0.0,0.0,0.0,0.0,-4.6127,-4.6391,-4.6906,-4.7718,-4.857,-4.9013,-4.9002,-4.9578,-4.9871,-4.9898,-4.9759,-4.9721,-4.975,-4.9623,-4.9563,-4.9563,-4.9563,-4.972,-4.9959,-4.9859,-4.9963,-5.016,-4.9762,-4.953,-4.9371,0.0,0.0,0.0,0.0,0.0,0.0,0.0,0.0,0.0,0.0,0.0,0.0,0.0,0.0,0.0,0.0,0.0,0.0,-1.493,-1.4859,-1.485,-1.4895,-1.575,-1.6362,-1.6645,-1.7508,-1.8497,-1.965,-1.9973,-2.0171,-2.0235,-2.0205,-2.0188,-2.022,-2.0947,-2.1744,-2.2631,-2.336,-2.4174,-2.4977,-2.4903,-2.4827,0.0,0.0,0.0,0.0,0.0,0.0,0.0,0.0,-2.4428,-2.4468,-2.4986,-2.4727,-2.4301,-2.4832,-2.5344,-2.5709,-2.5667,-2.7556,-2.9696,-3.0257,0.0,0.0,-3.5102,-3.5191,-3.4616,-3.4767,-3.5281,0.0,0.0,0.0,0.0,0.0,0.0,0.0,0.0,0.0,0.0,0.0,0.0,0.0,0.0,0.0,0.0,0.0,0.0,0.0,0.0,0.0,0.0,0.0,-4.6196,-4.6683,-4.7757,-4.8059,-4.8438,-4.8966,-4.9083,-4.9394,-4.9871,-4.9778,-4.975,-4.9807,-4.9663,-4.9593,-4.9593,-4.9563,-4.9551,-4.9509,-4.9358,-4.9276,-4.9197,-4.9116,-4.9015,-4.8909,0.0,0.0,0.0,0.0,0.0,0.0,0.0,0.0,0.0,0.0,0.0,0.0,0.0,0.0,0.0,0.0,0.0,0.0,-1.5006,-1.4947,-1.4911,-1.4911,-1.5809,-1.6715,-1.7581,-1.8453,-1.8909,-1.8922,-1.9775,-2.0227,-2.0304,-2.0227,-2.0195,-2.0227,-2.0889,-2.1692,-2.2555,-2.3283,-2.4152,-2.4996,-2.4856,-2.4794,-2.4794,0.0,0.0,0.0,0.0,0.0,0.0,0.0,-2.4411,-2.4284,-2.421,-2.4209,-2.419,-2.4113,-2.5087,-2.6195,-2.6344,-2.7369,-2.8801,0.0,0.0,0.0,-3.5163,-3.4312,-3.3838,-3.7365,0.0,-3.5706,0.0,0.0,0.0,0.0,0.0,0.0,0.0,0.0,0.0,0.0,0.0,0.0,0.0,0.0,0.0,0.0,0.0,0.0,0.0,0.0,0.0,0.0,-4.6344,-4.7044,-4.8541,-4.7712,-4.8105,-4.9636,-4.8188,-4.8308,-4.9807,-4.9788,-4.9788,-4.9807,-4.9663,-4.9593,-4.9593,-4.9521,-4.9509,-4.9509,-4.9358,-4.9244,-4.9197,-4.9116,-4.8996,-4.8909,0.0,0.0,0.0,0.0,0.0,0.0,0.0,0.0,0.0,0.0,0.0,0.0,0.0,0.0,0.0,0.0,0.0,0.0,-1.5068,-1.5014,-1.4971,-1.4976,-1.6358,-1.7286,-1.7587,-1.9049,-1.9849,-1.9887,-2.0088,-2.0227,-2.0304,-2.0277,-2.0254,-2.0233,-2.0947,-2.1744,-2.2623,-2.3309,-2.4101,-2.4917,-2.4823,-2.4798,-2.4802,0.0,0.0,0.0,0.0,0.0,0.0,0.0,0.0,0.0,-2.4247,-2.4134,-2.4054,-2.4054,-2.4262,-2.4523,-2.4544,-2.7351,0.0,0.0,0.0,0.0,0.0,-3.5177,0.0,0.0,0.0,0.0,0.0,0.0,0.0,0.0,0.0,0.0,0.0,0.0,0.0,0.0,0.0,0.0,0.0,0.0,0.0,0.0,0.0,0.0,0.0,0.0,0.0,0.0,-4.6116,-4.6268,-4.6055,-4.6906,-4.7238,-4.7108,-4.7886,-4.8802,-4.9788,-4.9299,-4.9383,-4.9871,-4.9721,-4.9663,-4.9663,-4.9551,-4.9509,-4.9459,-4.9295,-4.9211,-4.9179,-4.903,-4.8943,-4.8909,0.0,0.0,0.0,0.0,0.0,0.0,0.0,0.0,0.0,0.0,-1.5407,-1.5394,0.0,0.0,0.0,0.0,0.0,0.0,-1.6117,-1.6098,-1.6075,-1.6074,-1.7358,-1.8245,-1.8622,-1.9668,-2.0227,-2.0296,-2.0258,-2.0265,-2.0299,-2.0306,-2.0258,-2.0233,-2.0976,-2.1613,-2.2168,-2.2842,-2.3642,-2.4425,-2.4351,-2.4515,-2.4806,0.0,0.0,0.0,0.0,0.0,0.0,0.0,0.0,0.0,-2.4266,-2.4153,-2.4164,-2.4844,-2.4841,-2.4956,-2.6317,0.0,0.0,0.0,0.0,0.0,0.0,0.0,0.0,0.0,0.0,0.0,0.0,0.0,0.0,0.0,0.0,0.0,0.0,0.0,0.0,0.0,0.0,0.0,0.0,0.0,0.0,0.0,0.0,0.0,0.0,0.0,0.0,0.0,-4.5642,-4.5738,-4.5526,-4.6353,-4.6693,-4.6539,-4.7314,-4.8261,-4.9315,-4.9269,-4.9485,-4.9879,-4.9778,-4.9682,-4.9623,-4.9471,-4.9409,-4.9409,-4.9249,-4.9183,-4.9131,-4.8978,-4.8909,-4.8909,0.0,0.0,0.0,0.0,0.0,0.0,0.0,0.0,0.0,0.0,-1.5515,-1.5541,0.0,0.0,0.0,0.0,0.0,0.0,0.0,-1.7706,-1.7704,-1.7701,-1.849,-1.9317,-2.0178,-2.0203,-2.0242,-2.0294,-2.0295,-2.0295,-2.0294,-2.0295,-2.0304,-2.0314,-2.0919,-2.1299,-2.1528,-2.2059,-2.2842,-2.3682,-2.3628,-2.4096,-2.4821,-2.4889,0.0,0.0,0.0,0.0,0.0,0.0,0.0,0.0,-2.4266,-2.4209,-2.4406,-2.5915,-2.6164,-2.6637,-2.9805,0.0,0.0,0.0,0.0,0.0,0.0,0.0,0.0,0.0,0.0,0.0,0.0,0.0,0.0,0.0,0.0,0.0,0.0,0.0,0.0,0.0,0.0,0.0,0.0,0.0,0.0,0.0,0.0,0.0,0.0,0.0,0.0,-4.5201,-4.5144,-4.5456,-4.619,-4.6067,-4.6361,-4.7117,-4.6624,-4.7093,-4.8407,-4.9265,-4.9746,-4.9852,-4.975,-4.9566,-4.9396,-4.9321,-4.9214,-4.907,-4.9094,-4.9064,-4.899,-4.8925,-4.8909,-4.889,0.0,0.0,0.0,0.0,0.0,0.0,0.0,0.0,0.0,0.0,0.0,0.0,0.0,0.0,0.0,0.0,0.0,0.0,0.0,-1.7734,-1.7706,-1.7706,-1.8524,-1.935,-2.0184,-2.0257,-2.0281,-2.0292,-2.0294,-2.0301,-2.0294,-2.0306,-2.0548,-2.0965,-2.0556,-2.1029,-2.2147,-2.1654,-2.2324,-2.3701,-2.3669,-2.4166,-2.4889,-2.495,-2.4903,0.0,0.0,0.0,0.0,0.0,0.0,0.0,-2.4228,-2.4133,-2.4109,-2.4534,-2.5421,-2.6445,0.0,-2.9944,0.0,0.0,0.0,0.0,0.0,0.0,0.0,0.0,0.0,0.0,0.0,0.0,0.0,0.0,0.0,0.0,0.0,0.0,0.0,0.0,0.0,0.0,0.0,0.0,0.0,0.0,0.0,0.0,0.0,0.0,0.0,-4.5125,-4.5661,-4.5762,-4.5362,-4.584,-4.5944,0.0,-4.6692,-4.7005,-4.6746,-4.7606,-4.8655,-4.975,-4.9663,-4.9187,-4.8514,-4.9059,-4.849,-4.738,-4.8674,-4.8739,-4.817,-4.8807,-4.8946,-4.873,0.0,0.0,0.0,0.0,0.0,0.0,0.0,0.0,0.0,0.0,0.0,0.0,0.0,0.0,0.0,0.0,0.0,0.0,0.0,0.0,-1.8934,-1.8897,-1.9366,-1.9799,-2.0197,-2.0222,-2.0265,-2.0308,-2.0296,-2.0269,-2.02,-2.0634,-2.0765,-2.0669,-2.066,-2.0927,-2.1317,-2.0849,-2.1624,-2.312,-2.3082,-2.3807,-2.4898,-2.4931,-2.4917,-2.4842,-2.4798,0.0,0.0,0.0,0.0,0.0,0.0,0.0,-2.426,-2.5107,-2.5244,-2.5758,0.0,0.0,0.0,0.0,0.0,0.0,0.0,0.0,0.0,0.0,0.0,0.0,0.0,0.0,0.0,0.0,0.0,0.0,0.0,0.0,0.0,0.0,0.0,0.0,0.0,0.0,0.0,0.0,0.0,0.0,0.0,-4.4518,-4.4631,-4.4433,-4.4779,-4.4979,-4.4991,-4.5757,-4.602,-4.5745,-4.6472,-4.6531,-4.6055,-4.7416,-4.8378,-4.9031,-4.9031,-4.8679,-4.8134,-4.8047,-4.7447,-4.6725,-4.7588,-4.782,-4.775,-4.7858,-4.8051,-4.8136,0.0,0.0,0.0,0.0,0.0,0.0,0.0,0.0,0.0,0.0,0.0,0.0,0.0,0.0,0.0,0.0,0.0,0.0,0.0,0.0,0.0,-2.0192,-2.0257,-2.0252,-2.0201,-2.0197,-2.023,-2.0285,-2.0285,-2.0205,-2.0079,-2.0967,-2.1053,-2.0496,-2.117,-2.1136,-2.0575,-2.0508,-2.1352,-2.2721,-2.266,-2.3555,-2.4912,-2.4931,-2.4898,-2.487,-2.4821,-2.4679,-2.4512,-2.4481,0.0,0.0,0.0,0.0,-2.4522,-2.6051,-2.5562,-2.5557,0.0,0.0,0.0,0.0,0.0,0.0,0.0,0.0,0.0,0.0,0.0,0.0,0.0,0.0,0.0,0.0,0.0,0.0,0.0,0.0,0.0,0.0,0.0,0.0,0.0,0.0,0.0,0.0,0.0,0.0,-4.3938,-4.4097,-4.4052,-4.3701,-4.3756,-4.4153,-4.4933,-4.5637,-4.6102,-4.6335,-4.6385,-4.6346,-4.6308,-4.7861,-4.84,-4.8106,-4.8267,-4.8085,-4.7592,-4.6893,-4.6406,-4.6201,-4.6597,-4.7066,-4.7456,-4.7015,-4.7159,-4.7488,0.0,0.0,0.0,0.0,0.0,0.0,0.0,0.0,0.0,0.0,-1.9121,-1.9393,0.0,0.0,0.0,0.0,0.0,0.0,0.0,0.0,0.0,-2.0192,-2.0214,-2.0216,-2.0208,-2.019,-2.0208,-2.0211,-2.0214,-2.0107,-1.9939,-2.087,-2.154,-2.194,-2.2098,-2.2143,-2.2111,-2.2041,-2.2671,-2.3698,-2.3581,-2.4107,-2.4999,-2.4991,-2.4917,-2.4794,-2.4745,-2.4666,-2.4582,-2.4446,-2.4412,0.0,0.0,0.0,0.0,-2.539,-2.6495,-2.7582,0.0,0.0,0.0,0.0,0.0,0.0,0.0,0.0,0.0,0.0,0.0,0.0,0.0,0.0,0.0,0.0,0.0,0.0,0.0,0.0,0.0,0.0,0.0,0.0,0.0,0.0,0.0,0.0,0.0,0.0,-4.3022,-4.4285,-4.4641,-4.374,-4.4291,-4.478,-4.5066,-4.5125,-4.5621,-4.6567,-4.6966,-4.7464,-4.806,-4.8315,-4.8004,-4.7278,-4.7894,-4.7267,-4.5884,-4.6376,-4.5672,-4.4498,-4.688,-4.7378,-4.6829,-4.7559,-4.7742,-4.7478,0.0,0.0,0.0,0.0,0.0,0.0,0.0,0.0,0.0,0.0,0.0,-2.0155,0.0,0.0,0.0,0.0,0.0,0.0,0.0,0.0,0.0,-2.0195,-2.0208,-2.0153,-2.0098,-2.0127,-2.0145,-2.0143,-2.019,-2.0356,-2.0649,-2.1548,-2.182,-2.1572,-2.2487,-2.2739,-2.2457,-2.2286,-2.2874,-2.3881,-2.3676,-2.4771,-2.6384,-2.53,-2.5508,-2.6214,-2.5111,-2.4682,-2.4634,-2.45,-2.4762,-2.5041,-2.4487,0.0,0.0,0.0,0.0,0.0,0.0,0.0,0.0,0.0,0.0,0.0,0.0,0.0,0.0,0.0,0.0,0.0,0.0,0.0,0.0,0.0,0.0,0.0,0.0,0.0,0.0,0.0,0.0,0.0,0.0,0.0,0.0,0.0,0.0,-4.4533,-4.3522,-4.4116,-4.4227,-4.3719,-4.402,-4.4442,-4.4971,-4.5,-4.5224,-4.5643,-4.6752,-4.7227,-4.7089,-4.7938,-4.7861,-4.707,-4.7398,-4.6765,-4.548,-4.5246,-4.4705,-4.4222,-4.591,-4.6283,-4.5972,-4.6421,-4.6456,-4.6075,0.0,0.0,0.0,0.0,0.0,0.0,0.0,0.0,0.0,0.0,0.0,0.0,0.0,0.0,0.0,0.0,0.0,0.0,0.0,0.0,0.0,-2.018,-2.0164,-2.0127,-1.9991,-2.0049,-2.0079,-2.0088,-2.0155,-2.0423,-2.094,-2.1802,-2.1883,-2.1424,-2.2978,-2.3295,-2.2729,-2.2755,-2.3323,-2.4231,-2.4403,-2.5749,-2.7561,-2.6527,-2.6992,-2.7946,-2.6057,-2.5349,-2.5276,-2.4731,-2.4925,-2.528,-2.4596,0.0,0.0,0.0,0.0,0.0,0.0,0.0,0.0,0.0,0.0,0.0,0.0,0.0,0.0,0.0,0.0,0.0,0.0,0.0,0.0,0.0,0.0,0.0,0.0,0.0,0.0,0.0,0.0,0.0,0.0,0.0,0.0,0.0,0.0,-4.4803,-4.4039,-4.4135,-4.4076,-4.3767,-4.3923,-4.4321,-4.4895,-4.5147,-4.5242,-4.5192,-4.6871,-4.7311,-4.6701,-4.7834,-4.7861,-4.6993,-4.7003,-4.6266,-4.5084,-4.455,-4.4402,-4.4612,-4.568,-4.5942,-4.5755,-4.5817,-4.5593,-4.5106,0.0,0.0,0.0,0.0,0.0,0.0,0.0,0.0,0.0,0.0,0.0,0.0,-2.0605,-2.0603,-2.0575,-2.0519,-2.0497,-2.0472,-2.0411,-2.0337,-2.0233,-2.0098,-2.0108,0.0,-1.9998,-1.9991,-2.005,-2.0088,-2.0098,-2.0127,-2.0184,-2.0984,-2.1711,-2.2394,-2.3737,-2.3969,-2.3397,-2.4033,-2.4567,-2.5165,-2.6548,-2.7312,-2.7766,-2.9186,-2.9794,-2.9642,-2.7821,-2.717,-2.6924,-2.5255,-2.4617,0.0,0.0,0.0,0.0,0.0,0.0,0.0,0.0,0.0,0.0,0.0,0.0,0.0,0.0,0.0,0.0,0.0,0.0,0.0,0.0,0.0,0.0,0.0,0.0,0.0,0.0,0.0,0.0,0.0,0.0,0.0,0.0,0.0,0.0,0.0,0.0,-4.4134,-4.402,-4.4707,-4.4741,-4.3935,-4.4554,-4.4914,-4.4895,-4.566,-4.6006,-4.5949,-4.7768,-4.8583,-4.8483,-4.8483,-4.7938,-4.6974,-4.6787,-4.5718,-4.4147,-4.4972,-4.5307,-4.5411,-4.7249,-4.7442,-4.6651,-4.6787,-4.627,-4.545,0.0,0.0,0.0,0.0,0.0,0.0,0.0,0.0,0.0,0.0,0.0,0.0,0.0,-2.0604,-2.0576,-2.0519,-2.0456,-2.0402,-2.0334,-2.0265,-2.0197,-2.0108,-2.0098,-2.0077,-2.0004,-2.0,-2.0011,-2.005,-2.0116,-2.0144,-2.0127,-2.0919,-2.1409,-2.1625,-2.3053,-2.393,-2.4356,-2.4331,-2.4626,-2.5228,-2.6719,-2.8126,-2.9264,-2.8636,-2.9808,0.0,0.0,0.0,0.0,0.0,0.0,0.0,0.0,0.0,0.0,0.0,0.0,0.0,0.0,0.0,0.0,0.0,0.0,0.0,0.0,0.0,0.0,0.0,0.0,0.0,0.0,0.0,0.0,0.0,0.0,0.0,0.0,0.0,0.0,0.0,0.0,0.0,0.0,0.0,0.0,0.0,0.0,0.0,-4.3309,-4.4034,-4.4262,-4.3897,-4.4634,-4.4921,-4.477,-4.5014,-4.5172,-4.5325,-4.6525,-4.7119,-4.7138,-4.7526,-4.7164,-4.6167,-4.6031,-4.5305,-4.4251,-4.5059,-4.5457,-4.5611,-4.6744,-4.67,-4.6001,-4.6008,-4.5455,-4.4789,0.0,0.0,0.0,0.0,0.0,0.0,0.0,0.0,0.0,-2.0525,0.0,0.0,0.0,0.0,-2.058,-2.0516,-2.0434,-2.0372,-2.0308,-2.025,-2.0152,-2.0069,-2.0059,-2.0038,-1.9971,-1.9998,-1.9991,-2.0001,-2.0117,-2.0164,-2.0145,-2.068,-2.1042,-2.1265,-2.2192,-2.3107,-2.4015,-2.4048,-2.4302,-2.486,-2.7237,-2.8684,-2.9379,-2.927,0.0,0.0,0.0,0.0,0.0,0.0,0.0,0.0,0.0,0.0,0.0,0.0,0.0,0.0,-2.8084,0.0,0.0,0.0,0.0,0.0,0.0,0.0,0.0,0.0,0.0,0.0,0.0,0.0,0.0,0.0,0.0,0.0,0.0,0.0,0.0,0.0,0.0,0.0,0.0,0.0,0.0,0.0,0.0,0.0,-4.2902,-4.3326,-4.367,-4.383,-4.4545,-4.4827,-4.4605,-4.4578,-4.4632,-4.4745,-4.5761,-4.6228,-4.6222,-4.672,-4.6466,-4.5679,-4.533,-4.4998,-4.4741,-4.5562,-4.6127,-4.6518,-4.7311,-4.6986,-4.6031,-4.6001,-4.5279,-4.4493,0.0,0.0,0.0,0.0,0.0,0.0,0.0,0.0,-2.0521,-2.0586,0.0,0.0,0.0,0.0,0.0,-2.0511,-2.0443,-2.0377,-2.0308,-2.0235,-2.0153,-2.0011,-2.0001,-1.996,-1.99,-1.9966,-2.0,-2.0001,-2.0059,-2.0136,-2.0192,-2.0192,-2.0659,-2.1442,-2.1251,-2.1536,-2.2211,-2.3183,-2.3689,-2.4205,0.0,-2.9079,-2.8038,0.0,0.0,0.0,-3.148,-3.192,0.0,-3.252,0.0,0.0,0.0,0.0,0.0,0.0,0.0,0.0,0.0,0.0,0.0,0.0,0.0,0.0,0.0,0.0,0.0,0.0,0.0,0.0,0.0,0.0,0.0,0.0,0.0,0.0,0.0,0.0,0.0,0.0,0.0,0.0,0.0,0.0,0.0,0.0,0.0,-4.363,-4.2789,-4.2776,-4.3079,-4.3668,-4.4429,-4.4667,-4.4411,-4.4487,-4.4487,-4.443,-4.5672,-4.6165,-4.5984,-4.6114,-4.5972,-4.5622,-4.4777,-4.4811,-4.5519,-4.6494,-4.7342,-4.814,-4.9084,-4.8396,-4.6855,-4.6945,-4.5865,-4.4607,0.0,0.0,0.0,0.0,0.0,0.0,-2.0503,-2.0492,-2.0521,0.0,0.0,0.0,-2.0599,-2.0566,-2.0515,-2.0509,-2.0386,-2.0315,-2.0306,-2.0186,-2.0088,-2.0011,-2.0001,-1.9981,-1.9977,-1.999,-2.0001,-2.0001,-2.006,-2.0136,-2.0192,-2.0192,-2.0324,-2.0561,-2.0506,-2.0575,-2.0881,-2.2791,0.0,-2.5041,-2.8525,-2.9745,0.0,0.0,0.0,0.0,0.0,-3.4432,-3.3764,0.0,-3.309,-3.0149,0.0,0.0,-2.6965,0.0,0.0,-2.6349,-2.6933,0.0,0.0,0.0,0.0,0.0,0.0,0.0,0.0,0.0,0.0,0.0,0.0,0.0,0.0,0.0,0.0,0.0,0.0,0.0,0.0,0.0,0.0,0.0,0.0,0.0,0.0,0.0,-4.1759,-4.1876,-4.1108,-4.216,-4.3056,-4.3606,-4.4336,-4.4659,-4.4468,-4.444,-4.4524,-4.4693,-4.5092,-4.528,-4.528,-4.5205,-4.5078,-4.4898,-4.4645,-4.5303,-4.6566,-4.6799,-4.6757,-4.6695,-4.7977,-4.7507,-4.6083,-4.6015,-4.534,-4.4712,0.0,0.0,0.0,0.0,0.0,-2.0503,-2.0503,-2.0492,-2.0519,0.0,0.0,0.0,-2.0601,-2.0859,-2.0905,-2.0528,-2.0391,-2.0321,-2.0299,-2.0197,-2.0108,-2.0011,-1.9991,-1.999,-1.9996,-1.9998,-1.999,-2.001,-2.005,-2.0098,-2.0155,-2.0155,-2.0173,-2.0199,-2.0205,-2.043,-2.0877,-2.2161,0.0,0.0,-2.8444,0.0,0.0,-3.284,-3.4642,0.0,0.0,0.0,-3.5835,-3.7394,-3.5039,0.0,0.0,0.0,0.0,0.0,0.0,-2.5611,-2.6384,-2.5621,-2.4578,0.0,0.0,0.0,0.0,-2.9471,0.0,0.0,0.0,0.0,0.0,0.0,0.0,0.0,0.0,0.0,0.0,0.0,0.0,0.0,0.0,0.0,0.0,0.0,0.0,-4.0323,-4.1036,-4.1318,-4.0927,-4.1742,-4.265,-4.3606,-4.397,-4.4275,-4.4515,-4.4458,-4.4524,-4.4685,-4.4796,-4.487,-4.487,-4.4821,-4.4764,-4.4704,-4.5063,-4.5787,-4.6711,-4.7014,-4.7071,-4.7042,-4.7502,-4.6909,-4.581,-4.5669,-4.5152,-4.4702,0.0,0.0,0.0,-2.0519,-2.0492,-2.0503,-2.05,-2.0509,-2.0494,0.0,-2.056,-2.0633,-2.0721,-2.1289,-2.134,-2.057,-2.0424,-2.0365,-2.0294,-2.0301,-2.0222,-2.0001,-2.0085,-2.0101,-1.9993,-1.9993,-1.9996,-1.9998,-2.001,-2.003,-2.0088,-2.0098,-2.0126,-2.0183,-2.0199,-2.0661,-2.1463,0.0,0.0,-2.3311,-2.7977,-2.9583,0.0,0.0,-3.4361,-3.4885,-3.6393,-3.7335,-3.801,-3.9241,-3.7224,0.0,0.0,0.0,0.0,0.0,-2.6291,-2.5295,-2.5662,-2.5192,-2.4557,0.0,0.0,0.0,-2.8397,-2.9269,-3.0248,0.0,0.0,0.0,0.0,0.0,0.0,0.0,0.0,0.0,0.0,0.0,0.0,0.0,0.0,0.0,0.0,-4.0745,-4.0874,-4.0228,-4.092,-4.1396,-4.1456,-4.151,-4.2148,-4.3512,-4.3536,-4.386,-4.4496,-4.4515,-4.4496,-4.4524,-4.4712,-4.477,-4.4719,-4.477,-4.4815,-4.4878,-4.5748,-4.6241,-4.6491,-4.7144,-4.7723,-4.8117,-4.7382,-4.6506,-4.5678,-4.5688,-4.5247,-4.474,0.0,0.0,-2.0514,-2.0497,-2.0509,-2.05,-2.0503,-2.0506,-2.0511,-2.0562,-2.0591,-2.0873,-2.1579,-2.1113,-2.0693,-2.0516,-2.0386,-2.0302,-2.0292,-2.0786,-2.0771,-2.0028,-2.0663,-2.0728,-2.0031,-1.9998,-2.0,-1.9998,-2.0039,-2.0059,-2.0011,-2.0069,-2.0098,-2.0127,-2.0182,-2.0337,-2.0635,0.0,0.0,-2.4908,-2.6519,0.0,-3.1282,-3.4002,-3.6381,-3.8416,-3.9362,-3.8958,-3.7771,0.0,-3.6476,-3.6157,0.0,0.0,0.0,0.0,0.0,0.0,0.0,0.0,0.0,0.0,0.0,0.0,-2.4572,-2.5838,-2.7088,0.0,0.0,0.0,0.0,0.0,0.0,0.0,0.0,0.0,0.0,0.0,0.0,0.0,0.0,0.0,0.0,-3.9993,-4.0083,-4.0046,-4.0349,-4.0571,-4.0632,-4.1738,-4.2439,-4.2564,-4.3794,-4.4489,-4.4578,-4.4578,-4.4605,-4.4659,-4.4764,-4.4821,-4.4846,-4.487,-4.4895,-4.5,-4.5897,-4.6638,-4.7289,-4.7416,-4.7188,-4.674,-4.7068,-4.625,-4.4987,-4.551,-4.5604,-4.5491,0.0,-2.057,-2.054,-2.0511,-2.0503,-2.0497,-2.051,-2.0494,-2.0519,-2.0547,-2.0937,-2.1204,-2.1247,-2.158,-2.1626,-2.1196,-2.1338,-2.1486,-2.1536,-2.174,-2.1495,-2.0682,-2.1062,-2.0899,-2.0031,-1.9998,-1.999,-1.9998,-2.0068,-2.0059,-2.0001,-2.0079,-2.0556,-2.1359,-2.0563,-2.0933,0.0,0.0,-2.3423,-2.5514,-2.8065,0.0,-3.3789,-3.6353,-3.845,-4.0048,-4.0434,-3.9969,-3.9045,-3.8101,-3.6891,0.0,0.0,-3.2298,-3.0646,0.0,-2.7766,-2.7422,0.0,0.0,0.0,-2.3623,0.0,0.0,0.0,-2.6218,-2.6975,0.0,0.0,0.0,0.0,0.0,0.0,0.0,0.0,0.0,0.0,0.0,0.0,0.0,0.0,0.0,0.0,-3.8863,-3.9192,-3.9214,-3.9871,-4.0234,-4.0118,-4.0874,-4.1601,-4.2281,-4.3039,-4.3648,-4.4056,-4.4452,-4.4685,-4.4764,-4.4764,-4.4796,-4.4895,-4.4895,-4.4943,-4.5095,-4.6016,-4.6625,-4.7006,-4.7006,-4.6711,-4.6315,-4.6554,-4.5851,-4.4723,-4.503,-4.5125,-4.5153,-2.0598,-2.0593,-2.0566,-2.0506,-2.05,-2.0494,-2.0496,-2.0503,-2.0552,-2.0731,-2.1518,-2.1927,-2.1582,-2.2899,-2.35,-2.2808,-2.3219,-2.3381,-2.3022,-2.308,-2.271,-2.1802,-2.1635,-2.1225,-2.0527,-2.018,-2.0019,-2.0009,-2.0078,-2.0069,-2.0001,-2.0069,-2.0862,-2.2191,-2.1318,-2.1929,-2.3559,0.0,0.0,-2.6631,0.0,-3.3121,-3.4988,-3.745,-3.9148,-4.023,-4.0496,-4.0511,-4.0339,-3.9823,0.0,-3.4475,-3.4882,-3.2518,0.0,0.0,0.0,0.0,0.0,0.0,0.0,0.0,0.0,-2.4106,0.0,0.0,0.0,0.0,0.0,0.0,0.0,0.0,0.0,0.0,0.0,0.0,0.0,0.0,0.0,0.0,0.0,0.0,0.0,-3.7397,-3.8144,-3.8682,-3.9241,-3.9662,-3.9878,-4.0106,-4.0764,-4.2016,-4.2327,-4.2787,-4.3485,-4.4322,-4.4738,-4.477,-4.4738,-4.477,-4.4895,-4.4919,-4.4991,-4.5163,-4.6107,-4.6511,-4.6507,-4.6637,-4.6549,-4.6282,-4.5963,-4.5368,-4.4685,-4.4605,-4.4645,-4.4834,-2.0602,-2.0552,-2.0516,-2.0506,-2.0503,-2.05,-2.0497,-2.0506,-2.0772,-2.1544,-2.2413,-2.3457,-2.4796,-2.5757,-2.6242,-2.6146,-2.6576,0.0,-2.3909,0.0,-2.5007,-2.3487,-2.2802,-2.2416,-2.2315,-2.0842,-2.006,-2.0001,-2.0069,-2.0069,-2.0001,-2.0069,-2.0241,-2.0564,-2.2661,0.0,0.0,0.0,-2.7612,0.0,-3.2116,-3.2557,0.0,-3.4058,-3.624,-3.8513,-4.0053,-4.0554,-4.012,0.0,-3.6671,-3.5439,0.0,-3.1255,-3.2119,0.0,0.0,0.0,0.0,0.0,0.0,0.0,-2.312,0.0,0.0,0.0,0.0,0.0,0.0,0.0,0.0,0.0,0.0,0.0,0.0,0.0,0.0,0.0,0.0,0.0,0.0,0.0,0.0,0.0,-3.678,-3.9699,-3.8075,-3.7898,-4.0119,-4.0718,-4.1052,-4.1217,-4.2605,-4.3391,-4.3504,-4.4348,-4.4745,-4.4712,-4.4745,-4.4821,-4.4895,-4.5014,-4.5125,-4.5249,-4.6113,-4.6495,-4.6546,-4.7201,-4.702,-4.6225,-4.53,-4.4839,-4.4667,-4.457,-4.4965,-4.5585,-2.0604,-2.058,-2.0552,-2.0501,-2.0521,-2.054,-2.0511,-2.0494,-2.0814,-2.1681,-2.2121,-2.2773,-2.3922,0.0,0.0,0.0,0.0,-2.7018,0.0,0.0,-2.5362,-2.3712,-2.2525,-2.2111,-2.2536,-2.1433,-2.1062,-2.15,-2.1063,-2.0833,-2.0804,-2.0318,-2.0947,-2.2506,-2.3581,0.0,-2.6015,0.0,-2.8951,0.0,0.0,0.0,0.0,-3.5991,-3.7932,-3.8967,-4.0163,-4.0549,-4.0342,0.0,-3.6805,0.0,0.0,0.0,0.0,0.0,0.0,0.0,0.0,0.0,0.0,0.0,0.0,0.0,-2.5,0.0,-2.453,0.0,0.0,0.0,0.0,0.0,0.0,0.0,0.0,0.0,0.0,0.0,0.0,0.0,0.0,0.0,0.0,0.0,0.0,0.0,-3.7571,-3.7724,-3.857,-3.9852,-4.0737,-4.1089,-4.2667,-4.3511,-4.358,-4.4348,-4.4789,-4.4815,-4.4815,-4.4865,-4.4943,-4.5103,-4.517,-4.5211,-4.5681,-4.5791,-4.5719,-4.6039,-4.5893,-4.5431,-4.4972,-4.477,-4.4764,-4.4693,-4.4839,-4.5115,-2.0605,-2.0604,0.0,0.0,0.0,-2.0554,-2.0527,-2.0701,-2.1079,-2.1696,-2.2168,0.0,-2.3817,-2.5329,0.0,0.0,-2.8886,-2.9224,0.0,0.0,-2.6719,-2.5721,-2.337,0.0,0.0,-2.2459,-2.2017,-2.2579,-2.178,-2.1512,-2.1732,-2.0871,-2.1653,-2.3796,0.0,-2.614,-2.845,0.0,0.0,-3.1666,-3.2982,-3.381,-3.4601,-3.7861,-3.9232,-3.9515,-4.0318,-4.0429,-4.0046,-3.9279,-3.6668,0.0,-3.5564,0.0,0.0,0.0,0.0,0.0,-2.6489,0.0,0.0,0.0,0.0,0.0,0.0,0.0,0.0,0.0,0.0,0.0,0.0,0.0,0.0,-2.3857,0.0,0.0,0.0,0.0,0.0,0.0,0.0,0.0,0.0,0.0,0.0,-3.5984,-3.6627,-3.7282,-3.7897,-3.9367,-4.0368,-4.081,-4.2564,-4.3397,-4.3202,-4.4235,-4.4789,-4.487,-4.4846,-4.4914,-4.4991,-4.5148,-4.5213,-4.5235,-4.5338,-4.5275,-4.5125,-4.5103,-4.5014,-4.4914,-4.4846,-4.4821,-4.4821,-4.4789,-4.4712,-4.4745,-2.0605,-2.0605,0.0,0.0,0.0,0.0,0.0,0.0,0.0,0.0,0.0,0.0,0.0,0.0,0.0,0.0,0.0,-3.3601,-3.1321,0.0,-3.013,-3.0926,-2.6371,-2.4953,0.0,0.0,0.0,-2.2494,-2.175,-2.1828,-2.2643,-2.1835,-2.1991,-2.3045,-2.5526,-2.6648,-2.6853,-2.939,-3.2305,-3.524,-3.5287,-3.6369,-3.7951,0.0,-3.8604,-3.9513,-4.0314,0.0,0.0,-3.6343,-3.5917,0.0,0.0,0.0,0.0,0.0,0.0,0.0,0.0,0.0,0.0,-2.5281,0.0,0.0,0.0,0.0,-2.4094,0.0,0.0,0.0,0.0,0.0,-2.4798,-2.4018,-2.4675,0.0,0.0,0.0,0.0,0.0,0.0,0.0,0.0,0.0,0.0,-3.52,-3.4805,-3.5863,-3.9157,-3.9815,-4.0116,-4.0136,-4.2322,-4.3089,-4.224,-4.3958,-4.4796,-4.4796,-4.4919,-4.501,-4.4991,-4.5148,-4.5254,-4.5297,-4.5297,-4.5256,-4.5192,-4.5125,-4.5014,-4.4895,-4.4895,-4.4895,-4.487,-4.4764,-4.4712,-4.4799,0.0,0.0,0.0,0.0,0.0,0.0,0.0,-2.2068,0.0,0.0,0.0,0.0,0.0,0.0,-3.1104,0.0,0.0,-3.302,-3.229,-3.0312,0.0,0.0,0.0,-2.4385,0.0,0.0,0.0,0.0,0.0,-2.3186,-2.3405,-2.2114,-2.1991,-2.2991,0.0,-2.6809,0.0,0.0,0.0,0.0,0.0,-3.7098,-3.7291,0.0,0.0,-3.8711,-3.9527,-3.9967,0.0,-3.8339,-3.6891,-3.5614,-3.4926,-3.3576,-3.2413,-3.3223,-3.2618,0.0,0.0,0.0,-2.9851,-2.7151,0.0,0.0,0.0,0.0,0.0,0.0,0.0,0.0,0.0,0.0,-2.411,-2.3927,-2.4599,-2.5168,0.0,0.0,0.0,0.0,0.0,0.0,0.0,0.0,0.0,-3.3985,-3.4867,-3.6073,-3.7727,-3.8974,-3.9802,-4.0149,-4.1846,-4.2901,-4.3175,-4.3693,-4.4266,-4.4919,-4.5014,-4.5103,-4.5148,-4.5233,-4.5275,-4.5297,-4.5338,-4.5297,-4.5192,-4.517,-4.5103,-4.4943,-4.4919,-4.487,-4.4821,-4.4821,-4.4789,-4.4874,-2.1292,0.0,0.0,0.0,0.0,0.0,0.0,0.0,0.0,0.0,-2.6545,0.0,-3.0393,0.0,-3.155,0.0,-3.316,-3.3258,-3.2695,-3.1115,0.0,-3.0814,-2.7215,0.0,0.0,0.0,0.0,0.0,0.0,-2.4017,-2.4236,-2.2717,-2.2493,-2.3408,0.0,-2.6637,-2.9379,0.0,-3.3667,0.0,0.0,-3.8155,0.0,0.0,-3.8531,-3.7467,0.0,-3.9518,-3.9567,-3.8546,-3.7329,-3.6262,-3.6396,-3.4931,-3.3427,-3.4788,-3.3918,-3.2443,-3.207,-3.2052,0.0,-2.8885,-2.8946,0.0,-2.6434,0.0,0.0,0.0,0.0,0.0,0.0,0.0,-2.4379,-2.5099,-2.5184,-2.5212,0.0,-2.5423,0.0,0.0,0.0,0.0,0.0,0.0,-3.1928,-3.3267,-3.4393,-3.5617,0.0,0.0,-3.9444,-3.9804,-4.1411,-4.2418,-4.2697,-4.3234,-4.385,-4.455,-4.4928,-4.5148,-4.5192,-4.5275,-4.5317,-4.5338,-4.5378,-4.5317,-4.5235,-4.5213,-4.5125,-4.4991,-4.4938,-4.4846,-4.4796,-4.4821,-4.4978,-4.5327,0.0,0.0,0.0,0.0,-2.3155,0.0,0.0,0.0,-2.5137,0.0,-2.7219,-2.8025,-3.1293,-3.2305,-3.2749,-3.2787,-3.4215,0.0,-3.2844,-3.2722,0.0,0.0,-3.1009,-3.0845,-3.2409,0.0,0.0,0.0,0.0,0.0,-2.5072,-2.3598,-2.3364,0.0,-2.4225,0.0,-2.9443,-3.0045,-3.3287,-3.8151,-3.9745,-3.9379,-3.8009,-3.8973,-3.7752,-3.5861,-3.8348,-3.8747,-3.7951,-3.6949,-3.7156,-3.7677,-3.6736,-3.6417,-3.6554,-3.7336,-3.633,-3.4775,-3.3904,-3.3015,-3.1959,-3.0404,0.0,0.0,0.0,0.0,-2.6458,0.0,0.0,0.0,0.0,0.0,0.0,-2.7229,-2.6251,-2.5332,-2.5385,0.0,0.0,0.0,0.0,0.0,0.0,0.0,-2.9603,-3.2932,-3.3329,0.0,0.0,0.0,-3.8909,-3.9,-4.0872,-4.1538,-4.0896,-4.2586,-4.3553,-4.3729,-4.4725,-4.5192,-4.5192,-4.5275,-4.5338,-4.5398,-4.5338,-4.5297,-4.5297,-4.5254,-4.5125,-4.4991,-4.4919,-4.4846,-4.477,-4.4738,-4.524,-4.6108,-2.1971,-2.193,-2.1839,0.0,-2.2137,-2.2426,0.0,0.0,0.0,0.0,-2.9763,-3.169,-3.4773,-3.4875,-3.4891,-3.5444,-3.5445,0.0,0.0,0.0,0.0,-3.4534,-3.1755,-3.1164,-3.3242,-2.9532,0.0,-2.819,0.0,0.0,-2.5069,0.0,0.0,0.0,0.0,0.0,-2.9431,-3.0105,-3.2891,-3.7015,-3.8127,-3.7233,0.0,0.0,-3.6852,-3.4974,-3.7488,-3.8246,-3.7891,-3.6915,-3.6753,-3.6776,-3.5823,-3.5959,-3.636,-3.5798,-3.578,-3.5742,-3.4813,-3.4337,-3.3692,-3.2145,-3.1563,-3.0978,0.0,0.0,0.0,0.0,0.0,0.0,0.0,0.0,0.0,-2.5906,-2.5571,-2.5378,0.0,0.0,0.0,0.0,0.0,0.0,0.0,0.0,-3.0422,-3.1371,-3.2654,0.0,0.0,0.0,0.0,-3.7494,-3.9136,-4.0172,-4.0534,-4.2125,-4.3268,-4.4015,-4.4874,-4.5256,-4.5256,-4.5297,-4.5317,-4.5317,-4.5359,-4.5359,-4.5359,-4.5378,-4.5275,-4.5125,-4.4986,-4.4745,-4.4524,-4.4605,-4.516,-4.5969,-2.2754,0.0,0.0,-2.1798,0.0,0.0,-2.3918,0.0,0.0,-2.969,-3.111,0.0,-3.5621,-3.6262,-3.6654,-3.707,-3.6415,0.0,-3.4937,0.0,0.0,-3.4117,-3.3034,-3.3161,-3.4737,-3.1908,0.0,-2.967,0.0,0.0,-2.5111,0.0,0.0,0.0,0.0,-2.5327,0.0,-3.1023,-3.341,-3.5592,-3.7248,0.0,0.0,-3.7376,-3.6735,-3.5072,-3.6852,-3.7475,-3.7338,-3.6358,-3.6029,-3.5921,-3.5367,-3.5505,-3.5718,-3.5078,-3.523,-3.5474,-3.4961,-3.4745,-3.4435,-3.3541,-3.3164,-3.2558,-3.0917,-3.0389,-3.0379,0.0,0.0,0.0,0.0,0.0,0.0,0.0,0.0,0.0,0.0,0.0,0.0,0.0,0.0,0.0,0.0,0.0,0.0,0.0,0.0,0.0,0.0,0.0,0.0,-3.5791,-3.7887,-3.9215,-3.9653,-4.157,-4.2806,-4.3401,-4.4683,-4.5297,-4.5297,-4.5297,-4.5297,-4.5297,-4.5359,-4.5379,-4.5359,-4.5398,-4.5297,-4.5125,-4.487,-4.4632,-4.4411,-4.4496,-4.5031,-4.5839,0.0,0.0,0.0,0.0,0.0,0.0,0.0,-2.6013,0.0,-3.135,0.0,-3.3241,-3.5546,-3.7057,-3.7913,-3.7909,0.0,-3.5963,-3.4395,-3.4961,-3.4653,-3.3035,-3.4481,-3.5637,-3.631,-3.4811,0.0,0.0,0.0,0.0,0.0,0.0,0.0,0.0,0.0,0.0,0.0,-3.2192,-3.4191,-3.4467,-3.6684,-3.7156,-3.6642,-3.7439,-3.6804,-3.5597,-3.626,-3.6575,-3.6485,-3.5575,-3.5285,-3.5277,-3.5198,-3.5092,-3.4982,-3.4908,-3.4791,-3.4708,-3.471,-3.4661,-3.4633,-3.4567,-3.4423,-3.3937,-3.2562,-3.2164,-3.2311,-3.3063,-3.1693,-3.131,0.0,0.0,0.0,0.0,0.0,0.0,0.0,0.0,0.0,0.0,0.0,0.0,0.0,0.0,0.0,0.0,0.0,0.0,0.0,0.0,0.0,-3.4641,-3.7203,-3.8613,-3.8766,0.0,-4.2424,-4.255,-4.4412,-4.5297,-4.5297,-4.5297,-4.5297,-4.5297,-4.5359,-4.5378,-4.5317,-4.5378,-4.5275,-4.5038,-4.4693,-4.4496,-4.4383,-4.4383,-4.4871,-4.5566,0.0,0.0,0.0,0.0,0.0,-2.6526,-2.733,-2.9288,-3.138,-3.3388,-3.5017,-3.6609,-3.8262,-3.817,-3.7969,-3.7909,-3.7203,0.0,0.0,0.0,0.0,-3.4943,-3.5271,-3.5787,-3.6436,-3.491,-3.3157,0.0,0.0,0.0,0.0,0.0,0.0,0.0,0.0,0.0,-3.0018,-3.2204,0.0,-3.5206,-3.5648,-3.5801,-3.572,-3.5828,-3.5726,-3.5502,-3.5537,-3.5617,-3.5682,-3.533,-3.5228,-3.5212,-3.507,-3.498,-3.4887,-3.4851,-3.4809,-3.4785,-3.4768,-3.4766,-3.4804,-3.4887,-3.4598,-3.4271,-3.4074,-3.44,-3.4565,-3.3979,-3.4289,-3.426,-3.2825,0.0,0.0,0.0,0.0,0.0,0.0,0.0,0.0,0.0,0.0,0.0,0.0,0.0,0.0,0.0,0.0,0.0,0.0,0.0,0.0,0.0,-3.7657,0.0,0.0,0.0,-4.2795,-4.2756,-4.4496,-4.5297,-4.5297,-4.5297,-4.5297,-4.5297,-4.5359,-4.5379,-4.5379,-4.5398,-4.5213,-4.4895,-4.4632,-4.4468,-4.4383,-4.4383,-4.4533,-4.4815,0.0,0.0,0.0,0.0,0.0,0.0,0.0,-3.2832,0.0,-3.4141,-3.5675,-3.7095,-3.7721,-3.8304,-3.8657,-3.8642,-3.7478,-3.6754,-3.6787,-3.5945,-3.5597,-3.6017,-3.6051,0.0,-3.7206,-3.6903,-3.5215,-3.2076,0.0,0.0,-2.5293,0.0,0.0,0.0,0.0,-2.7346,0.0,0.0,0.0,-3.4237,-3.5033,-3.5412,-3.5493,-3.5379,-3.5364,-3.5383,-3.5247,-3.5235,-3.5277,-3.5219,-3.5184,-3.5133,-3.5073,-3.5019,-3.4944,-3.4831,-3.4788,-3.4787,-3.4764,-3.4695,-3.4633,-3.4641,-3.4813,-3.4983,-3.4967,-3.5261,-3.5485,-3.546,-3.5259,-3.4442,-3.2395,-3.0657,0.0,0.0,0.0,0.0,0.0,0.0,0.0,0.0,0.0,0.0,0.0,0.0,0.0,0.0,0.0,0.0,0.0,0.0,0.0,0.0,0.0,0.0,0.0,0.0,0.0,-4.2868,-4.4517,-4.5297,-4.5297,-4.5297,-4.5297,-4.5297,-4.5359,-4.5398,-4.5338,-4.5254,-4.5057,-4.4821,-4.4578,-4.4458,-4.4411,-4.444,-4.4496,-4.4683,0.0,-2.4232,0.0,0.0,-2.8276,0.0,-3.1715,-3.5414,-3.7286,-3.5149,-3.6471,-3.7571,-3.7444,-3.8565,-3.923,-3.9047,-3.7603,-3.6998,-3.768,-3.6178,-3.5672,-3.6592,-3.6477,-3.6688,-3.741,-3.8262,-3.6767,0.0,0.0,0.0,0.0,0.0,0.0,0.0,0.0,0.0,0.0,0.0,-3.3191,-3.3628,-3.4822,-3.5388,-3.5445,-3.5304,-3.5258,-3.5248,-3.5122,-3.5075,-3.5078,-3.5126,-3.5105,-3.5072,-3.5094,-3.5037,-3.4962,-3.485,-3.4788,-3.4785,-3.4685,-3.4585,-3.4502,-3.4414,-3.5002,-3.5531,-3.5324,-3.5609,-3.5993,-3.6249,-3.5315,-3.4023,-3.2649,-3.148,0.0,0.0,0.0,0.0,0.0,0.0,0.0,0.0,0.0,0.0,0.0,0.0,0.0,0.0,0.0,0.0,0.0,0.0,0.0,0.0,0.0,-3.8147,-3.9121,0.0,-4.2871,-4.2931,-4.4557,-4.5317,-4.5317,-4.5317,-4.5297,-4.5297,-4.5378,-4.5338,-4.5256,-4.5057,-4.4914,-4.477,-4.4578,-4.4487,-4.444,-4.4496,-4.4578,-4.481,0.0,0.0,0.0,0.0,0.0,0.0,-3.1992,-3.5466,-3.8071,-3.7758,-3.9196,-4.0207,-4.0142,-3.9682,-3.9056,-3.8199,-3.7299,-3.6804,-3.6815,-3.5912,-3.5811,-3.6747,-3.6026,-3.5669,-3.5809,-3.6614,-3.5669,0.0,0.0,0.0,0.0,0.0,0.0,0.0,0.0,0.0,0.0,-3.28,-3.3795,-3.5182,-3.5321,-3.5354,-3.5308,-3.517,-3.512,-3.51,-3.5039,-3.5003,-3.5003,-3.4943,-3.4963,-3.5002,-3.5,-3.4973,-3.4895,-3.4813,-3.4809,-3.4757,-3.4578,-3.4553,-3.4628,-3.4718,-3.5187,-3.5479,-3.4978,-3.5942,-3.6537,-3.5039,-3.4639,-3.432,-3.3518,-3.4116,-3.4689,0.0,0.0,0.0,0.0,0.0,0.0,0.0,0.0,0.0,0.0,0.0,0.0,0.0,0.0,0.0,0.0,0.0,0.0,-3.534,0.0,-3.6581,-3.7949,-4.1311,-4.2969,-4.3007,-4.4632,-4.5398,-4.5398,-4.5317,-4.5297,-4.5297,-4.5317,-4.5275,-4.5192,-4.4919,-4.4796,-4.477,-4.4578,-4.4524,-4.4578,-4.4578,-4.4685,-4.4997,0.0,0.0,0.0,0.0,0.0,0.0,0.0,-3.655,-3.8246,-3.8216,-3.9644,-4.0631,-4.0573,-3.9408,-3.8458,-3.8099,-3.7301,-3.68,-3.6825,-3.6427,-3.6381,-3.6826,-3.6452,-3.6273,-3.6373,-3.7173,-3.6318,0.0,0.0,0.0,0.0,0.0,0.0,0.0,0.0,-3.1707,-3.2994,-3.398,-3.4793,-3.5398,-3.527,-3.5207,-3.5174,-3.5088,-3.5013,-3.4975,-3.5002,-3.4963,-3.4939,-3.4908,-3.4945,-3.5022,-3.5059,-3.5015,-3.495,-3.4926,-3.4884,-3.4816,-3.4602,-3.4517,-3.4498,-3.4547,-3.5073,-3.5562,-3.5415,-3.5934,-3.6243,-3.5539,-3.4902,-3.4423,-3.4252,-3.4117,-3.4344,0.0,0.0,0.0,0.0,0.0,0.0,0.0,0.0,0.0,0.0,0.0,0.0,0.0,0.0,0.0,0.0,0.0,0.0,-3.5613,0.0,-3.805,-3.9596,-4.1905,-4.3062,-4.3091,-4.465,-4.54,-4.54,-4.538,-4.5361,-4.5361,-4.5319,-4.5235,-4.5125,-4.4895,-4.4745,-4.4685,-4.4578,-4.4578,-4.4605,-4.4685,-4.477,-4.506,-3.1382,0.0,-3.1991,0.0,-3.4016,-3.4462,-3.5713,-3.7288,-3.8326,-3.8297,-3.9503,-4.0314,-4.0236,-3.8714,-3.7733,-3.775,-3.6941,-3.6566,-3.6889,-3.6574,-3.6524,-3.6876,-3.6569,0.0,-3.6566,-3.71,-3.652,-3.4709,-3.2971,0.0,0.0,0.0,0.0,0.0,-3.2713,-3.3474,-3.3736,-3.5177,-3.5609,-3.5304,-3.5138,-3.507,-3.5054,-3.5003,-3.4945,-3.4904,-3.4945,-3.4944,-3.49,-3.4907,-3.4927,-3.4984,-3.504,-3.4999,-3.4912,-3.4907,-3.4849,-3.4768,-3.4775,-3.4577,-3.4467,-3.4722,-3.5248,-3.5666,-3.5545,-3.579,-3.5922,-3.5635,-3.4977,-3.457,-3.4986,-3.4611,-3.4624,-3.5853,0.0,0.0,0.0,0.0,0.0,0.0,-3.4098,-3.3519,-3.428,0.0,0.0,0.0,0.0,0.0,0.0,0.0,0.0,0.0,0.0,0.0,0.0,-4.2085,-4.3137,-4.3148,-4.4684,-4.5419,-4.5419,-4.5419,-4.54,-4.54,-4.5339,-4.5254,-4.5148,-4.4943,-4.4796,-4.4738,-4.4738,-4.4738,-4.4764,-4.4846,-4.4919,-4.5162,-3.3035,-3.3309,-3.3812,-3.5564,-3.5809,-3.5802,-3.5888,-3.7326,-3.838,-3.8307,-3.9004,-3.9468,-3.9331,-3.7822,-3.6837,-3.6909,-3.6124,-3.5989,-3.6842,-3.6104,-3.6002,0.0,0.0,-3.5684,-3.581,-3.5766,-3.5708,-3.5678,0.0,0.0,-3.3006,0.0,-3.136,-3.301,-3.3889,-3.4693,-3.5432,-3.6301,-3.6078,-3.5105,-3.5034,-3.4963,-3.4908,-3.4905,-3.4908,-3.4904,-3.4908,-3.4908,-3.4908,-3.4908,-3.4908,-3.4908,-3.4984,-3.4865,-3.4685,-3.4699,-3.4567,-3.4529,-3.504,-3.4805,-3.4618,-3.5474,-3.5788,-3.5704,-3.5059,-3.5493,-3.5732,-3.4814,-3.4539,-3.4783,-3.5719,-3.6302,-3.6714,-3.6851,0.0,0.0,0.0,0.0,0.0,0.0,-3.3799,-3.4259,-3.4924,0.0,0.0,0.0,0.0,0.0,0.0,0.0,0.0,-3.5679,-3.6484,0.0,-3.8125,-4.1505,-4.3208,-4.3228,-4.4752,-4.5495,-4.5495,-4.5419,-4.54,-4.54,-4.5339,-4.5297,-4.5297,-4.508,-4.501,-4.501,-4.501,-4.5033,-4.5084,-4.5103,-4.5148,-4.544,-3.5952,-3.5558,-3.5298,-3.581,-3.5884,-3.5884,-3.5908,-3.682,-3.7494,-3.742,-3.7598,-3.7687,-3.755,-3.7049,-3.6775,0.0,-3.6549,-3.6279,0.0,-3.6245,-3.6247,-3.6021,-3.5736,-3.5646,-3.5727,-3.5708,-3.5708,-3.5698,0.0,0.0,0.0,-3.245,-3.3423,-3.5604,-3.5881,-3.6105,-3.631,-3.6526,-3.602,-3.5019,-3.4963,-3.4889,-3.4849,-3.4884,-3.4926,-3.4964,-3.5022,-3.504,-3.5022,-3.4984,-3.4889,-3.4775,-3.4794,-3.4756,-3.4699,-3.4703,-3.4556,-3.4401,-3.442,-3.4381,-3.4404,-3.468,-3.4842,-3.4903,-3.4788,-3.4917,-3.4967,-3.4722,-3.4604,-3.4846,-3.5738,-3.6539,-3.6986,-3.6738,-3.6525,0.0,0.0,0.0,0.0,0.0,-3.5503,-3.6108,0.0,-3.7539,0.0,0.0,0.0,0.0,0.0,0.0,0.0,0.0,-3.7541,0.0,-3.9662,-4.1975,-4.3123,-4.3142,-4.4795,-4.5568,-4.5568,-4.555,-4.5513,-4.5457,-4.5399,-4.5317,-4.5213,-4.5061,-4.4967,-4.4943,-4.5014,-4.508,-4.5103,-4.5148,-4.5213,-4.5428,-3.7301,-3.6584,-3.596,-3.5946,-3.5923,-3.59,-3.5892,-3.6573,-3.7086,-3.7012,-3.6927,-3.6839,-3.676,-3.6397,0.0,-3.6303,-3.6273,-3.6074,-3.5646,-3.6014,-3.604,-3.5574,-3.5593,-3.5637,-3.5745,-3.5708,0.0,-3.5735,-3.4594,-3.4028,-3.3975,-3.3952,-3.4962,-3.6787,-3.6762,-3.6727,-3.6646,-3.6565,-3.5921,-3.4964,-3.4889,-3.4849,-3.4848,-3.4884,-3.4944,-3.5003,-3.5072,-3.5053,-3.4982,-3.4908,-3.4775,-3.4623,-3.4682,-3.4595,-3.4469,-3.446,-3.432,-3.4209,-3.4402,-3.4364,-3.4376,-3.4685,-3.4668,-3.4612,-3.4604,-3.4517,-3.4473,-3.4495,-3.4849,-3.5383,-3.623,-3.7122,-3.7506,-3.6851,-3.663,-3.6091,-3.477,0.0,0.0,0.0,0.0,0.0,0.0,-3.8166,-3.8358,0.0,0.0,0.0,0.0,0.0,0.0,-3.6933,-3.8799,0.0,-4.0927,-4.236,-4.3258,-4.3566,-4.4932,-4.5586,-4.5586,-4.5586,-4.5568,-4.5495,-4.5438,-4.5339,-4.5275,-4.5192,-4.5297,-4.5521,-4.533,-4.5428,-4.5655,-4.5373,-4.5298,-4.551,-3.7372,-3.6598,-3.5937,0.0,-3.595,0.0,-3.5903,-3.6534,-3.7,-3.692,-3.6787,-3.671,-3.671,-3.5859,-3.5345,-3.5469,0.0,0.0,0.0,-3.5491,-3.548,-3.5495,-3.557,-3.5669,-3.5784,-3.5726,-3.5717,-3.5784,-3.565,-3.5604,-3.5601,-3.554,-3.5971,-3.6807,-3.6722,-3.6652,-3.6581,-3.6451,-3.5816,-3.4889,-3.483,-3.4829,-3.4887,-3.4904,-3.4944,-3.5021,-3.509,-3.4975,-3.4797,-3.4718,-3.4604,-3.4504,-3.4617,-3.4383,-3.4089,-3.4118,-3.3981,-3.3962,-3.4731,-3.4617,-3.4464,-3.5237,-3.5096,-3.4722,-3.4473,-3.4354,-3.4314,-3.432,-3.5252,-3.6316,-3.714,-3.8021,-3.8247,-3.7192,-3.6894,-3.6124,-3.422,0.0,0.0,0.0,0.0,0.0,0.0,-3.7602,-3.87,0.0,0.0,0.0,0.0,0.0,-3.763,-3.9243,-4.0085,-4.0921,-4.178,-4.2662,-4.3528,-4.4393,-4.5201,-4.5586,-4.5586,-4.5605,-4.5568,-4.5495,-4.5419,-4.5438,-4.5495,-4.5495,-4.5953,-4.6624,-4.588,-4.6033,-4.6589,-4.5726,-4.54,-4.5628,0.0,0.0,-3.5979,-3.6004,-3.5981,-3.5966,-3.5922,-3.6021,-3.6087,-3.6028,-3.5889,-3.5801,-3.5746,-3.5475,-3.53,-3.5266,-3.5262,-3.5292,-3.5336,-3.5336,-3.5383,-3.5501,-3.5558,-3.5629,-3.5718,-3.5708,-3.5689,-3.5648,-3.5615,-3.5601,-3.5604,-3.5577,-3.6009,-3.68,-3.6781,-3.6685,-3.652,-3.6487,-3.5872,-3.4888,-3.4888,-3.4889,-3.4908,-3.4888,-3.5003,-3.5152,-3.5114,-3.4996,-3.4878,-3.4814,-3.4511,-3.4203,-3.4226,-3.4079,-3.3931,-3.4234,-3.4072,-3.3887,-3.421,-3.426,-3.4297,-3.4595,-3.4617,-3.4583,-3.4609,-3.5004,-3.5399,-3.554,-3.6242,-3.7092,-3.7966,-3.842,-3.831,-3.7192,-3.6887,-3.6245,-3.4674,-3.519,0.0,0.0,-3.7339,-3.845,-3.8511,-3.9353,-3.9503,0.0,0.0,0.0,0.0,-3.7906,-3.8185,-3.9201,-4.0062,-4.0899,-4.1716,-4.2648,-4.3835,-4.5278,-4.549,-4.5586,-4.5586,-4.555,-4.5513,-4.5495,-4.5419,-4.5784,-4.6396,-4.6396,-4.6895,-4.7585,-4.6723,-4.6531,-4.6589,-4.5725,-4.5399,-4.5628,-3.7919,-3.6916,-3.6007,-3.6009,-3.5962,-3.5924,-3.5859,-3.583,-3.5754,-3.5667,-3.5535,-3.5437,-3.5402,-3.5315,-3.5258,-3.5248,-3.5229,-3.5226,-3.5293,-3.5334,-3.5411,-3.5534,-3.5584,-3.582,-3.629,-3.6299,-3.6269,-3.6184,-3.5813,-3.5628,-3.5639,-3.5572,-3.5991,-3.6781,-3.6309,-3.6266,-3.647,-3.6018,-3.5493,-3.4946,-3.4946,-3.4945,-3.4945,-3.4982,-3.5058,-3.5151,-3.5007,-3.4887,-3.4729,-3.4545,-3.426,-3.4009,-3.4009,-3.3965,-3.3942,-3.4231,-3.4131,-3.3943,-3.3919,-3.412,-3.4367,-3.4532,-3.4786,-3.5019,-3.5108,-3.5766,-3.6321,-3.6245,-3.7065,-3.7939,-3.8369,-3.8855,-3.8902,-3.801,-3.6791,-3.5809,-3.5439,-3.524,0.0,-3.6942,-3.8421,-3.9466,-3.9765,-4.0261,-4.0146,-3.9169,-3.9112,0.0,-3.91,-3.9115,-3.9339,-3.9781,-4.0258,-4.1088,-4.2326,-4.3607,-4.4489,-4.5009,-4.5413,-4.5393,-4.5009,-4.5376,-4.5531,-4.5495,-4.5457,-4.5688,-4.6129,-4.657,-4.7031,-4.7395,-4.6935,-4.6724,-4.6589,-4.5726,-4.5399,-4.5648,-3.7274,-3.6601,-3.6004,-3.5986,-3.5938,-3.5875,-3.5806,-3.5788,-3.5747,-3.5623,-3.5489,-3.5424,-3.5412,-3.5285,-3.5226,-3.5286,-3.5245,-3.5242,-3.5305,-3.5376,-3.545,-3.5592,-3.5707,-3.6176,-3.6959,-3.6987,-3.6886,-3.6698,-3.5956,-3.5616,-3.567,-3.556,-3.588,-3.6537,-3.5676,-3.5662,-3.626,-3.5378,-3.5001,-3.502,-3.5001,-3.5001,-3.502,-3.5091,-3.5092,-3.5057,-3.4861,-3.4687,-3.4508,-3.4203,-3.3989,-3.3872,-3.4014,-3.4,-3.3975,-3.422,-3.4203,-3.4068,-3.385,-3.4195,-3.4615,-3.49,-3.5321,-3.5712,-3.5866,-3.6614,-3.7197,-3.6861,-3.7826,-3.8707,-3.8656,-3.9286,-3.9532,-3.8613,-3.6691,-3.551,-3.6052,0.0,-3.5498,-3.7751,-3.8941,-3.9832,-4.053,-4.0588,-4.0573,-4.0523,-4.0495,-4.0499,-4.0499,-4.0499,-4.0499,-4.0502,-4.0627,-4.1527,-4.3261,-4.4816,-4.522,-4.4489,-4.524,-4.5201,-4.4509,-4.5259,-4.5568,-4.5513,-4.5629,-4.5745,-4.588,-4.6685,-4.7146,-4.7338,-4.6935,-4.682,-4.6761,-4.5784,-4.5476,-4.582,-3.717,-3.6593,-3.5978,-3.5934,-3.5914,-3.588,-3.5813,-3.5756,-3.5702,-3.5604,-3.5523,-3.5454,-3.5416,-3.5325,-3.5273,-3.5226,-3.5258,-3.5292,-3.5302,-3.5354,-3.5422,-3.5501,-3.6284,-3.677,-3.6908,-3.6914,-3.6551,-3.5809,-3.5681,-3.5586,-3.5534,-3.5507,-3.5518,-3.5537,-3.5381,-3.534,-3.5372,-3.5113,-3.502,-3.5075,-3.502,-3.502,-3.5092,-3.5092,-3.5092,-3.5075,-3.487,-3.4602,-3.4327,-3.4214,-3.3949,-3.3775,-3.4513,-3.4247,-3.3788,-3.4437,-3.4363,-3.413,-3.4316,-3.4561,-3.49,-3.5576,-3.588,-3.6228,-3.7089,-3.7718,-3.8141,-3.8192,-3.878,-3.9271,-3.9264,-3.9641,-3.9193,-3.6835,-3.6901,-3.6816,-3.5551,0.0,-3.769,-3.8926,-3.98,-4.0396,-4.0588,-4.0539,-4.0539,-4.0573,-4.0523,-4.0508,-4.0508,-4.0508,-4.0511,-4.0502,-4.1223,-4.2415,-4.411,-4.5087,-4.5491,-4.5321,-4.551,-4.5528,-4.5393,-4.5473,-4.5531,-4.5624,-4.6301,-4.7011,-4.7702,-4.7837,-4.8741,-4.9796,-4.7568,-4.7125,-4.7524,-4.5973,-4.5839,-4.6586,-3.6523,-3.6281,-3.5994,-3.5962,-3.5929,-3.5889,-3.5813,-3.5735,-3.5663,-3.557,-3.5522,-3.5468,-3.5355,-3.533,-3.5281,-3.5258,-3.5292,-3.5339,-3.5388,-3.5455,-3.5476,-3.5546,-3.5991,-3.6447,-3.6895,-3.6907,-3.6682,-3.6247,-3.5772,-3.554,-3.5496,-3.5422,-3.5345,-3.5311,-3.5223,-3.5179,-3.5147,-3.5129,-3.5092,-3.5092,-3.5108,-3.5127,-3.5147,-3.5147,-3.5129,-3.5038,-3.4678,-3.444,-3.433,-3.442,-3.4383,-3.4383,-3.5159,-3.5205,-3.4992,-3.4842,-3.4383,-3.4023,-3.4404,-3.488,-3.5399,-3.5901,-3.678,-3.7658,-3.8039,-3.8738,-3.9236,-3.8939,-3.9214,-3.9477,-3.9376,-3.9502,-3.927,-3.8206,-3.7394,0.0,0.0,-3.7233,-3.7732,-3.9124,-4.0008,-4.0531,-4.0598,-4.0569,-4.0539,-4.0558,-4.0523,-4.0473,-4.0444,-4.0479,-4.0499,-4.0502,-4.1306,-4.2574,-4.4285,-4.4703,-4.4876,-4.4861,-4.5357,-4.5372,-4.4966,-4.5374,-4.5836,-4.6294,-4.6203,-4.6895,-4.8105,-4.8105,-4.8279,-4.849,-4.7702,-4.7048,-4.6453,-4.5687,-4.5956,-4.6839,-3.5994,-3.6004,-3.5994,-3.5981,-3.5924,-3.5872,-3.5806,-3.5741,-3.5641,-3.5534,-3.5507,-3.5444,-3.5326,-3.5312,-3.5327,-3.5292,-3.5334,-3.5393,-3.5521,-3.5522,-3.5547,-3.5607,-3.5839,-3.6261,-3.6858,-3.687,-3.6755,-3.6498,-3.5817,-3.5489,-3.5463,-3.5369,-3.5296,-3.5296,-3.5152,-3.5124,-3.5127,-3.5147,-3.5147,-3.5127,-3.516,-3.5179,-3.5183,-3.5339,-3.5264,-3.5001,-3.4703,-3.4611,-3.4652,-3.4761,-3.4921,-3.5206,-3.5901,-3.614,-3.5999,-3.5308,-3.4706,-3.4301,-3.4666,-3.5293,-3.5967,-3.6572,-3.7773,-3.884,-3.895,-3.9542,-3.9954,-3.9376,-3.9401,-3.9452,-3.9272,-3.9272,-3.9245,-3.9138,0.0,0.0,0.0,-3.7843,-3.7853,-3.936,-4.0108,-4.0531,-4.0593,-4.0603,-4.065,-4.0808,-4.062,-4.0553,-4.0718,-4.0581,-4.0658,-4.1058,-4.1481,-4.2614,-4.4536,-4.4378,-4.4395,-4.4592,-4.526,-4.5276,-4.4713,-4.5526,-4.6277,-4.6889,-4.6604,-4.7201,-4.8394,-4.8394,-4.7991,-4.7377,-4.7606,-4.6876,-4.5649,-4.5477,-4.6129,-4.7204,-3.6004,-3.5994,-3.5981,-3.5914,-3.5899,-3.5885,-3.5815,-3.5689,-3.5604,-3.5598,-3.5547,-3.5455,-3.5307,-3.5354,-3.5373,-3.5307,-3.5405,-3.5528,-3.5586,-3.5604,-3.5601,-3.5607,-3.6372,-3.6809,-3.6798,-3.6807,-3.6408,-3.5605,-3.5528,-3.547,-3.5407,-3.534,-3.5296,-3.5293,-3.5168,-3.5136,-3.5193,-3.5073,-3.5091,-3.5193,-3.5127,-3.511,-3.5188,-3.5799,-3.5571,-3.4964,-3.536,-3.5533,-3.5535,-3.5193,-3.5472,-3.6131,-3.6777,-3.6497,-3.5901,-3.5866,-3.5597,-3.5416,-3.5558,-3.5878,-3.6557,-3.8175,-3.8747,-3.9109,-3.989,-3.9958,-3.9762,-3.9526,-3.935,-3.9183,-3.9036,-3.9183,-3.8794,-3.7262,0.0,0.0,-3.7621,-3.8379,-3.9333,-4.0221,-4.0427,-4.0534,-4.0588,-4.0607,-4.093,-4.1745,-4.0977,-4.0854,-4.1643,-4.0888,-4.1142,-4.2766,-4.2076,-4.2865,-4.5304,-4.4647,-4.4664,-4.5399,-4.553,-4.5566,-4.5545,-4.6413,-4.6836,-4.6971,-4.8471,-4.9183,-4.9298,-4.9298,-4.9182,-4.8872,-4.7375,-4.6664,-4.6412,-4.5668,-4.6513,-4.801,-3.5991,-3.5997,-3.5986,-3.5981,-3.5883,-3.5827,-3.5806,-3.5718,-3.5651,-3.5605,-3.5578,-3.5512,-3.5369,-3.5427,-3.5455,-3.5425,-3.5509,-3.5565,-3.5601,-3.5589,-3.5612,-3.5607,-3.5925,-3.608,-3.6061,-3.6028,-3.5828,-3.5495,-3.5474,-3.5398,-3.5339,-3.5232,-3.5203,-3.5234,-3.5141,-3.5141,-3.5198,-3.5143,-3.5143,-3.5198,-3.5164,-3.5379,-3.5742,-3.5908,-3.6092,-3.6252,-3.6186,-3.6236,-3.6395,-3.6451,-3.6607,-3.6964,-3.7633,-3.7675,-3.7393,-3.7161,-3.6268,-3.569,-3.7111,-3.7293,-3.7357,-3.8498,-3.888,-3.9128,-3.9806,-3.9975,-3.9848,-3.935,-3.9324,-3.9298,-3.9036,-3.912,-3.9014,-3.8502,0.0,-3.9286,-3.9043,-3.9509,-4.0015,-4.036,-4.0449,-4.0534,-4.0592,-4.0598,-4.0926,-4.1793,-4.1562,-4.1493,-4.1774,-4.1421,-4.1984,-4.3692,-4.294,-4.3459,-4.5438,-4.4685,-4.472,-4.5568,-4.564,-4.569,-4.5758,-4.654,-4.7216,-4.7792,-4.8335,-4.9202,-5.0164,-4.9625,-4.9048,-4.8452,-4.7778,-4.6857,-4.588,-4.5515,-4.6551,-4.8106,-3.5991,-3.5997,-3.5981,-3.5977,-3.5883,-3.5801,-3.5806,-3.5718,-3.5651,-3.5599,-3.5572,-3.552,-3.5435,-3.5468,-3.5522,-3.5531,-3.5558,-3.5589,-3.5607,-3.5581,-3.5577,-3.557,-3.5592,-3.5592,-3.5584,-3.5528,-3.5509,-3.5493,-3.5422,-3.5343,-3.5258,-3.5168,-3.5157,-3.5202,-3.5143,-3.516,-3.5198,-3.5179,-3.5179,-3.5219,-3.536,-3.5685,-3.6079,-3.644,-3.6769,-3.7065,-3.6733,-3.6901,-3.7263,-3.7105,-3.7376,-3.7831,-3.8209,-3.8218,-3.809,-3.796,-3.7128,-3.6608,-3.821,-3.8344,-3.8175,-3.9032,-3.928,-3.9394,-3.9716,-3.987,-3.9781,-3.9192,-3.9219,-3.9298,-3.9007,-3.9036,-3.9129,-3.935,-3.9575,-3.9762,-3.9975,-4.0158,-4.0325,-4.0379,-4.0449,-4.0534,-4.0592,-4.0612,-4.107,-4.2155,-4.202,-4.1971,-4.2181,-4.2129,-4.2783,-4.4226,-4.3739,-4.4141,-4.5547,-4.472,-4.4757,-4.564,-4.5693,-4.5722,-4.5804,-4.686,-4.7692,-4.8323,-4.8738,-4.9586,-5.0645,-5.0067,-4.9144,-4.8126,-4.8316,-4.7396,-4.5936,-4.6148,-4.7222,-4.8565,-3.6001,-3.5994,-3.5977,-3.5914,-3.583,-3.5807,-3.5807,-3.5699,-3.5596,-3.5589,-3.5534,-3.5502,-3.5507,-3.5509,-3.554,-3.5601,-3.5601,-3.5593,-3.5607,-3.5546,-3.5509,-3.5507,-3.5554,-3.5566,-3.5507,-3.55,-3.55,-3.5493,-3.5422,-3.5327,-3.5209,-3.5209,-3.5196,-3.52,-3.5212,-3.5209,-3.5193,-3.5127,-3.5166,-3.5259,-3.572,-3.5918,-3.6066,-3.7467,-3.7641,-3.7107,-3.6956,-3.7504,-3.8126,-3.6907,-3.7551,-3.8766,-3.8487,-3.7991,-3.7595,-3.807,-3.8252,-3.8376,-3.8719,-3.8821,-3.9032,-3.9967,-4.0098,-3.9975,-3.9826,-3.9693,-3.9477,-3.9082,-3.9045,-3.9045,-3.8921,-3.8968,-3.9092,-3.9369,-3.9575,-3.9762,-3.9975,-4.0158,-4.0325,-4.0379,-4.0449,-4.0534,-4.0592,-4.0612,-4.133,-4.3057,-4.2328,-4.2175,-4.2977,-4.3011,-4.3442,-4.4369,-4.4472,-4.4897,-4.568,-4.4771,-4.4793,-4.5693,-4.5693,-4.5706,-4.5758,-4.7513,-4.8304,-4.8381,-5.0007,-5.0701,-5.0701,-5.0702,-4.9683,-4.8183,-4.899,-4.8279,-4.6916,-4.7798,-4.8681,-4.9488,-3.5991,-3.5951,-3.5914,-3.5904,-3.584,-3.5803,-3.5799,-3.5737,-3.5643,-3.5616,-3.5577,-3.5553,-3.5522,-3.554,-3.557,-3.5596,-3.5593,-3.5589,-3.5534,-3.5572,-3.5547,-3.5489,-3.5515,-3.5534,-3.557,-3.5527,-3.55,-3.5493,-3.5396,-3.5283,-3.5209,-3.52,-3.5202,-3.52,-3.5145,-3.5162,-3.5231,-3.5737,-3.5967,-3.6098,-3.6709,-3.7206,-3.7562,-3.7317,-3.7779,-3.8417,-3.7718,-3.8034,-3.8738,-3.8266,-3.8412,-3.8796,-3.8839,-3.8293,-3.784,-3.8877,-3.8756,-3.8489,-3.9337,-3.9572,-3.9652,-4.004,-3.96,-3.9153,-3.9443,-3.9551,-3.9452,-3.896,-3.8989,-3.9073,-3.8979,-3.8997,-3.912,-3.9477,-3.9623,-3.9785,-4.0098,-4.0234,-4.0325,-4.0379,-4.0463,-4.0508,-4.0523,-4.0612,-4.1349,-4.3003,-4.3485,-4.4064,-4.4842,-4.4369,-4.4442,-4.5275,-4.539,-4.5534,-4.5771,-4.5465,-4.5726,-4.661,-4.661,-4.6638,-4.6738,-4.8446,-4.8874,-4.8392,-5.0005,-5.072,-5.0775,-5.0721,-5.0067,-4.9086,-4.924,-4.8683,-4.7815,-4.8028,-4.868,-4.9502,-3.5962,-3.5931,-3.5895,-3.5864,-3.5833,-3.5791,-3.5754,-3.5707,-3.5639,-3.5616,-3.5596,-3.5577,-3.5534,-3.5577,-3.5593,-3.5607,-3.5604,-3.5577,-3.5528,-3.5591,-3.556,-3.5496,-3.5528,-3.5553,-3.5601,-3.5535,-3.5495,-3.5451,-3.5346,-3.5283,-3.5196,-3.52,-3.5372,-3.5675,-3.5581,-3.5772,-3.6211,-3.652,-3.6729,-3.6919,-3.7559,-3.7785,-3.7779,-3.7866,-3.8193,-3.8562,-3.7998,-3.8322,-3.8933,-3.8516,-3.858,-3.8857,-3.9036,-3.8738,-3.8505,-3.9327,-3.9218,-3.8959,-3.9649,-3.9823,-3.9845,-3.9911,-3.9534,-3.9183,-3.9364,-3.9427,-3.9298,-3.8833,-3.8892,-3.9007,-3.895,-3.9064,-3.9237,-3.9477,-3.9693,-3.9892,-4.0098,-4.0215,-4.0308,-4.0362,-4.0411,-4.0476,-4.0489,-4.0603,-4.1359,-4.3007,-4.4292,-4.5075,-4.5229,-4.5119,-4.5128,-4.5288,-4.568,-4.6035,-4.6344,-4.6303,-4.6564,-4.7071,-4.7071,-4.71,-4.7177,-4.8174,-4.8561,-4.845,-4.9727,-5.0484,-5.0829,-5.074,-5.0202,-4.9489,-4.974,-4.9375,-4.8754,-4.908,-4.9577,-5.0055,-3.5919,-3.5903,-3.5875,-3.5801,-3.5801,-3.5768,-3.5708,-3.5635,-3.5604,-3.5608,-3.5596,-3.5596,-3.5601,-3.5601,-3.5612,-3.5607,-3.5593,-3.5608,-3.5604,-3.5604,-3.5572,-3.5515,-3.556,-3.5579,-3.5592,-3.5534,-3.5464,-3.5392,-3.5324,-3.528,-3.5202,-3.5288,-3.5725,-3.6415,-3.6353,-3.6819,-3.7681,-3.7433,-3.7433,-3.7662,-3.821,-3.7901,-3.7286,-3.8658,-3.8693,-3.8005,-3.8011,-3.8414,-3.8859,-3.8079,-3.8284,-3.8961,-3.916,-3.9268,-3.935,-3.9458,-3.9551,-3.9623,-3.9689,-3.9689,-3.9689,-3.9689,-3.9735,-3.9712,-3.9452,-3.929,-3.912,-3.878,-3.881,-3.8892,-3.891,-3.9156,-3.9376,-3.9401,-3.9717,-3.9975,-3.9996,-4.0176,-4.031,-4.0307,-4.0362,-4.043,-4.0489,-4.0693,-4.147,-4.3091,-4.4742,-4.5375,-4.466,-4.5363,-4.5493,-4.4839,-4.5576,-4.6402,-4.7197,-4.7282,-4.7366,-4.7423,-4.7345,-4.7339,-4.7437,-4.7437,-4.7863,-4.8664,-4.9401,-5.0165,-5.0916,-5.0777,-5.0259,-4.9624,-5.0412,-5.0257,-4.9753,-5.0604,-5.0909,-5.0929,-3.5908,-3.5894,-3.5885,-3.5814,-3.5764,-3.5726,-3.5689,-3.5635,-3.5604,-3.5608,-3.5589,-3.5601,-3.5601,-3.5643,-3.5654,-3.5593,-3.5608,-3.5604,-3.5604,-3.5596,-3.5577,-3.5591,-3.5547,-3.5522,-3.552,-3.5515,-3.5455,-3.5335,-3.5304,-3.5296,-3.5288,-3.5914,-3.6313,-3.6504,-3.701,-3.7395,-3.7724,-3.8172,-3.8099,-3.7738,-3.8376,-3.8436,-3.8135,-3.7788,-3.8128,-3.8702,-3.8116,-3.8294,-3.8762,-3.8663,-3.8793,-3.9005,-3.9289,-3.9396,-3.9458,-3.9551,-3.9642,-3.9665,-3.9623,-3.9665,-3.9689,-3.9689,-3.9623,-3.9526,-3.935,-3.9264,-3.9129,-3.8892,-3.8881,-3.8939,-3.895,-3.9036,-3.9175,-3.9369,-3.9599,-3.9826,-3.9975,-4.0176,-4.031,-4.0307,-4.0358,-4.0427,-4.0499,-4.1736,-4.2738,-4.3159,-4.4177,-4.5003,-4.5496,-4.5157,-4.5156,-4.5634,-4.5875,-4.6422,-4.7276,-4.7951,-4.8593,-4.9146,-4.8468,-4.8521,-4.9239,-4.9239,-4.9336,-4.9569,-5.0347,-5.0816,-5.1058,-5.0909,-5.0778,-5.0674,-5.0797,-5.079,-5.0715,-5.0903,-5.1004,-5.1056,-3.5914,-3.5908,-3.5879,-3.5806,-3.5745,-3.5678,-3.5657,-3.5631,-3.5596,-3.5589,-3.5601,-3.5601,-3.5601,-3.5631,-3.5631,-3.5608,-3.5604,-3.5604,-3.5596,-3.5601,-3.5589,-3.556,-3.5489,-3.5441,-3.5403,-3.5339,-3.532,-3.5315,-3.53,-3.5273,-3.5267,-3.6135,-3.6744,-3.7099,-3.7814,-3.818,-3.8282,-3.8514,-3.8232,-3.7718,-3.8353,-3.8326,-3.7961,-3.8117,-3.8352,-3.8552,-3.8488,-3.8662,-3.8958,-3.905,-3.9118,-3.9163,-3.9421,-3.9521,-3.9602,-3.9607,-3.9656,-3.9679,-3.9583,-3.9583,-3.9607,-3.9607,-3.9533,-3.9439,-3.9324,-3.9219,-3.9101,-3.8921,-3.8939,-3.895,-3.8979,-3.9101,-3.9237,-3.9395,-3.9647,-3.987,-3.9975,-4.0176,-4.0291,-4.0309,-4.036,-4.0427,-4.0495,-4.2113,-4.2984,-4.2604,-4.4172,-4.4974,-4.462,-4.5034,-4.5285,-4.5279,-4.5755,-4.6593,-4.7854,-4.8359,-4.92,-5.0344,-4.9097,-4.8968,-4.9814,-4.8999,-4.9057,-4.9873,-5.0267,-5.068,-5.1029,-5.0937,-5.0921,-5.0956,-5.0956,-5.0966,-5.1004,-5.1043,-5.1081,-5.1206,-3.5914,-3.5883,-3.5859,-3.5807,-3.5747,-3.5684,-3.5628,-3.5596,-3.5589,-3.5631,-3.5601,-3.5601,-3.5601,-3.5589,-3.5577,-3.5604,-3.5591,-3.5604,-3.5589,-3.5589,-3.5565,-3.547,-3.5422,-3.5364,-3.5308,-3.519,-3.5187,-3.5315,-3.5285,-3.5331,-3.549,-3.6393,-3.7124,-3.7749,-3.8497,-3.8779,-3.8677,-3.8421,-3.8023,-3.7621,-3.8102,-3.7964,-3.7589,-3.8713,-3.8789,-3.8369,-3.8931,-3.9155,-3.9191,-3.9265,-3.9277,-3.9333,-3.9521,-3.9614,-3.9652,-3.9571,-3.962,-3.962,-3.9495,-3.9469,-3.9495,-3.9495,-3.9425,-3.9328,-3.9317,-3.921,-3.9073,-3.895,-3.9007,-3.9064,-3.9064,-3.9264,-3.9427,-3.9452,-3.9758,-3.9996,-4.0017,-4.0176,-4.031,-4.031,-4.0364,-4.043,-4.0508,-4.214,-4.284,-4.1986,-4.4186,-4.5001,-4.3608,-4.4879,-4.5396,-4.4847,-4.5588,-4.6725,-4.827,-4.8502,-4.9368,-5.0875,-4.9481,-4.929,-5.0068,-4.8474,-4.863,-5.0126,-5.0067,-5.0429,-5.1037,-5.0966,-5.0937,-5.0971,-5.1,-5.1023,-5.1043,-5.1117,-5.1267,-5.153,-3.5889,-3.584,-3.5806,-3.5799,-3.5736,-3.5698,-3.5684,-3.5651,-3.562,-3.5673,-3.5639,-3.5596,-3.5601,-3.5553,-3.5528,-3.5591,-3.5591,-3.5591,-3.5528,-3.5572,-3.5522,-3.5345,-3.5369,-3.5369,-3.53,-3.535,-3.535,-3.5315,-3.5187,-3.5589,-3.6504,-3.729,-3.7693,-3.7824,-3.8573,-3.8499,-3.7851,-3.7693,-3.7599,-3.7509,-3.749,-3.7733,-3.8194,-3.8428,-3.8751,-3.9073,-3.9277,-3.9256,-3.9105,-3.9191,-3.9222,-3.9258,-3.9445,-3.9471,-3.9432,-3.9425,-3.9444,-3.9399,-3.9283,-3.9328,-3.9418,-3.9495,-3.9328,-3.9175,-3.9346,-3.9283,-3.9156,-3.9073,-3.9165,-3.9245,-3.9245,-3.9401,-3.9508,-3.9647,-3.9785,-3.9935,-4.0057,-4.0215,-4.031,-4.031,-4.0364,-4.0447,-4.0573,-4.2165,-4.2858,-4.2054,-4.3718,-4.466,-4.4428,-4.4654,-4.506,-4.5699,-4.5848,-4.6397,-4.7454,-4.816,-4.9026,-5.0056,-4.9826,-5.0178,-5.0994,-5.0062,-5.014,-5.1014,-5.1003,-5.1058,-5.1171,-5.1159,-5.1159,-5.1159,-5.1178,-5.1175,-5.1171,-5.1248,-5.1763,-5.2435,-3.5889,-3.5885,-3.5833,-3.5807,-3.5727,-3.5698,-3.5657,-3.5654,-3.5651,-3.5639,-3.5628,-3.5584,-3.5547,-3.5449,-3.5435,-3.5547,-3.5515,-3.5495,-3.5502,-3.5541,-3.5501,-3.5364,-3.536,-3.5326,-3.5315,-3.5285,-3.555,-3.6085,-3.601,-3.6224,-3.6654,-3.7475,-3.7827,-3.7761,-3.807,-3.7729,-3.6912,-3.6848,-3.6818,-3.6844,-3.7134,-3.7742,-3.8497,-3.8794,-3.9145,-3.9488,-3.9508,-3.9421,-3.935,-3.9405,-3.9368,-3.9335,-3.9488,-3.9481,-3.941,-3.9444,-3.9373,-3.9275,-3.9229,-3.9229,-3.9275,-3.9418,-3.9248,-3.9092,-3.9346,-3.9301,-3.9183,-3.9129,-3.9156,-3.9192,-3.9192,-3.9298,-3.9433,-3.9623,-3.9785,-3.9956,-4.0118,-4.0234,-4.031,-4.0364,-4.0381,-4.0447,-4.0592,-4.2184,-4.2878,-4.206,-4.4066,-4.5105,-4.4628,-4.5067,-4.5506,-4.5827,-4.5893,-4.6545,-4.7901,-4.8296,-4.9207,-5.0571,-5.0614,-5.084,-5.1169,-5.0364,-5.0452,-5.119,-5.12,-5.1208,-5.1206,-5.1214,-5.1486,-5.1925,-5.1925,-5.2221,-5.266,-5.2726,-5.3007,-5.3388]},{"header":{"parameterUnit":"m.s-1","parameterCategory":1,"la1":30.6,"la2":28.766,"lo1":-90.7593,"lo2":-88.6598,"dy":0.0162,"dx":0.0183,"nx":116,"ny":114,"refTime":"2023-03-27T06:00:00:Z","depth":0,"parameterNumber":3,"parameterNumberName":"V-component_of_WINDS"},"data":[0.0,0.0,0.0,0.0,0.0,0.0,0.0,0.0,0.0,0.0,0.0,0.0,0.0,0.0,0.0,0.0,0.0,0.0,0.0,0.0,0.0,0.0,0.0,0.0,0.0,0.0,0.0,0.0,0.0,0.0,0.0,0.0,0.0,0.0,0.0,0.0,0.0,0.0,0.0,0.0,0.0,0.0,0.0,0.0,0.0,0.0,0.0,0.0,0.0,0.0,0.0,0.0,0.0,0.0,0.0,0.0,0.0,0.0,0.0,0.0,0.0,0.0,0.0,0.0,0.0,0.0,0.0,0.0,0.0,0.0,0.0,0.0,0.0,0.0,0.0,0.0,0.0,0.0,0.0,0.0,0.0,0.0,0.0,0.0,0.0,0.0,0.0,0.0,0.0,0.0,0.0,0.0,0.0,0.0,0.0,0.0,0.0,0.0,0.0,0.0,0.0,0.0,0.0,0.0,0.0,0.0,0.0,0.0,0.0,0.0,0.0,0.0,0.0,0.0,0.0,0.0,0.0,0.0,0.0,0.0,0.0,0.0,0.0,0.0,0.0,0.0,0.0,0.0,0.0,0.0,0.0,0.0,0.0,0.0,0.0,0.0,0.0,0.0,0.0,0.0,0.0,0.0,0.0,0.0,0.0,0.0,0.0,0.0,0.0,0.0,0.0,0.0,0.0,0.0,0.0,0.0,0.0,0.0,0.0,0.0,0.0,0.0,0.0,0.0,0.0,0.0,0.0,0.0,0.0,0.0,0.0,0.0,0.0,0.0,0.0,0.0,0.0,0.0,0.0,0.0,0.0,0.0,0.0,0.0,0.0,0.0,0.0,0.0,0.0,0.0,0.0,0.0,0.0,0.0,0.0,0.0,0.0,0.0,0.0,0.0,0.0,0.0,0.0,0.0,0.0,0.0,0.0,0.0,0.0,0.0,0.0,0.0,0.0,0.0,0.0,0.0,0.0,0.0,0.0,0.0,0.0,0.0,0.0,0.0,0.0,0.0,0.0,0.0,0.0,0.0,0.0,0.0,0.0,0.0,0.0,0.0,0.0,0.0,0.0,0.0,0.0,0.0,0.0,0.0,0.0,0.0,0.0,0.0,0.0,0.0,0.0,0.0,0.0,0.0,0.0,0.0,0.0,0.0,0.0,0.0,0.0,0.0,0.0,0.0,0.0,0.0,0.0,0.0,0.0,0.0,0.0,0.0,0.0,0.0,0.0,0.0,0.0,0.0,0.0,0.0,0.0,0.0,0.0,0.0,0.0,0.0,0.0,0.0,0.0,0.0,0.0,0.0,0.0,0.0,0.0,0.0,0.0,0.0,0.0,0.0,0.0,0.0,0.0,0.0,0.0,0.0,0.0,0.0,0.0,0.0,0.0,0.0,0.0,0.0,0.0,0.0,0.0,0.0,0.0,0.0,0.0,0.0,0.0,0.0,0.0,0.0,0.0,0.0,0.0,0.0,0.0,0.0,0.0,0.0,0.0,0.0,0.0,0.0,0.0,0.0,0.0,0.0,0.0,0.0,0.0,0.0,0.0,0.0,0.0,0.0,0.0,0.0,0.0,0.0,0.0,0.0,0.0,0.0,0.0,0.0,0.0,0.0,0.0,0.0,0.0,0.0,0.0,0.0,0.0,0.0,0.0,0.0,0.0,0.0,0.0,0.0,0.0,0.0,0.0,0.0,0.0,0.0,0.0,0.0,0.0,0.0,0.0,0.0,0.0,0.0,0.0,0.0,0.0,0.0,0.0,0.0,0.0,0.0,0.0,0.0,0.0,0.0,0.0,0.0,0.0,0.0,0.0,0.0,0.0,0.0,0.0,0.0,0.0,0.0,0.0,0.0,0.0,0.0,0.0,0.0,0.0,0.0,0.0,0.0,0.0,0.0,0.0,0.0,0.0,0.0,0.0,0.0,0.0,0.0,0.0,0.0,0.0,0.0,0.0,0.0,0.0,0.0,0.0,0.0,0.0,0.0,0.0,0.0,0.0,0.0,0.0,0.0,0.0,0.0,0.0,0.0,0.0,0.0,0.0,0.0,0.0,0.0,0.0,0.0,0.0,0.0,0.0,0.0,0.0,0.0,0.0,0.0,0.0,0.0,0.0,0.0,0.0,0.0,0.0,0.0,0.0,0.0,0.0,0.0,0.0,0.0,0.0,0.0,0.0,0.0,0.0,0.0,0.0,0.0,0.0,0.0,0.0,0.0,0.0,0.0,0.0,0.0,0.0,0.0,0.0,0.0,0.0,0.0,0.0,0.0,0.0,0.0,0.0,0.0,0.0,0.0,0.0,0.0,0.0,0.0,0.0,0.0,0.0,0.0,0.0,0.0,0.0,0.0,0.0,0.0,0.0,0.0,0.0,0.0,0.0,0.0,0.0,0.0,0.0,0.0,0.0,0.0,0.0,0.0,0.0,0.0,0.0,0.0,0.0,0.0,0.0,0.0,0.0,0.0,0.0,0.0,0.0,0.0,0.0,0.0,0.0,0.0,0.0,0.0,0.0,0.0,0.0,0.0,0.0,0.0,0.0,0.0,0.0,0.0,0.0,0.0,0.0,0.0,0.0,0.0,0.0,0.0,0.0,0.0,0.0,0.0,0.0,0.0,0.0,0.0,0.0,0.0,0.0,0.0,0.0,0.0,0.0,0.0,0.0,0.0,0.0,0.0,0.0,0.0,0.0,0.0,0.0,0.0,0.0,0.0,0.0,0.0,0.0,0.0,0.0,0.0,0.0,0.0,0.0,0.0,0.0,0.0,0.0,0.0,0.0,0.0,0.0,0.0,0.0,0.0,0.0,0.0,0.0,0.0,0.0,0.0,0.0,0.0,0.0,0.0,0.0,0.0,0.0,0.0,0.0,0.0,0.0,0.0,0.0,0.0,0.0,0.0,0.0,0.0,0.0,0.0,0.0,0.0,0.0,0.0,0.0,0.0,0.0,0.0,0.0,0.0,0.0,0.0,0.0,0.0,0.0,0.0,0.0,0.0,0.0,0.0,0.0,0.0,0.0,0.0,0.0,0.0,0.0,0.0,0.0,0.0,0.0,0.0,0.0,0.0,0.0,0.0,0.0,0.0,0.0,0.0,0.0,0.0,0.0,0.0,0.0,0.0,0.0,0.0,0.0,0.0,0.0,0.0,0.0,0.0,0.0,0.0,0.0,0.0,0.0,0.0,0.0,0.0,0.0,0.0,0.0,0.0,0.0,0.0,0.0,0.0,0.0,0.0,0.0,0.0,0.0,0.0,0.0,0.0,0.0,0.0,0.0,0.0,0.0,0.0,0.0,0.0,0.0,0.0,0.0,0.0,0.0,0.0,0.0,0.0,0.0,0.0,0.0,0.0,0.0,0.0,0.0,0.0,0.0,0.0,0.0,0.0,0.0,0.0,0.0,0.0,0.0,0.0,0.0,0.0,0.0,0.0,0.0,0.0,0.0,0.0,0.0,0.0,0.0,0.0,0.0,0.0,0.0,0.0,0.0,0.0,0.0,0.0,0.0,0.0,0.0,0.0,0.0,0.0,0.0,0.0,0.0,0.0,0.0,0.0,0.0,0.0,0.0,0.0,0.0,0.0,0.0,0.0,0.0,0.0,0.0,0.0,0.0,0.0,0.0,0.0,0.0,0.0,0.0,0.0,0.0,0.0,0.0,0.0,0.0,0.0,0.0,0.0,0.0,0.0,0.0,0.0,0.0,0.0,0.0,0.0,0.0,0.0,0.0,0.0,0.0,0.0,0.0,0.0,0.0,0.0,0.0,0.0,0.0,0.0,0.0,0.0,0.0,0.0,0.0,0.0,0.0,0.0,0.0,0.0,0.0,0.0,0.0,0.0,0.0,0.0,0.0,0.0,0.0,0.0,0.0,0.0,0.0,0.0,0.0,0.0,0.0,0.0,0.0,0.0,0.0,0.0,0.0,0.0,0.0,0.0,0.0,0.0,0.0,0.0,0.0,0.0,0.0,0.0,0.0,0.0,0.0,0.0,0.0,0.0,0.0,0.0,0.0,0.0,0.0,0.0,0.0,0.0,0.0,0.0,0.0,0.0,0.0,0.0,0.0,0.0,0.0,0.0,0.0,0.0,0.0,0.0,0.0,0.0,0.0,0.0,0.0,0.0,0.0,0.0,0.0,0.0,0.0,0.0,0.0,0.0,0.0,0.0,0.0,0.0,0.0,0.0,0.0,0.0,0.0,0.0,0.0,0.0,0.0,0.0,0.0,0.0,0.0,0.0,0.0,0.0,0.0,0.0,0.0,0.0,0.0,0.0,0.0,0.0,0.0,0.0,0.0,0.0,0.0,0.0,0.0,0.0,0.0,0.0,0.0,0.0,0.0,0.0,0.0,0.0,0.0,0.0,0.0,0.0,0.0,0.0,0.0,0.0,0.0,0.0,0.0,0.0,0.0,0.0,0.0,0.0,0.0,0.0,0.0,0.0,0.0,0.0,0.0,0.0,0.0,0.0,0.0,0.0,0.0,0.0,0.0,0.0,0.0,0.0,0.0,0.0,0.0,0.0,0.0,0.0,0.0,0.0,0.0,0.0,0.0,0.0,0.0,0.0,0.0,0.0,0.0,0.0,0.0,0.0,0.0,0.0,0.0,0.0,0.0,0.0,0.0,0.0,0.0,0.0,0.0,0.0,0.0,0.0,0.0,0.0,0.0,0.0,0.0,0.0,0.0,0.0,0.0,0.0,0.0,0.0,0.0,0.0,0.0,0.0,0.0,0.0,0.0,0.0,0.0,0.0,0.0,0.0,0.0,0.0,0.0,0.0,0.0,0.0,0.0,0.0,0.0,0.0,0.0,0.0,0.0,0.0,0.0,0.0,0.0,0.0,0.0,0.0,0.0,0.0,0.0,0.0,0.0,0.0,0.0,0.0,0.0,0.0,0.0,0.0,0.0,0.0,0.0,0.0,0.0,0.0,0.0,0.0,0.0,0.0,0.0,0.0,0.0,0.0,0.0,0.0,0.0,0.0,0.0,0.0,0.0,0.0,0.0,0.0,0.0,0.0,0.0,0.0,0.0,0.0,0.0,0.0,0.0,0.0,0.0,0.0,0.0,0.0,0.0,0.0,0.0,0.0,0.0,0.0,0.0,0.0,0.0,0.0,0.0,0.0,0.0,0.0,0.0,0.0,0.0,0.0,0.0,0.0,0.0,0.0,0.0,0.0,0.0,0.0,0.0,0.0,0.0,0.0,0.0,0.0,0.0,0.0,0.0,0.0,0.0,0.0,0.0,0.0,0.0,0.0,0.0,0.0,0.0,0.0,0.0,0.0,0.0,0.0,0.0,0.0,0.0,0.0,0.0,0.0,0.0,0.0,0.0,0.0,0.0,0.0,0.0,0.0,0.0,0.0,0.0,0.0,0.0,0.0,0.0,0.0,0.0,0.0,0.0,0.0,0.0,0.0,0.0,0.0,0.0,0.0,0.0,0.0,0.0,0.0,0.0,0.0,0.0,0.0,0.0,0.0,0.0,0.0,0.0,0.0,0.0,0.0,0.0,0.0,0.0,0.0,0.0,0.0,0.0,0.0,0.0,0.0,0.0,0.0,0.0,0.0,0.0,0.0,0.0,0.0,0.0,0.0,0.0,0.0,0.0,0.0,0.0,0.0,0.0,0.0,0.0,0.0,0.0,0.0,0.0,0.0,0.0,0.0,0.0,0.0,0.0,0.0,0.0,0.0,0.0,0.0,0.0,0.0,0.0,0.0,0.0,0.0,0.0,0.0,0.0,0.0,0.0,0.0,0.0,0.0,0.0,0.0,0.0,0.0,0.0,0.0,0.0,0.0,0.0,0.0,0.0,0.0,0.0,0.0,0.0,0.0,0.0,0.0,0.0,0.0,0.0,0.0,0.0,0.0,0.0,0.0,0.0,0.0,0.0,0.0,0.0,0.0,0.0,0.0,0.0,0.0,0.0,0.0,0.0,0.0,0.0,0.0,0.0,0.0,0.0,0.0,0.0,0.0,0.0,0.0,0.0,0.0,0.0,0.0,0.0,0.0,0.0,0.0,0.0,0.0,0.0,0.0,0.0,0.0,0.0,0.0,0.0,0.0,0.0,0.0,0.0,0.0,0.0,0.0,0.0,0.0,0.0,0.0,0.0,0.0,0.0,0.0,-1.53,0.0,0.0,0.0,0.0,0.0,0.0,0.0,0.0,0.0,0.0,0.0,0.0,0.0,0.0,0.0,0.0,0.0,0.0,0.0,0.0,0.0,0.0,0.0,0.0,0.0,0.0,0.0,0.0,0.0,0.0,0.0,0.0,0.0,0.0,0.0,0.0,0.0,0.0,0.0,-1.3206,-1.4352,-1.5902,-1.5424,-1.4864,-1.4225,0.0,0.0,0.0,0.0,0.0,0.0,0.0,0.0,0.0,0.0,0.0,0.0,0.0,0.0,0.0,0.0,0.0,0.0,0.0,0.0,0.0,0.0,0.0,0.0,0.0,0.0,0.0,0.0,0.0,0.0,0.0,0.0,0.0,0.0,0.0,0.0,0.0,0.0,0.0,0.0,0.0,0.0,0.0,0.0,0.0,0.0,0.0,0.0,0.0,0.0,0.0,0.0,0.0,0.0,0.0,0.0,0.0,0.0,0.0,0.0,0.0,0.0,0.0,0.0,0.0,0.0,0.0,0.0,0.0,0.0,0.0,-1.5931,0.0,0.0,0.0,0.0,0.0,0.0,0.0,0.0,0.0,0.0,0.0,0.0,0.0,0.0,0.0,0.0,0.0,0.0,0.0,0.0,0.0,0.0,0.0,0.0,-1.2511,-1.2519,-1.3599,0.0,0.0,0.0,0.0,0.0,0.0,0.0,0.0,0.0,0.0,-1.2924,-1.4835,-1.6255,-1.711,-1.7267,-1.6871,-1.6016,-1.3955,0.0,0.0,0.0,0.0,0.0,0.0,0.0,0.0,0.0,0.0,0.0,0.0,0.0,0.0,0.0,0.0,0.0,0.0,0.0,0.0,0.0,0.0,0.0,0.0,0.0,0.0,0.0,0.0,0.0,0.0,0.0,0.0,0.0,0.0,0.0,0.0,0.0,0.0,0.0,0.0,0.0,0.0,0.0,0.0,0.0,0.0,0.0,0.0,0.0,0.0,0.0,0.0,0.0,0.0,0.0,0.0,0.0,0.0,0.0,0.0,0.0,0.0,0.0,-1.6482,-1.7456,-1.841,-1.87,-1.9117,-1.967,-1.7837,-1.6952,-1.6716,0.0,0.0,0.0,0.0,0.0,0.0,0.0,0.0,0.0,0.0,0.0,0.0,0.0,0.0,0.0,0.0,0.0,0.0,0.0,0.0,0.0,0.0,-1.2373,-1.2429,-1.2873,-1.3465,-1.3645,0.0,0.0,0.0,0.0,0.0,0.0,0.0,-1.2675,-1.3105,-1.3824,-1.6718,-1.8074,-1.7925,-1.7633,-1.7808,-1.8382,-1.6382,-1.5608,-1.5635,0.0,0.0,0.0,0.0,0.0,0.0,0.0,0.0,0.0,0.0,0.0,0.0,0.0,0.0,0.0,0.0,0.0,0.0,0.0,0.0,0.0,0.0,0.0,0.0,0.0,0.0,0.0,0.0,0.0,0.0,0.0,0.0,0.0,0.0,0.0,0.0,0.0,0.0,0.0,0.0,0.0,-1.393,-1.4284,0.0,0.0,0.0,0.0,0.0,0.0,0.0,0.0,0.0,0.0,0.0,0.0,0.0,-1.3593,-1.4379,-1.5809,-1.6792,-1.7478,-1.8142,-1.8824,-1.9447,-1.9487,-1.9549,-1.9532,-1.9447,0.0,-1.8218,-1.7099,0.0,0.0,0.0,0.0,0.0,0.0,0.0,0.0,0.0,0.0,0.0,0.0,0.0,0.0,0.0,0.0,0.0,0.0,0.0,0.0,0.0,-1.3733,-1.4057,-1.4205,-1.5619,-1.5868,-1.4335,0.0,0.0,0.0,0.0,-1.3859,-1.3295,-1.3891,-1.4958,-1.6462,-1.7837,-1.8661,-1.8994,-1.8973,-1.9147,-1.9445,-1.8436,-1.7451,-1.651,-1.6083,0.0,0.0,0.0,0.0,0.0,0.0,0.0,0.0,0.0,0.0,0.0,0.0,0.0,0.0,0.0,0.0,0.0,0.0,0.0,0.0,0.0,0.0,0.0,0.0,0.0,0.0,0.0,0.0,0.0,0.0,0.0,0.0,0.0,0.0,0.0,0.0,0.0,0.0,0.0,-1.2718,-1.3236,-1.3792,-1.3621,-1.3335,0.0,0.0,0.0,0.0,0.0,0.0,0.0,0.0,0.0,-1.5039,-1.4782,-1.5104,-1.6177,-1.7092,-1.7679,-1.8006,-1.8798,-1.9311,-1.9557,-1.9742,-1.9822,-1.9665,-1.9283,-1.9036,-1.8743,-1.7869,-1.7477,-1.7319,0.0,0.0,0.0,0.0,-1.6408,-1.6628,0.0,0.0,0.0,0.0,0.0,0.0,0.0,0.0,0.0,0.0,0.0,0.0,-1.4419,-1.5407,-1.5991,-1.5953,-1.7574,-1.7685,-1.5478,-1.6308,0.0,0.0,0.0,-1.3784,-1.3694,-1.4776,-1.6257,-1.8188,-1.858,-1.9041,-1.9541,-1.9765,-1.9769,-1.964,-1.9447,-1.8779,-1.7701,-1.7348,-1.6723,-1.5957,0.0,0.0,0.0,0.0,0.0,0.0,0.0,0.0,0.0,0.0,0.0,0.0,0.0,0.0,0.0,0.0,0.0,0.0,0.0,0.0,0.0,0.0,0.0,0.0,0.0,0.0,0.0,0.0,0.0,0.0,0.0,0.0,0.0,0.0,0.0,0.0,0.0,-1.2569,-1.3216,-1.3537,-1.3892,-1.4012,0.0,0.0,0.0,0.0,0.0,0.0,-1.5724,-1.5204,-1.5413,-1.657,-1.6097,-1.626,-1.7419,-1.7893,-1.8179,-1.8272,-1.8918,-1.928,-1.9383,-1.963,-1.9789,-1.9755,-1.9113,-1.8947,-1.9078,-1.8218,-1.8057,-1.833,-1.7379,-1.7154,-1.7217,-1.7304,-1.7553,-1.8044,0.0,0.0,0.0,0.0,0.0,0.0,0.0,0.0,0.0,0.0,0.0,-1.5683,-1.5882,-1.6962,-1.7744,-1.793,-1.8223,-1.7787,-1.6325,-1.701,-1.6629,-1.4772,-1.453,-1.3956,-1.2878,-1.4538,-1.6089,-1.7545,-1.9159,-1.9644,-1.9056,-1.9205,-1.9116,-1.8918,-1.8827,-1.919,-1.9931,-1.9282,-1.8941,-1.8539,-1.6421,0.0,0.0,0.0,0.0,0.0,0.0,0.0,0.0,0.0,0.0,0.0,0.0,0.0,0.0,0.0,0.0,0.0,0.0,0.0,0.0,0.0,0.0,0.0,0.0,0.0,0.0,0.0,0.0,0.0,0.0,0.0,0.0,0.0,0.0,0.0,0.0,0.0,0.0,-1.4225,-1.5095,0.0,0.0,0.0,0.0,-1.5196,-1.5473,-1.5929,-1.6584,-1.6095,-1.6279,-1.7216,-1.6692,-1.6805,-1.7628,-1.7994,-1.8365,-1.8735,-1.8851,-1.9034,-1.9376,-1.9391,-1.9478,-1.9501,-1.9522,-1.9559,-1.9483,-1.8198,-1.7864,-1.808,-1.8266,-1.8258,-1.8198,-1.9359,-1.9756,-1.9825,0.0,0.0,0.0,0.0,0.0,0.0,0.0,0.0,0.0,-1.2875,-1.4524,-1.5805,-1.6041,-1.8266,-1.9641,-1.9492,-2.0587,-2.056,-1.8796,-1.8345,-1.7469,-1.6002,-1.4943,-1.5039,-1.6452,-1.717,-1.8409,-2.0273,-1.9797,-1.9611,-1.9718,-1.9306,-1.9105,-1.9051,-1.8961,-1.9249,-1.977,-2.0001,-1.9833,-1.9252,-1.8206,-1.6836,0.0,0.0,0.0,0.0,0.0,0.0,0.0,0.0,0.0,0.0,0.0,0.0,0.0,0.0,0.0,0.0,0.0,0.0,0.0,0.0,0.0,0.0,0.0,0.0,0.0,0.0,0.0,0.0,0.0,0.0,0.0,0.0,0.0,0.0,0.0,0.0,0.0,-1.332,-1.4747,0.0,-1.4351,-1.4933,-1.539,-1.535,-1.6162,-1.6824,-1.7311,-1.6876,-1.6934,-1.7584,-1.6944,-1.685,-1.7426,-1.79,-1.8087,-1.8094,-1.8582,-1.873,-1.8566,-1.9016,-1.897,-1.87,-1.914,-1.9186,-1.8957,-1.8701,-1.892,-1.9264,-1.936,-1.9362,-1.953,-1.9917,-1.9972,-1.98,0.0,0.0,0.0,0.0,0.0,0.0,0.0,0.0,-1.2932,-1.3181,-1.5034,-1.6663,-1.7485,-1.9966,-2.1515,-2.1425,-2.2395,-2.2033,-1.9792,-1.8935,-1.7618,-1.5661,-1.4902,-1.5817,-1.8561,-1.8819,-1.9746,-2.1449,-2.0604,-2.0147,-2.0109,-1.9739,-1.934,-1.8847,-1.9069,-1.9246,-1.9511,-2.0311,-2.0443,-2.0224,-1.9591,-1.8365,-1.6773,0.0,0.0,0.0,0.0,0.0,0.0,0.0,0.0,0.0,0.0,0.0,0.0,0.0,0.0,0.0,0.0,0.0,0.0,0.0,0.0,0.0,0.0,0.0,0.0,0.0,0.0,0.0,0.0,0.0,0.0,0.0,0.0,0.0,0.0,0.0,-1.3691,-1.2857,-1.4454,-1.5274,-1.4489,-1.5276,-1.5959,-1.6168,-1.6748,-1.7268,-1.749,-1.7037,-1.7095,-1.7479,-1.663,-1.6679,-1.7757,-1.7742,-1.7938,-1.8153,-1.8644,-1.8636,-1.8445,-1.8798,-1.8784,-1.8499,-1.8829,-1.8865,-1.8674,-1.8784,-1.9257,-1.972,-1.9368,-1.9318,-1.9419,-1.9455,-1.9313,-1.9246,0.0,0.0,0.0,0.0,0.0,0.0,0.0,-1.2459,-1.2783,-1.4222,-1.6261,-1.8312,-2.0251,-2.2037,-2.3231,-2.3709,-2.3319,-2.1901,-1.9128,-1.8644,-1.7033,-1.3791,-1.4547,-1.6286,-1.8911,-1.9261,-1.9826,-2.0794,-2.1535,-2.1248,-2.0143,-2.043,-1.977,-1.8423,-1.9076,-1.9284,-1.9262,-2.0242,-2.1008,-2.1487,-2.0385,-1.9763,-1.9202,0.0,0.0,0.0,0.0,0.0,0.0,0.0,0.0,0.0,0.0,0.0,0.0,0.0,0.0,0.0,0.0,0.0,0.0,0.0,0.0,0.0,0.0,0.0,0.0,0.0,0.0,0.0,0.0,0.0,0.0,0.0,0.0,0.0,-1.302,-1.3201,-1.3297,-1.2894,-1.4254,-1.5454,-1.5803,-1.6232,-1.6864,-1.7613,-1.7434,-1.716,-1.6979,-1.6704,-1.6749,-1.7057,-1.5999,-1.6505,-1.8617,-1.7609,-1.7804,-1.9102,-1.8716,-1.8716,-1.9003,-1.8723,-1.8731,-1.9034,-1.8858,-1.8687,-1.8709,-1.8504,-1.8743,-1.9213,-1.8584,-1.8138,-1.7904,-1.7966,-1.801,-1.8289,0.0,0.0,0.0,0.0,0.0,0.0,0.0,-1.2118,-1.2554,-1.4063,-1.6076,-1.7949,-1.9413,-2.1252,-2.2409,-2.2496,-2.2207,-2.1355,-1.9866,-1.8549,-1.7007,-1.5141,-1.7424,-1.9405,-2.0847,-2.0964,-2.1614,-2.277,-2.1571,-2.0807,-2.0452,-2.0041,-1.9585,-1.9086,-1.9552,-1.9792,-1.9921,-2.0632,-2.1262,-2.1643,-2.1033,-2.0268,-1.9384,0.0,0.0,0.0,0.0,0.0,0.0,0.0,0.0,0.0,0.0,0.0,0.0,0.0,0.0,0.0,0.0,0.0,0.0,0.0,0.0,0.0,0.0,0.0,0.0,0.0,0.0,0.0,0.0,0.0,0.0,0.0,0.0,-1.3739,-1.3578,-1.4578,-1.4798,-1.3428,-1.4676,-1.5338,-1.4546,-1.5076,-1.5632,-1.5829,-1.5952,-1.6142,-1.646,-1.6565,-1.6599,-1.6487,-1.6803,-1.7133,-1.7505,-1.7824,-1.8021,-1.8214,-1.7722,-1.7615,-1.7917,-1.7647,-1.7832,-1.8362,-1.8891,-1.8926,-1.8511,-1.8916,-1.9071,-1.9056,-1.8978,-1.9264,-1.9618,-1.9441,-1.8597,-1.7915,0.0,0.0,0.0,0.0,0.0,0.0,0.0,-1.1811,-1.2483,-1.4774,-1.6246,-1.7935,-2.0153,-2.1585,-2.2323,-2.2323,-2.1456,-2.0457,-1.9405,-1.7626,-1.6837,-1.7357,-1.8886,-2.0493,-2.2021,-2.1965,-2.2343,-2.3218,-2.1886,-2.1074,-2.0794,-2.0237,-1.9802,-1.9407,-1.9802,-2.0053,-2.0259,-2.0989,-2.147,-2.1714,-2.1518,-2.0841,-1.9873,-1.8555,-1.7517,-1.6561,-1.5676,-1.5257,-1.4978,-1.4032,0.0,0.0,0.0,0.0,0.0,0.0,0.0,0.0,0.0,0.0,0.0,0.0,0.0,0.0,0.0,0.0,0.0,0.0,0.0,0.0,0.0,0.0,0.0,0.0,-1.4488,-1.4284,-1.4108,-1.4546,-1.4593,-1.38,-1.4465,-1.4791,-1.4394,-1.4796,-1.5147,-1.5396,-1.5719,-1.596,-1.6328,-1.654,-1.6566,-1.6387,-1.6774,-1.7129,-1.7279,-1.7663,-1.7966,-1.8108,-1.7661,-1.7544,-1.7897,-1.763,-1.7691,0.0,-1.8457,-1.8429,-1.8108,-1.8325,-1.8436,0.0,0.0,0.0,0.0,0.0,-1.7977,-1.7732,0.0,0.0,0.0,0.0,0.0,0.0,0.0,-1.1519,-1.2446,-1.5744,-1.6466,-1.7998,-2.1397,-2.22,-2.2457,-2.2457,-2.0784,-1.927,-1.8228,-1.6572,-1.6849,-1.9595,-1.953,-2.0449,-2.2602,-2.234,-2.2304,-2.2661,-2.225,-2.1678,-2.1071,-2.0688,-2.0281,-1.9756,-2.0053,-2.0358,-2.0599,-2.1351,-2.1732,-2.1799,-2.1889,-2.1439,-2.0577,-1.9306,-1.8602,-1.8043,-1.6592,-1.6325,-1.6494,-1.5023,0.0,0.0,0.0,0.0,0.0,0.0,0.0,0.0,0.0,0.0,0.0,0.0,0.0,0.0,0.0,0.0,0.0,0.0,0.0,0.0,0.0,0.0,0.0,0.0,-1.4937,-1.5308,-1.4584,-1.406,-1.3741,-1.3978,-1.3975,-1.4316,-1.4987,-1.5083,-1.5287,-1.5777,-1.6056,-1.6319,-1.6319,0.0,0.0,0.0,0.0,-1.685,-1.7582,-1.7328,-1.7639,-1.8318,-1.801,-1.801,-1.8318,-1.801,-1.801,-1.8318,-1.7793,-1.7582,-1.7582,-1.7384,-1.7378,-1.766,-1.7709,-1.7688,-1.7572,-1.6536,-1.6821,-1.7813,0.0,0.0,0.0,0.0,0.0,0.0,0.0,-1.127,-1.2095,-1.4951,-1.5779,-1.7145,-1.9921,-2.0726,-2.1107,-2.1107,-1.9658,-1.8353,-1.7391,-1.7938,-1.8561,-1.9293,-2.0274,-2.1349,-2.2485,-2.1998,-2.1977,-2.2456,-2.183,-2.1262,-2.07,-2.0366,-2.0391,-2.0651,-2.083,-2.1118,-2.1572,-2.1992,-2.2173,-2.215,-2.2071,-2.1847,-2.141,-2.0627,-2.0109,-1.9696,-1.9052,-1.8425,-1.7705,-1.6789,-1.5722,-1.4693,-1.4132,0.0,0.0,0.0,0.0,0.0,0.0,0.0,0.0,0.0,0.0,0.0,0.0,0.0,0.0,0.0,0.0,0.0,0.0,0.0,0.0,-1.3413,-1.4253,-1.4771,-1.4584,-1.472,-1.4771,-1.4518,-1.4758,-1.4892,-1.5083,-1.5083,-1.5364,-1.5868,-1.5959,-1.6127,-1.662,-1.6929,0.0,-1.6426,-1.7224,-1.7586,-1.7279,-1.7647,-1.7962,-1.8122,0.0,0.0,-1.7687,-1.6935,-1.7153,-1.8016,-1.7694,-1.7582,-1.7582,-1.7582,-1.7793,-1.8206,-1.838,-1.8464,-1.8352,-1.758,-1.7634,-1.8037,0.0,0.0,0.0,0.0,0.0,0.0,0.0,-1.1132,-1.1715,-1.3898,-1.4654,-1.5788,-1.7908,-1.8789,-1.9141,-1.8909,-1.8004,-1.7216,-1.6671,-1.8138,-1.9482,-2.0601,-2.1295,-2.2009,-2.2795,-2.1971,-2.1805,-2.2285,-2.1526,-2.1019,-2.0775,-2.0621,-2.0731,-2.0995,-2.1226,-2.1399,-2.1651,-2.2103,-2.2199,-2.2056,-2.2254,-2.2184,-2.1824,-2.1014,-2.0666,-2.0443,-1.9861,-1.9323,-1.8754,-1.781,-1.6946,-1.6141,-1.5614,-1.503,-1.434,0.0,0.0,0.0,0.0,0.0,0.0,0.0,0.0,0.0,0.0,0.0,0.0,0.0,0.0,-1.2438,0.0,0.0,-1.3034,-1.3303,-1.4196,-1.4681,-1.4405,-1.4993,-1.5267,-1.4981,-1.4987,-1.5172,-1.5267,-1.5267,-1.5415,-1.5647,-1.6215,-1.6388,-1.609,-1.7048,-1.7087,-1.611,-1.733,-1.7595,-1.6755,-1.7595,-1.7911,-1.7595,-1.716,-1.7259,-1.7799,-1.7371,-1.7371,-1.7799,-1.7694,-1.7477,-1.716,-1.7378,-1.7793,-1.8422,-1.8338,-1.8555,-1.8786,-1.8266,-1.8119,-1.824,0.0,0.0,0.0,0.0,0.0,0.0,0.0,0.0,-1.1353,-1.2837,-1.3435,-1.4369,-1.6061,-1.6917,-1.7155,-1.6615,-1.6559,-1.6491,-1.6318,-1.7996,-1.9889,-2.1845,-2.1732,-2.2005,-2.275,-2.1765,-2.1524,-2.1999,-2.1285,-2.0948,-2.0997,-2.0963,-2.1118,-2.1406,-2.1498,-2.1599,-2.1794,-2.2269,-2.2287,-2.2088,-2.2496,-2.249,-2.2165,-2.1431,-2.1025,-2.0789,-2.0004,-1.9587,-1.9309,-1.8269,-1.7657,-1.7304,-1.6742,-1.6381,-1.5733,-1.3745,-1.3653,0.0,0.0,0.0,0.0,0.0,0.0,0.0,0.0,0.0,-1.3172,-1.3259,-1.2886,-1.275,-1.324,-1.3052,-1.2977,-1.3313,-1.4083,-1.4617,-1.4301,-1.5119,-1.5642,-1.5369,-1.5274,-1.5458,-1.5737,-1.5642,-1.5642,-1.5642,-1.6388,-1.6468,-1.5692,-1.6921,-1.7237,-1.6207,-1.7226,-1.7384,-1.6537,-1.7483,-1.7701,-1.7391,-1.7589,-1.7799,-1.8016,-1.7911,-1.7799,-1.7582,-1.7582,-1.716,-1.673,-1.7173,-1.7806,-1.8422,-1.8331,-1.8555,-1.8912,-1.8809,-1.8519,-1.8345,0.0,0.0,0.0,0.0,0.0,0.0,0.0,0.0,0.0,-1.1913,-1.2453,-1.3424,-1.5144,-1.58,-1.5716,-1.4765,-1.6137,-1.6904,-1.6642,-1.8239,-1.983,-2.1237,-2.0474,-2.0553,-2.1663,-2.0852,-2.0687,-2.1285,-2.1031,-2.1076,-2.1319,-2.073,-2.1185,-2.2424,-2.1826,-2.2051,-2.2848,-2.2903,-2.2892,-2.2848,-2.2903,-2.2966,-2.2856,-2.2557,-2.1735,-2.074,-2.0339,-1.9624,-1.8741,-1.7872,-1.7392,-1.7166,-1.6742,-1.6315,-1.5694,-1.4219,0.0,-1.3771,-1.1783,-1.1848,-1.266,-1.3048,-1.3359,-1.3829,0.0,0.0,-1.3825,-1.4356,-1.3987,-1.3612,-1.3968,-1.3302,-1.2802,-1.3118,-1.3505,-1.3878,-1.4204,-1.4967,-1.5642,-1.6035,-1.613,-1.6218,-1.6494,-1.6218,-1.6123,-1.6123,-1.6022,-1.6091,-1.6175,-1.6632,-1.6942,-1.7045,-1.7232,-1.7384,-1.7477,-1.7582,-1.7694,-1.7911,-1.7911,-1.8016,-1.8016,-1.7799,-1.7582,-1.7582,-1.7384,-1.706,-1.673,-1.7589,-1.8115,-1.8422,-1.8959,-1.9197,-1.9233,-1.8821,-1.8576,-1.8583,0.0,0.0,0.0,0.0,0.0,0.0,0.0,0.0,0.0,0.0,-1.0986,-1.1474,-1.2054,-1.2686,-1.303,-1.2939,-1.4612,-1.601,-1.6898,-1.8902,-2.0742,-2.2302,-2.1738,-2.1654,-2.2104,-2.1305,-2.0981,-2.1336,-2.0967,-2.0823,-2.096,-2.0841,-2.1073,-2.1611,-2.1479,-2.1669,-2.2049,-2.232,-2.2429,-2.2451,-2.2955,-2.315,-2.3128,-2.3088,-2.2424,-2.1527,-2.006,-1.891,0.0,-1.6965,-1.6713,-1.6732,-1.6743,-1.658,-1.5982,-1.4148,-1.3876,0.0,-1.3035,-1.289,0.0,0.0,-1.3965,-1.4194,-1.4562,-1.441,-1.4244,-1.4608,-1.4398,-1.4068,-1.4082,-1.3899,-1.3645,0.0,-1.3964,-1.4339,-1.4433,-1.5081,-1.5635,-1.6109,-1.6218,-1.6312,-1.6581,-1.6211,-1.6096,-1.6272,-1.631,-1.6255,-1.613,-1.6826,-1.7052,-1.6736,-1.7023,-1.7173,-1.7047,-1.7371,-1.7589,-1.749,-1.7813,-1.8016,-1.8016,-1.801,-1.8108,-1.8003,-1.749,-1.7166,-1.7265,-1.7582,-1.8016,-1.8338,-1.8646,-1.8974,-1.9352,-1.9495,-1.9331,-1.8962,0.0,0.0,0.0,0.0,0.0,0.0,0.0,0.0,0.0,0.0,-0.9933,-0.9999,-0.9845,-1.0551,-1.1179,-1.1575,-1.3151,-1.4869,-1.6589,-1.8797,-2.0779,-2.2544,-2.2343,-2.2285,-2.2396,-2.1522,-2.1083,-2.121,-2.0786,-2.0671,-2.0653,-2.0809,-2.0929,-2.1068,-2.1149,-2.1328,-2.1599,-2.1934,-2.2212,-2.2426,-2.308,-2.3298,-2.3361,-2.3154,-2.2639,-2.1701,-1.9831,-1.8508,-1.743,-1.6239,-1.5918,-1.5965,-1.6107,-1.6076,-1.5575,-1.38,-1.3126,-1.308,-1.3219,0.0,0.0,-1.4024,-1.4395,-1.4714,-1.4639,-1.4524,-1.4493,-1.4951,-1.4684,-1.4426,-1.4436,-1.4298,-1.4188,-1.4038,-1.4276,-1.454,-1.4727,-1.5132,-1.554,-1.5906,-1.6015,-1.6218,-1.6581,-1.6211,-1.6048,-1.6441,-1.6468,-1.644,-1.6315,-1.7041,-1.7188,-1.6639,-1.7062,-1.7166,-1.6942,-1.7582,-1.7694,-1.7391,-1.7911,-1.8122,-1.8016,-1.801,-1.8003,-1.7898,-1.7384,-1.7279,-1.7483,-1.7694,-1.7911,-1.8254,-1.8325,-1.8821,-1.9288,-1.9356,-1.9113,-1.885,0.0,0.0,0.0,0.0,0.0,0.0,0.0,0.0,0.0,0.0,0.0,0.0,0.0,-1.0518,-1.1045,-1.0941,-1.2173,-1.3723,-1.5543,-1.7315,-1.9133,-2.0994,-2.125,-2.1538,-2.1901,-2.1046,-2.0653,-2.0733,-2.054,-2.0577,-2.0895,-2.038,-2.0664,-2.1549,-2.109,-2.1407,-2.2291,-2.2302,-2.2648,-2.3276,-2.3287,-2.3446,-2.3548,-2.2839,-2.1923,-2.0826,-1.9933,-1.8841,-1.7639,-1.5853,-1.508,-1.4763,-1.4469,-1.4454,0.0,-1.3056,-1.1738,0.0,0.0,0.0,-1.3348,-1.4024,-1.4887,-1.5598,-1.5906,-1.514,-1.4711,-1.5775,-1.5154,-1.4572,-1.5047,-1.4347,-1.3919,-1.4487,-1.3954,-1.3878,-1.4899,-1.5077,-1.5172,-1.5439,-1.5635,-1.6021,0.0,-1.6312,-1.6436,-1.6919,-1.6558,-1.6526,-1.7108,-1.7148,-1.7281,-1.7562,-1.7575,-1.7582,-1.7582,-1.8108,-1.822,-1.8016,-1.822,-1.822,-1.8016,-1.7496,-1.706,-1.673,-1.706,-1.7179,-1.7285,-1.7806,-1.803,-1.8254,-1.8325,-1.8759,-1.9191,-1.8117,-1.7662,-1.7799,0.0,0.0,0.0,0.0,0.0,0.0,0.0,0.0,0.0,0.0,0.0,0.0,0.0,0.0,0.0,0.0,-1.2178,-1.3375,-1.4731,-1.6543,-1.8108,-1.9269,-1.9983,-2.0274,-2.0109,-2.0214,-2.02,-2.0118,-2.0335,-2.0412,-2.0358,-2.0205,-2.0249,-2.0487,-2.039,-2.0818,-2.1581,-2.1912,-2.2391,-2.3028,-2.3111,-2.3301,-2.347,-2.2235,-2.1526,-2.0812,0.0,-1.7066,-1.5699,0.0,0.0,0.0,-1.3704,0.0,0.0,-1.1206,0.0,0.0,0.0,0.0,-1.4619,-1.5049,-1.5745,-1.6134,-1.5667,-1.5468,-1.544,-1.5669,-1.512,-1.4707,-1.4828,-1.4423,-1.4172,-1.4183,-1.4343,-1.4617,-1.5,-1.5267,-1.5452,-1.5635,-1.5927,0.0,0.0,0.0,0.0,-1.6538,-1.6256,-1.6231,-1.662,-1.7231,-1.7482,-1.7582,-1.7388,-1.7392,-1.7502,-1.7715,-1.7712,-1.7719,-1.7716,-1.7714,-1.749,-1.7285,-1.7067,-1.673,-1.7067,-1.7179,-1.7179,-1.7589,-1.7799,-1.7826,-1.8115,-1.8265,-1.8198,-1.8625,-1.8523,-1.8121,0.0,0.0,0.0,0.0,0.0,0.0,0.0,0.0,0.0,0.0,0.0,0.0,0.0,0.0,0.0,0.0,0.0,0.0,-1.3775,-1.5277,-1.6528,-1.7375,-1.8214,-1.8425,-1.7937,-1.8315,-1.8366,-1.8012,-1.8646,-1.8892,-1.8754,-1.9308,-1.9565,-1.9726,-2.0009,-2.0511,-2.1202,-2.145,-2.1815,-2.2149,-2.2302,-2.2291,-2.2125,-2.093,-2.0161,0.0,-1.7236,-1.5597,-1.4249,0.0,0.0,0.0,0.0,0.0,0.0,0.0,0.0,0.0,0.0,-1.4214,-1.5532,-1.6057,-1.6422,-1.6483,-1.603,-1.5985,-1.6037,-1.6196,-1.5455,-1.4707,-1.475,-1.4345,-1.4029,-1.3769,-1.4163,-1.4582,-1.4981,-1.5145,-1.5311,-1.5609,-1.5927,0.0,0.0,0.0,0.0,-1.6505,-1.6101,-1.6069,-1.6769,-1.7272,-1.7589,-1.7694,-1.7506,-1.7461,-1.7668,-1.767,-1.7673,-1.758,-1.7367,-1.7193,-1.7067,-1.6961,-1.6849,-1.673,-1.6955,-1.7067,-1.7173,-1.7384,-1.755,-1.7676,-1.7855,-1.8081,-1.832,-1.8499,-1.84,-1.8007,0.0,0.0,0.0,0.0,0.0,0.0,0.0,0.0,0.0,0.0,0.0,0.0,0.0,0.0,0.0,0.0,0.0,0.0,-1.2717,-1.3474,-1.4295,-1.5233,-1.5879,-1.5998,-1.5571,-1.5616,-1.5337,-1.4736,-1.5736,-1.6238,-1.6277,-1.7688,-1.8593,-1.9162,-1.9652,-2.0312,-2.0957,-2.0839,-2.0769,-2.0688,-2.0807,-2.0422,-1.9641,-1.8924,-1.7945,-1.6775,-1.5696,-1.4478,0.0,0.0,0.0,0.0,0.0,0.0,0.0,0.0,0.0,-1.3425,-1.4352,-1.5286,-1.6225,-1.6896,-1.6914,-1.669,-1.6885,-1.6475,-1.6286,-1.7054,-1.5786,-1.4494,0.0,0.0,-1.3482,-1.3495,-1.3721,-1.4084,-1.4827,-1.4817,-1.4832,0.0,0.0,0.0,0.0,0.0,0.0,-1.6893,0.0,-1.6049,-1.7423,-1.7272,-1.7384,-1.7911,-1.8003,-1.7956,-1.7974,-1.7953,-1.7858,-1.7579,-1.701,-1.6611,-1.6624,-1.643,-1.6424,-1.6624,-1.6624,-1.6849,-1.7179,-1.7186,-1.7268,-1.7546,-1.7579,-1.8295,-1.9166,-1.7906,-1.7553,-1.7609,0.0,0.0,0.0,0.0,0.0,0.0,0.0,0.0,0.0,0.0,0.0,0.0,0.0,0.0,0.0,0.0,0.0,0.0,-1.118,-1.1965,-1.2459,-1.2473,-1.3478,-1.387,-1.3426,-1.4202,-1.4433,-1.4077,-1.477,-1.5144,-1.5286,-1.5696,-1.6163,-1.6598,-1.6787,-1.7276,-1.7978,-1.8051,-1.8375,-1.8786,-1.8633,-1.862,-1.8475,-1.7117,-1.6222,-1.5654,-1.444,0.0,0.0,0.0,0.0,0.0,0.0,0.0,-1.3646,0.0,0.0,-1.5513,-1.5477,-1.6622,-1.7826,-1.7321,-1.7353,-1.7274,-1.6254,-1.5963,-1.5757,-1.5191,-1.4331,-1.3506,0.0,0.0,0.0,-1.3703,-1.4583,0.0,-1.5844,-1.5805,0.0,0.0,0.0,-1.6238,-1.5932,-1.5454,0.0,0.0,-1.5794,-1.5768,-1.5787,-1.6634,-1.7285,-1.7391,-1.7375,-1.7427,-1.7668,-1.7225,-1.7022,-1.725,-1.6698,-1.6107,-1.5654,-1.6217,-1.6092,-1.5506,-1.6318,-1.6868,-1.7067,-1.6921,-1.6819,-1.6932,-1.7458,-1.7742,-1.7932,-1.7633,-1.7511,-1.7578,0.0,0.0,0.0,0.0,0.0,0.0,0.0,0.0,0.0,0.0,0.0,0.0,0.0,0.0,0.0,0.0,0.0,0.0,0.0,-1.0732,-1.0839,-1.0671,-1.1236,-1.1417,-1.1118,-1.1766,-1.1983,-1.1691,-1.2454,-1.2964,-1.3324,-1.3908,-1.4571,-1.5391,-1.5507,-1.5988,-1.6577,-1.6507,-1.6598,0.0,0.0,-1.6506,-1.6243,-1.531,-1.4621,-1.4109,0.0,0.0,0.0,0.0,0.0,-1.3978,-1.5002,-1.5196,-1.5048,-1.4982,0.0,-1.6708,-1.6531,-1.7391,-1.8194,-1.7787,-1.7636,-1.7288,-1.625,-1.5963,-1.564,-1.4809,-1.3844,0.0,0.0,0.0,0.0,0.0,0.0,0.0,-1.6056,-1.6005,-1.6109,0.0,-1.6501,0.0,-1.6005,-1.5236,-1.4881,0.0,-1.53,-1.5427,-1.5656,-1.6349,-1.6961,-1.7179,-1.7003,-1.6964,-1.7154,-1.6573,-1.6464,-1.6729,-1.6241,-1.5846,-1.5553,-1.6004,-1.5879,-1.5405,0.0,-1.6725,-1.6908,-1.706,-1.6795,-1.6432,-1.6732,-1.708,-1.7499,-1.7529,-1.7473,-1.7602,0.0,0.0,0.0,0.0,0.0,0.0,0.0,0.0,0.0,0.0,0.0,0.0,0.0,0.0,0.0,0.0,0.0,0.0,0.0,0.0,0.0,-0.9643,-0.9377,-0.9248,-0.9177,-0.9291,-0.9216,-0.9016,-0.9776,-1.0485,-1.1062,-1.2122,-1.3214,-1.4325,-1.4735,-1.509,-1.5457,-1.5319,-1.4991,-1.4544,-1.4678,-1.4305,-1.3772,0.0,0.0,0.0,0.0,0.0,0.0,0.0,-1.4269,-1.4937,-1.5829,-1.6295,-1.6425,-1.6455,-1.6838,-1.7274,-1.7461,-1.7652,-1.785,-1.8152,-1.7755,-1.7179,-1.6541,-1.6022,-1.5459,-1.48,0.0,-1.2684,-1.2669,0.0,-1.3695,-1.3286,0.0,-1.5785,-1.5977,-1.5885,-1.6021,-1.685,-1.648,-1.6143,-1.6135,-1.4943,-1.4466,-1.5029,-1.4836,-1.5124,-1.6187,-1.618,-1.6374,-1.6909,-1.6723,-1.6622,-1.6704,-1.6068,-1.5964,-1.6166,-1.5683,-1.5583,-1.5785,-1.5891,-1.5879,-1.5968,-1.6336,0.0,-1.6634,-1.7508,-1.7123,-1.6115,-1.6132,-1.6697,-1.7479,-1.7443,-1.7449,-1.7596,0.0,0.0,0.0,0.0,0.0,0.0,0.0,0.0,0.0,0.0,-0.9723,-1.0004,0.0,0.0,0.0,0.0,0.0,0.0,0.0,0.0,0.0,0.0,-0.9136,-0.9056,-0.9016,0.0,0.0,0.0,0.0,-0.9197,-0.9562,-1.0009,-1.0569,-1.1282,-1.1661,-1.1956,-1.2122,-1.233,-1.2286,-1.2129,-1.2489,-1.2619,-1.2538,0.0,0.0,0.0,0.0,0.0,0.0,0.0,-1.4736,-1.5915,-1.7041,-1.7638,-1.7987,-1.8039,-1.7865,-1.7796,-1.8054,-1.7892,-1.7874,-1.8112,-1.7744,-1.7088,-1.6132,-1.5222,0.0,0.0,0.0,-1.1741,-1.1439,-1.2105,0.0,-1.2969,0.0,0.0,0.0,0.0,-1.6183,0.0,0.0,0.0,0.0,0.0,0.0,0.0,0.0,-1.4906,-1.5968,-1.5575,-1.5461,-1.5774,-1.6206,-1.6405,-1.6362,-1.6037,-1.5819,-1.56,-1.5559,-1.5476,-1.5464,-1.5785,-1.5879,-1.5861,-1.5992,0.0,-1.6215,-1.8232,-1.8437,-1.7322,-1.7224,-1.7341,-1.7455,-1.6982,-1.7163,-1.7572,0.0,0.0,0.0,0.0,0.0,0.0,0.0,-0.8477,-0.845,-0.8437,-0.8745,-0.9251,-0.9965,-1.0133,-1.0088,0.0,0.0,0.0,0.0,0.0,0.0,0.0,0.0,0.0,0.0,0.0,0.0,0.0,0.0,0.0,0.0,0.0,0.0,0.0,0.0,0.0,0.0,-1.114,-1.1377,0.0,0.0,0.0,0.0,0.0,0.0,0.0,0.0,0.0,0.0,0.0,-1.3605,-1.541,-1.7317,-1.7772,-1.7781,-1.8112,-1.7843,-1.7523,-1.7787,-1.7798,-1.772,-1.7991,-1.7867,-1.7242,-1.5842,0.0,0.0,0.0,-1.2006,-1.1711,-1.171,0.0,0.0,0.0,0.0,0.0,0.0,0.0,0.0,0.0,0.0,0.0,0.0,0.0,0.0,0.0,0.0,-1.4573,-1.5258,-1.5018,-1.5082,-1.5493,-1.586,-1.6224,-1.6533,-1.6249,-1.6105,-1.6092,-1.5891,-1.5565,-1.5328,-1.5666,-1.5885,-1.5873,-1.5885,0.0,-1.5868,-1.609,-1.6423,-1.6712,-1.7034,-1.6923,-1.6677,-1.6559,-1.6714,-1.693,0.0,0.0,0.0,0.0,0.0,0.0,0.0,-0.8223,-0.8109,-0.7734,-0.804,-0.8612,-0.9447,-0.9573,-0.9573,0.0,0.0,0.0,0.0,0.0,0.0,0.0,0.0,0.0,0.0,0.0,0.0,0.0,0.0,0.0,0.0,0.0,0.0,0.0,0.0,0.0,0.0,0.0,0.0,0.0,0.0,0.0,0.0,0.0,0.0,0.0,0.0,0.0,0.0,0.0,-1.2236,-1.4154,-1.6387,-1.6836,-1.6726,-1.7393,-1.7144,-1.692,-1.7357,-1.7562,-1.7652,-1.801,-1.7924,-1.7384,-1.5635,-1.4968,0.0,0.0,-1.1996,-1.1844,-1.2171,0.0,0.0,0.0,0.0,0.0,0.0,0.0,0.0,0.0,0.0,0.0,0.0,0.0,0.0,0.0,0.0,0.0,-1.4798,-1.4806,-1.4969,-1.5212,-1.5583,-1.5962,-1.6433,-1.6342,-1.6368,-1.663,-1.6211,-1.5885,-1.5535,-1.5773,-1.5897,-1.5903,-1.5891,0.0,0.0,-1.4391,-1.4653,-1.5969,-1.6444,-1.641,-1.615,-1.6287,-1.644,-1.6523,0.0,0.0,0.0,0.0,0.0,0.0,0.0,-0.8042,-0.7898,-0.7344,-0.7904,-0.828,-0.8028,-0.8576,-0.8938,0.0,0.0,0.0,0.0,0.0,0.0,0.0,0.0,0.0,0.0,0.0,0.0,0.0,0.0,0.0,0.0,0.0,0.0,0.0,0.0,0.0,0.0,0.0,0.0,0.0,0.0,0.0,0.0,0.0,0.0,0.0,0.0,0.0,0.0,0.0,0.0,-1.2253,-1.3561,-1.4637,-1.5428,-1.5854,0.0,0.0,-1.692,-1.7278,-1.7524,-1.8054,-1.7788,-1.7072,-1.5788,0.0,0.0,-1.2467,-1.1872,-1.1718,-1.1977,-1.208,0.0,0.0,0.0,0.0,0.0,0.0,0.0,0.0,0.0,0.0,0.0,0.0,0.0,0.0,0.0,0.0,-1.5029,-1.531,-1.5081,-1.4453,-1.4903,-1.536,-1.5603,-1.5842,-1.6082,-1.6324,-1.6443,-1.6455,-1.6361,-1.601,-1.591,-1.594,-1.5885,0.0,0.0,-1.5702,-1.5748,-1.5934,-1.6338,-1.6616,-1.687,-1.6495,-1.6628,-1.6984,0.0,0.0,0.0,0.0,0.0,0.0,-0.7831,-0.785,-0.7734,-0.7166,-0.7222,-0.741,-0.7663,-0.7671,-0.7874,-0.8437,0.0,0.0,0.0,0.0,0.0,0.0,0.0,0.0,0.0,0.0,0.0,0.0,0.0,0.0,0.0,0.0,0.0,0.0,0.0,0.0,0.0,0.0,0.0,0.0,0.0,0.0,0.0,0.0,0.0,0.0,0.0,0.0,0.0,0.0,0.0,0.0,-1.1997,-1.2415,0.0,0.0,-1.5196,-1.5428,-1.6451,-1.7131,-1.7629,-1.7921,-1.7577,-1.6721,-1.5316,0.0,0.0,-1.2248,-1.1966,-1.2141,-1.2402,-1.2167,-1.1992,-1.2431,0.0,0.0,0.0,0.0,0.0,0.0,0.0,0.0,0.0,0.0,0.0,0.0,0.0,0.0,-1.5537,-1.4906,-1.4576,-1.4564,-1.4721,-1.5008,-1.5218,-1.5856,-1.6179,-1.6181,-1.6836,-1.6932,-1.658,-1.5435,-1.5221,-1.5916,-1.5885,0.0,0.0,-1.5565,-1.5875,-1.5922,-1.6072,-1.6278,-1.6579,-1.6362,-1.6525,-1.6827,0.0,0.0,0.0,0.0,0.0,-0.7957,-0.7598,-0.7618,-0.7462,-0.6897,-0.6727,-0.6794,-0.7171,-0.6934,-0.7038,-0.7699,-0.7741,0.0,0.0,0.0,0.0,0.0,0.0,0.0,0.0,0.0,-0.778,-0.7712,-0.7587,0.0,0.0,0.0,0.0,0.0,0.0,0.0,0.0,0.0,0.0,0.0,0.0,0.0,0.0,0.0,0.0,0.0,0.0,0.0,0.0,0.0,0.0,0.0,0.0,0.0,0.0,0.0,-1.4057,-1.459,-1.5416,-1.6474,-1.7351,-1.7373,-1.6949,-1.6127,0.0,0.0,0.0,-1.2126,-1.2069,-1.2299,-1.2728,-1.2415,-1.2305,-1.2714,0.0,-1.2485,0.0,0.0,0.0,0.0,0.0,0.0,0.0,0.0,0.0,0.0,0.0,0.0,0.0,-1.46,-1.4214,-1.4502,-1.4382,-1.4514,-1.4894,-1.5657,-1.6041,-1.6012,-1.6897,-1.7045,-1.6461,-1.5215,-1.4877,-1.5125,0.0,0.0,0.0,-1.5415,-1.5929,-1.5658,-1.6006,-1.629,-1.663,-1.6435,-1.6579,-1.6803,0.0,0.0,0.0,0.0,0.0,0.0,-0.7255,-0.7275,-0.7089,-0.6474,-0.6642,-0.6673,-0.6362,-0.6529,-0.6607,-0.642,-0.6598,0.0,0.0,0.0,0.0,0.0,0.0,0.0,0.0,0.0,-0.7335,-0.7216,-0.7216,-0.7125,-0.7021,-0.7125,0.0,0.0,0.0,0.0,0.0,0.0,0.0,0.0,0.0,0.0,0.0,0.0,0.0,0.0,0.0,0.0,0.0,0.0,0.0,0.0,0.0,0.0,0.0,0.0,-1.2212,-1.3255,-1.3797,-1.5145,-1.6394,-1.6147,-1.5792,-1.528,0.0,0.0,0.0,-1.2301,-1.2123,-1.2167,-1.2598,-1.2861,-1.2969,-1.2848,-1.2661,0.0,0.0,0.0,0.0,0.0,0.0,0.0,0.0,0.0,0.0,0.0,0.0,0.0,0.0,-1.4592,-1.4406,-1.3931,-1.3642,-1.3757,-1.4388,-1.4867,-1.5444,-1.6012,-1.643,-1.6468,-1.5922,-1.5897,-1.4905,0.0,0.0,0.0,0.0,-1.5252,-1.5828,-1.5093,-1.6245,-1.6857,-1.705,-1.6791,-1.6863,-1.705,0.0,0.0,0.0,0.0,0.0,0.0,0.0,-0.6609,-0.6419,-0.6052,-0.5987,-0.6027,-0.6219,-0.6224,-0.6286,-0.6471,-0.6543,0.0,0.0,0.0,0.0,0.0,0.0,0.0,0.0,-0.6908,-0.6847,-0.6999,-0.6921,-0.6836,-0.6787,-0.6836,-0.6787,0.0,0.0,0.0,0.0,0.0,0.0,0.0,0.0,0.0,0.0,0.0,0.0,0.0,0.0,0.0,0.0,0.0,0.0,0.0,0.0,0.0,0.0,-1.04,0.0,0.0,-1.3005,-1.3841,-1.4661,-1.4973,-1.4605,-1.4155,-1.3754,0.0,0.0,-1.1904,-1.1891,-1.2029,-1.2166,-1.2276,-1.2373,-1.2533,-1.2402,0.0,0.0,0.0,0.0,0.0,0.0,0.0,0.0,0.0,0.0,0.0,0.0,0.0,0.0,-1.5064,-1.4406,-1.3931,-1.3443,-1.3283,-1.355,-1.4477,-1.4838,-1.4812,-1.6138,-1.638,-1.5833,-1.512,0.0,0.0,0.0,0.0,0.0,-1.4954,-1.5291,-1.4309,-1.6028,-1.6857,-1.708,-1.6996,-1.7135,-1.7346,0.0,0.0,0.0,0.0,0.0,0.0,0.0,-0.5991,-0.5836,-0.5578,-0.5421,-0.5458,-0.5821,-0.571,-0.5726,-0.6062,-0.5964,0.0,0.0,0.0,0.0,0.0,0.0,0.0,-0.66,-0.6527,-0.6551,-0.6617,-0.6617,-0.6575,-0.6496,-0.6496,-0.6489,-0.6398,-0.6568,-0.6748,0.0,0.0,0.0,0.0,0.0,0.0,-0.854,0.0,0.0,0.0,0.0,0.0,0.0,0.0,0.0,0.0,0.0,0.0,0.0,0.0,-1.0555,0.0,0.0,-1.2566,-1.3228,-1.3422,-1.3222,0.0,0.0,0.0,0.0,0.0,0.0,0.0,-1.2197,-1.235,-1.251,-1.2512,0.0,0.0,0.0,0.0,0.0,0.0,0.0,0.0,0.0,0.0,0.0,0.0,0.0,0.0,0.0,-1.5439,-1.4688,-1.4214,-1.3539,-1.3385,-1.3573,-1.4171,-1.4412,-1.4287,-1.5704,-1.626,-1.5839,-1.4674,0.0,0.0,0.0,0.0,0.0,-1.5133,-1.5462,-1.4466,-1.62,-1.6869,-1.7012,-1.7012,-1.7113,-1.7367,0.0,0.0,0.0,0.0,0.0,0.0,0.0,-0.5463,-0.5338,-0.5099,-0.4947,-0.4953,-0.5214,-0.5049,-0.5023,-0.5322,0.0,0.0,0.0,0.0,0.0,0.0,0.0,0.0,-0.6206,-0.6363,-0.635,-0.6155,-0.6386,-0.6392,-0.6184,-0.6184,-0.6184,-0.6184,-0.6184,-0.6288,-0.6434,-0.7167,-0.7652,-0.7936,-0.8109,-0.8168,0.0,0.0,0.0,0.0,0.0,0.0,0.0,0.0,0.0,0.0,0.0,0.0,0.0,0.0,0.0,0.0,0.0,0.0,0.0,0.0,0.0,0.0,0.0,0.0,0.0,0.0,0.0,0.0,0.0,0.0,0.0,0.0,0.0,0.0,0.0,0.0,0.0,0.0,0.0,0.0,0.0,0.0,0.0,0.0,0.0,0.0,0.0,-1.5717,-1.5153,-1.479,-1.3919,-1.3848,-1.4394,-1.4021,-1.4031,-1.4337,-1.5405,-1.5903,-1.5702,-1.477,0.0,0.0,0.0,0.0,0.0,-1.5543,-1.5983,-1.5324,-1.6529,-1.6997,-1.6997,-1.702,-1.702,-1.702,0.0,0.0,0.0,0.0,0.0,0.0,0.0,0.0,0.0,0.0,-0.4543,-0.4543,-0.4608,-0.4794,-0.4852,0.0,0.0,0.0,0.0,0.0,0.0,0.0,0.0,0.0,-0.5294,-0.5621,-0.5821,-0.5803,-0.6127,-0.6184,-0.6062,-0.6062,-0.597,-0.5879,-0.6013,-0.6171,-0.6417,-0.6819,-0.7112,-0.7383,-0.7582,-0.7681,0.0,0.0,0.0,0.0,-0.8362,-0.8626,0.0,0.0,0.0,0.0,0.0,0.0,0.0,0.0,-0.9926,-0.9829,-0.9764,0.0,-1.0182,-1.0573,-1.0704,-1.0923,0.0,0.0,0.0,0.0,0.0,0.0,0.0,0.0,0.0,0.0,0.0,0.0,0.0,0.0,0.0,0.0,0.0,0.0,0.0,0.0,0.0,0.0,0.0,0.0,0.0,-1.573,-1.5356,-1.4987,-1.44,-1.4328,-1.4586,-1.4329,-1.4185,-1.427,-1.5376,-1.5417,-1.4618,-1.4759,0.0,0.0,0.0,0.0,-1.3272,-1.4096,-1.4564,-1.4841,-1.5966,-1.6727,-1.7098,-1.7067,-1.7138,-1.7367,0.0,0.0,0.0,0.0,0.0,0.0,0.0,0.0,0.0,0.0,0.0,-0.4221,-0.4382,-0.4479,0.0,0.0,0.0,0.0,0.0,0.0,0.0,0.0,0.0,-0.473,-0.4871,-0.5274,-0.55,-0.551,-0.5929,-0.6056,-0.5927,-0.589,-0.5841,-0.5787,-0.5884,-0.5962,-0.6113,-0.6607,-0.689,-0.7057,-0.7372,0.0,0.0,0.0,0.0,0.0,-0.8162,-0.8421,0.0,-0.8931,-0.918,-0.9424,0.0,0.0,0.0,0.0,-0.9862,-0.974,-0.9548,-0.9484,-0.9612,-0.9989,-1.0296,-1.0626,-1.0778,0.0,0.0,0.0,0.0,0.0,0.0,0.0,0.0,0.0,0.0,0.0,0.0,0.0,0.0,0.0,0.0,0.0,0.0,0.0,0.0,0.0,0.0,0.0,0.0,-1.5475,-1.507,-1.5083,-1.4592,-1.4582,-1.5065,-1.4719,-1.4824,-1.5407,-1.4199,-1.3597,-1.3422,-1.4212,-1.4467,0.0,0.0,0.0,-1.4055,-1.3938,-1.4228,-1.506,-1.5674,-1.6166,-1.6426,-1.6575,-1.6667,-1.6903,0.0,0.0,0.0,0.0,0.0,0.0,0.0,0.0,0.0,0.0,0.0,0.0,0.0,0.0,0.0,0.0,0.0,0.0,0.0,0.0,0.0,0.0,-0.4517,-0.4548,-0.4642,-0.5077,-0.5295,-0.5214,-0.5744,-0.5884,-0.5707,-0.5712,-0.5707,-0.5707,-0.5707,-0.5712,-0.5707,-0.6409,-0.6713,-0.6758,-0.7211,0.0,0.0,0.0,0.0,0.0,0.0,0.0,0.0,-0.8646,-0.8998,-0.9341,-0.9356,0.0,0.0,0.0,0.0,0.0,-0.9612,-0.9602,-0.9716,-0.9887,-1.0244,-1.0618,-1.0491,0.0,0.0,0.0,0.0,0.0,0.0,0.0,0.0,0.0,0.0,0.0,0.0,0.0,0.0,0.0,0.0,0.0,0.0,0.0,0.0,0.0,0.0,0.0,0.0,-1.4823,-1.4592,-1.4885,-1.4437,-1.4594,-1.5285,-1.5017,-1.539,-1.6443,-1.3041,-1.1818,-1.25,-1.3562,-1.4166,-1.4338,0.0,0.0,-1.5007,-1.4189,-1.4456,-1.5316,-1.5549,-1.5665,-1.5848,-1.5987,-1.6177,-1.6256,0.0,0.0,0.0,0.0,0.0,0.0,0.0,0.0,0.0,0.0,0.0,0.0,0.0,0.0,0.0,0.0,0.0,0.0,0.0,0.0,0.0,-0.442,-0.4415,-0.4399,-0.4367,-0.4779,-0.4931,-0.4875,-0.5536,-0.5669,-0.5376,-0.571,-0.5694,-0.5371,-0.5371,-0.5453,-0.5566,-0.6081,-0.6336,-0.6482,-0.6849,0.0,0.0,0.0,0.0,0.0,0.0,0.0,0.0,-0.8368,-0.8728,-0.9069,-0.917,0.0,0.0,0.0,0.0,0.0,-0.974,-1.0139,-1.0516,-1.0418,-1.0555,-1.087,-1.1115,0.0,0.0,0.0,0.0,0.0,0.0,0.0,0.0,0.0,0.0,0.0,0.0,0.0,0.0,0.0,0.0,0.0,0.0,0.0,0.0,0.0,0.0,0.0,0.0,-1.3957,-1.3709,-1.3709,-1.3929,-1.409,-1.448,-1.47,-1.4985,-1.5235,-1.3709,-1.2944,-1.2961,-1.3444,-1.366,-1.3669,0.0,-1.3397,-1.4181,-1.3397,-1.3857,-1.5066,-1.5074,-1.5407,-1.6085,-1.611,-1.6294,-1.6535,0.0,0.0,0.0,0.0,0.0,0.0,0.0,0.0,0.0,0.0,0.0,0.0,0.0,0.0,0.0,0.0,0.0,0.0,0.0,0.0,-0.4382,-0.435,-0.4285,-0.4285,-0.4368,-0.4684,-0.4883,-0.4922,-0.5334,-0.541,-0.5241,-0.5351,-0.5252,-0.5019,-0.5198,-0.5301,-0.5435,-0.5901,-0.6214,-0.6354,0.0,0.0,0.0,0.0,0.0,0.0,0.0,0.0,0.0,0.0,-0.8674,-0.9019,-0.9061,0.0,0.0,0.0,0.0,0.0,-0.9644,-1.0194,-1.0712,-1.1081,-1.1539,-1.2053,-1.2258,0.0,0.0,0.0,0.0,0.0,0.0,0.0,0.0,0.0,0.0,0.0,0.0,0.0,0.0,0.0,0.0,0.0,0.0,0.0,0.0,0.0,0.0,0.0,0.0,0.0,-1.3094,-1.3417,-1.3336,-1.3467,-1.3827,-1.4057,-1.4311,-1.4585,-1.368,-1.3028,-1.2749,-1.3378,-1.3655,-1.3628,0.0,-1.3441,-1.4293,-1.3297,-1.3598,-1.4598,-1.4606,-1.4874,-1.5225,-1.5588,-1.5949,-1.6392,0.0,0.0,0.0,0.0,0.0,0.0,0.0,0.0,0.0,0.0,0.0,0.0,0.0,0.0,0.0,0.0,0.0,0.0,0.0,-0.4253,-0.4312,-0.4312,-0.4188,-0.4179,-0.431,-0.4541,-0.4696,-0.4828,-0.5065,-0.5179,-0.509,-0.496,-0.4849,-0.4757,-0.4975,-0.5133,-0.5348,-0.5808,-0.6122,-0.6339,0.0,0.0,0.0,0.0,0.0,0.0,0.0,0.0,0.0,0.0,0.0,0.0,0.0,0.0,0.0,-0.9342,-0.929,-0.9162,-0.9532,-1.0148,-1.0897,-1.1551,-1.2179,0.0,0.0,0.0,0.0,0.0,0.0,0.0,0.0,0.0,0.0,0.0,0.0,0.0,0.0,0.0,0.0,0.0,0.0,0.0,0.0,0.0,0.0,0.0,0.0,0.0,0.0,0.0,-1.2475,-1.2993,-1.2846,-1.296,-1.3351,-1.3541,-1.3667,-1.3722,-1.3413,-1.2871,-1.2422,-1.3197,-1.3629,-1.3558,-1.3282,-1.3629,-1.4329,-1.3495,-1.3676,-1.4293,-1.4466,-1.4568,-1.4744,-1.5205,-1.5698,-1.6139,0.0,0.0,0.0,0.0,0.0,0.0,0.0,0.0,0.0,0.0,0.0,0.0,0.0,0.0,0.0,0.0,0.0,0.0,0.0,-0.4382,-0.4382,-0.4382,-0.4194,-0.4106,-0.4122,-0.4133,-0.4204,-0.4342,-0.4656,-0.4852,-0.4839,-0.4706,-0.4578,-0.4543,-0.4622,-0.4906,-0.5348,-0.5755,-0.6072,-0.6339,-0.6615,0.0,0.0,0.0,0.0,0.0,0.0,0.0,0.0,0.0,0.0,0.0,0.0,0.0,-0.8927,-0.9279,-0.9304,-0.9252,-0.9531,-1.0376,-1.1297,-1.1746,-1.1768,0.0,-1.2627,-1.2742,0.0,-1.2659,0.0,0.0,0.0,0.0,0.0,0.0,0.0,0.0,0.0,0.0,0.0,0.0,0.0,0.0,0.0,0.0,0.0,0.0,0.0,0.0,0.0,0.0,0.0,-1.2013,-1.2521,-1.2946,-1.3388,-1.3516,-1.329,-1.2502,-1.2758,-1.2767,-1.2436,-1.2985,-1.3325,-1.334,-1.3872,-1.4202,-1.4218,-1.4094,-1.4206,-1.4514,-1.453,-1.4782,-1.5288,-1.5404,-1.5545,-1.5846,0.0,0.0,0.0,0.0,0.0,0.0,0.0,0.0,0.0,0.0,0.0,0.0,0.0,0.0,0.0,0.0,0.0,0.0,0.0,-0.4285,-0.4285,-0.4226,-0.413,-0.4064,-0.4029,-0.413,-0.4283,-0.4486,-0.4509,-0.4441,-0.4382,-0.422,-0.4188,-0.4244,-0.4574,-0.4866,-0.5158,-0.5653,-0.6019,-0.6275,-0.646,-0.6657,0.0,0.0,0.0,0.0,0.0,0.0,0.0,0.0,-0.8055,-0.8318,-0.8588,-0.8667,-0.8741,-0.9151,-0.9186,-0.913,-0.9399,-1.0296,-1.1252,-1.1324,-1.1701,0.0,0.0,-1.4037,-1.4035,-1.3368,-1.3575,0.0,0.0,0.0,0.0,0.0,0.0,0.0,0.0,0.0,0.0,0.0,0.0,0.0,0.0,0.0,0.0,0.0,0.0,0.0,0.0,0.0,0.0,-1.1501,-1.189,-1.224,-1.2452,-1.3128,-1.3133,-1.2559,-1.2591,-1.255,-1.2441,-1.2985,-1.3207,-1.3098,-1.3645,-1.3862,-1.3862,-1.3862,-1.4023,-1.4326,-1.4532,-1.48,-1.5096,-1.5332,-1.5617,-1.5923,0.0,0.0,0.0,0.0,0.0,0.0,0.0,0.0,0.0,0.0,0.0,0.0,0.0,0.0,0.0,0.0,0.0,0.0,-0.3896,-0.4086,-0.4118,-0.4026,-0.4,-0.3966,-0.3958,-0.4042,-0.4185,-0.4401,-0.42,-0.4012,-0.3888,-0.3836,-0.3924,-0.4068,-0.4596,-0.497,-0.5121,-0.577,-0.6139,-0.6228,-0.644,-0.6652,0.0,0.0,0.0,0.0,0.0,0.0,0.0,0.0,-0.7996,-0.8306,-0.8543,-0.8635,-0.8725,-0.9038,-0.9287,-0.9484,-0.9596,-1.0509,-1.1474,-1.1539,0.0,0.0,-1.4004,-1.4667,-1.4872,-1.4312,-1.4344,0.0,0.0,0.0,0.0,0.0,0.0,0.0,0.0,0.0,0.0,0.0,0.0,0.0,0.0,0.0,0.0,0.0,0.0,0.0,0.0,0.0,0.0,0.0,-1.1304,-1.1531,-1.1907,-1.2541,-1.2866,-1.2777,-1.2238,-1.2201,-1.255,-1.2989,-1.3098,-1.2881,-1.3423,-1.3753,-1.3753,-1.3862,-1.3975,-1.4196,-1.4504,-1.4713,-1.5041,-1.5369,-1.569,-1.5891,0.0,0.0,0.0,0.0,0.0,0.0,0.0,0.0,0.0,0.0,0.0,0.0,0.0,0.0,0.0,0.0,0.0,0.0,-0.3672,-0.3831,-0.3891,-0.3891,-0.3759,-0.3744,-0.3898,-0.3838,-0.3847,-0.3979,-0.3799,-0.3612,-0.3398,-0.3612,-0.3788,-0.3932,-0.4679,-0.5108,-0.5363,-0.6076,-0.6302,-0.6232,-0.6544,-0.6701,-0.6701,0.0,0.0,0.0,0.0,0.0,0.0,0.0,-0.8109,-0.8421,-0.8573,-0.8692,-0.8804,-0.8956,-0.9693,-1.0451,-1.0179,-1.0988,-1.2077,0.0,0.0,0.0,-1.3851,-1.4388,-1.4801,-1.5286,0.0,-1.4699,0.0,0.0,0.0,0.0,0.0,0.0,0.0,0.0,0.0,0.0,0.0,0.0,0.0,0.0,0.0,0.0,0.0,0.0,0.0,0.0,0.0,0.0,-1.0593,-1.0861,-1.199,-1.2006,-1.2441,-1.33,-1.1791,-1.1709,-1.2881,-1.2876,-1.2876,-1.2881,-1.3423,-1.3753,-1.3753,-1.4083,-1.4196,-1.4196,-1.4504,-1.4821,-1.5041,-1.5369,-1.5684,-1.5891,0.0,0.0,0.0,0.0,0.0,0.0,0.0,0.0,0.0,0.0,0.0,0.0,0.0,0.0,0.0,0.0,0.0,0.0,-0.341,-0.3639,-0.3733,-0.363,-0.3814,-0.3872,-0.3778,-0.3746,-0.3724,-0.3731,-0.3723,-0.3612,-0.3398,-0.3439,-0.3571,-0.3796,-0.4596,-0.497,-0.5067,-0.5974,-0.6345,-0.6386,-0.6593,-0.6761,-0.682,0.0,0.0,0.0,0.0,0.0,0.0,0.0,0.0,0.0,-0.8527,-0.8844,-0.9113,-0.9113,-0.9496,-0.9846,-0.9792,-1.0981,0.0,0.0,0.0,0.0,0.0,-1.4751,0.0,0.0,0.0,0.0,0.0,0.0,0.0,0.0,0.0,0.0,0.0,0.0,0.0,0.0,0.0,0.0,0.0,0.0,0.0,0.0,0.0,0.0,0.0,0.0,0.0,0.0,-0.9907,-1.0575,-1.2018,-1.224,-1.2437,-1.2622,-1.2273,-1.2394,-1.2876,-1.2178,-1.2084,-1.255,-1.3207,-1.3423,-1.3423,-1.3975,-1.4196,-1.4299,-1.4719,-1.4928,-1.5035,-1.5577,-1.5785,-1.5891,0.0,0.0,0.0,0.0,0.0,0.0,0.0,0.0,0.0,0.0,-0.0841,-0.1043,0.0,0.0,0.0,0.0,0.0,0.0,-0.3169,-0.3458,-0.3564,-0.338,-0.3729,-0.3878,-0.3789,-0.3734,-0.3612,-0.3442,-0.3435,-0.3391,-0.3306,-0.3262,-0.3435,-0.3796,-0.4554,-0.4841,-0.4864,-0.5748,-0.6169,-0.626,-0.6468,-0.6684,-0.6879,0.0,0.0,0.0,0.0,0.0,0.0,0.0,0.0,0.0,-0.8474,-0.8791,-0.9155,-0.9289,-0.9785,-1.0337,-1.0566,0.0,0.0,0.0,0.0,0.0,0.0,0.0,0.0,0.0,0.0,0.0,0.0,0.0,0.0,0.0,0.0,0.0,0.0,0.0,0.0,0.0,0.0,0.0,0.0,0.0,0.0,0.0,0.0,0.0,0.0,0.0,0.0,0.0,-0.9598,-1.0349,-1.188,-1.242,-1.2511,-1.2253,-1.1906,-1.2145,-1.2754,-1.2056,-1.1995,-1.2436,-1.2989,-1.3428,-1.3645,-1.4186,-1.4401,-1.4401,-1.4939,-1.5154,-1.5256,-1.5678,-1.5891,-1.5891,0.0,0.0,0.0,0.0,0.0,0.0,0.0,0.0,0.0,0.0,-0.061,-0.0883,0.0,0.0,0.0,0.0,0.0,0.0,0.0,-0.3282,-0.3401,-0.3201,-0.3552,-0.3799,-0.3877,-0.3744,-0.3524,-0.3214,-0.3078,-0.3078,-0.3214,-0.3078,-0.3398,-0.3995,-0.4542,-0.4722,-0.4773,-0.55,-0.5907,-0.6014,-0.6221,-0.6513,-0.6825,-0.6495,0.0,0.0,0.0,0.0,0.0,0.0,0.0,0.0,-0.8474,-0.8692,-0.9064,-0.9432,-1.0372,-1.1376,-1.1891,0.0,0.0,0.0,0.0,0.0,0.0,0.0,0.0,0.0,0.0,0.0,0.0,0.0,0.0,0.0,0.0,0.0,0.0,0.0,0.0,0.0,0.0,0.0,0.0,0.0,0.0,0.0,0.0,0.0,0.0,0.0,0.0,-0.9608,-0.9596,-1.0181,-1.1409,-1.2128,-1.2314,-1.1966,-1.1193,-1.1415,-1.2519,-1.2397,-1.2403,-1.2545,-1.3098,-1.363,-1.4164,-1.4493,-1.4578,-1.4652,-1.5244,-1.547,-1.5446,-1.5779,-1.5891,-1.5885,0.0,0.0,0.0,0.0,0.0,0.0,0.0,0.0,0.0,0.0,0.0,0.0,0.0,0.0,0.0,0.0,0.0,0.0,0.0,-0.3127,-0.3282,-0.3282,-0.3475,-0.363,-0.3741,-0.3663,-0.353,-0.335,-0.3214,-0.317,-0.3214,-0.3262,-0.3808,-0.4696,-0.4557,-0.4855,-0.5471,-0.5349,-0.5566,-0.6019,-0.6066,-0.625,-0.6495,-0.6337,-0.644,0.0,0.0,0.0,0.0,0.0,0.0,0.0,-0.8639,-0.8903,-0.9134,-0.9112,-0.9695,-1.035,0.0,-1.2174,0.0,0.0,0.0,0.0,0.0,0.0,0.0,0.0,0.0,0.0,0.0,0.0,0.0,0.0,0.0,0.0,0.0,0.0,0.0,0.0,0.0,0.0,0.0,0.0,0.0,0.0,0.0,0.0,0.0,0.0,0.0,-0.9592,-0.9602,-0.931,-0.8817,-1.0162,-1.0501,0.0,-1.0994,-1.1611,-1.1763,-1.1539,-1.2018,-1.3098,-1.3423,-1.3756,-1.3911,-1.4415,-1.4479,-1.4372,-1.4881,-1.5134,-1.5188,-1.5506,-1.5903,-1.6187,0.0,0.0,0.0,0.0,0.0,0.0,0.0,0.0,0.0,0.0,0.0,0.0,0.0,0.0,0.0,0.0,0.0,0.0,0.0,0.0,-0.3296,-0.3502,-0.3546,-0.367,-0.388,-0.3748,-0.3619,-0.349,-0.3442,-0.3483,-0.3653,-0.3778,-0.413,-0.4677,-0.4628,-0.4687,-0.4823,-0.4765,-0.5142,-0.5765,-0.5916,-0.6157,-0.6381,-0.6332,-0.6386,-0.6598,-0.6761,0.0,0.0,0.0,0.0,0.0,0.0,0.0,-0.901,-0.9138,-0.9501,-1.0017,0.0,0.0,0.0,0.0,0.0,0.0,0.0,0.0,0.0,0.0,0.0,0.0,0.0,0.0,0.0,0.0,0.0,0.0,0.0,0.0,0.0,0.0,0.0,0.0,0.0,0.0,0.0,0.0,0.0,0.0,0.0,-0.8653,-0.9283,-1.036,-1.0338,-1.0075,-0.9563,-1.0354,-1.0519,-1.0141,-1.1157,-1.1817,-1.2018,-1.1822,-1.2399,-1.3367,-1.3367,-1.3614,-1.403,-1.446,-1.4619,-1.4508,-1.489,-1.5192,-1.5285,-1.5204,-1.5497,-1.599,0.0,0.0,0.0,0.0,0.0,0.0,0.0,0.0,0.0,0.0,0.0,0.0,0.0,0.0,0.0,0.0,0.0,0.0,0.0,0.0,0.0,-0.3697,-0.3663,-0.3799,-0.4064,-0.388,-0.3704,-0.3622,-0.3622,-0.3836,-0.4268,-0.4313,-0.4475,-0.4732,-0.4936,-0.4734,-0.428,-0.45,-0.493,-0.5507,-0.5755,-0.6037,-0.6327,-0.6332,-0.6381,-0.649,-0.6825,-0.7252,-0.767,-0.7895,0.0,0.0,0.0,0.0,-0.8804,-0.9225,-0.943,-0.9939,0.0,0.0,0.0,0.0,0.0,0.0,0.0,0.0,0.0,0.0,0.0,0.0,0.0,0.0,0.0,0.0,0.0,0.0,0.0,0.0,0.0,0.0,0.0,0.0,0.0,0.0,0.0,0.0,0.0,0.0,-0.8044,-0.8671,-0.9565,-1.0896,-1.1316,-1.1419,-1.1203,-1.0956,-1.0856,-1.0804,-1.135,-1.1986,-1.2734,-1.2601,-1.2856,-1.3341,-1.3272,-1.3561,-1.421,-1.4561,-1.4743,-1.4678,-1.4916,-1.5179,-1.5305,-1.4824,-1.5209,-1.5774,0.0,0.0,0.0,0.0,0.0,0.0,0.0,0.0,0.0,0.0,0.0042,-0.0254,0.0,0.0,0.0,0.0,0.0,0.0,0.0,0.0,0.0,-0.3697,-0.3792,-0.3884,-0.3928,-0.4016,-0.3928,-0.37,-0.3792,-0.4228,-0.4879,-0.4674,-0.5072,-0.6033,-0.5818,-0.5726,-0.5615,-0.5649,-0.5548,-0.5362,-0.5607,-0.5843,-0.6059,-0.6173,-0.6386,-0.6701,-0.7095,-0.7365,-0.7574,-0.8002,-0.8168,0.0,0.0,0.0,0.0,-0.8929,-0.9317,-0.97,0.0,0.0,0.0,0.0,0.0,0.0,0.0,0.0,0.0,0.0,0.0,0.0,0.0,0.0,0.0,0.0,0.0,0.0,0.0,0.0,0.0,0.0,0.0,0.0,0.0,0.0,0.0,0.0,0.0,0.0,-0.8265,-0.9312,-0.9795,-0.9797,-1.1661,-1.2103,-1.1236,-1.0314,-0.9697,-0.9368,-1.1276,-1.2496,-1.299,-1.2946,-1.2975,-1.3111,-1.3733,-1.4001,-1.3919,-1.4511,-1.473,-1.4673,-1.4669,-1.4711,-1.4765,-1.4654,-1.5053,-1.5427,0.0,0.0,0.0,0.0,0.0,0.0,0.0,0.0,0.0,0.0,0.0,-0.0176,0.0,0.0,0.0,0.0,0.0,0.0,0.0,0.0,0.0,-0.3788,-0.3928,-0.41,-0.4272,-0.4324,-0.4236,-0.4052,-0.4016,-0.4373,-0.5101,-0.5123,-0.5491,-0.6186,-0.6395,-0.6146,-0.5599,-0.6024,-0.5862,-0.5349,-0.5958,-0.6004,-0.5789,-0.6308,-0.636,-0.6354,-0.7023,-0.7311,-0.7473,-0.7901,-0.8105,-0.8257,-0.8372,0.0,0.0,0.0,0.0,0.0,0.0,0.0,0.0,0.0,0.0,0.0,0.0,0.0,0.0,0.0,0.0,0.0,0.0,0.0,0.0,0.0,0.0,0.0,0.0,0.0,0.0,0.0,0.0,0.0,0.0,0.0,0.0,0.0,0.0,-0.8153,-0.8558,-0.8775,-0.9401,-1.0496,-1.1384,-1.1701,-1.1212,-1.0596,-1.0233,-1.0328,-1.1657,-1.2324,-1.2617,-1.3069,-1.3273,-1.3275,-1.3479,-1.3631,-1.3905,-1.4266,-1.4418,-1.4262,-1.4365,-1.4482,-1.4495,-1.4303,-1.4648,-1.5193,0.0,0.0,0.0,0.0,0.0,0.0,0.0,0.0,0.0,0.0,0.0,0.0,0.0,0.0,0.0,0.0,0.0,0.0,0.0,0.0,0.0,-0.3968,-0.4148,-0.4324,-0.4661,-0.4583,-0.4451,-0.4316,-0.4192,-0.4434,-0.4979,-0.5234,-0.5558,-0.5992,-0.6806,-0.6625,-0.572,-0.6525,-0.6304,-0.5483,-0.6425,-0.636,-0.5796,-0.6552,-0.6542,-0.6323,-0.7043,-0.7328,-0.7367,-0.762,-0.7919,-0.8153,-0.817,0.0,0.0,0.0,0.0,0.0,0.0,0.0,0.0,0.0,0.0,0.0,0.0,0.0,0.0,0.0,0.0,0.0,0.0,0.0,0.0,0.0,0.0,0.0,0.0,0.0,0.0,0.0,0.0,0.0,0.0,0.0,0.0,0.0,0.0,-0.8304,-0.876,-0.8579,-0.9168,-1.071,-1.1053,-1.1153,-1.1194,-1.1152,-1.1175,-1.1373,-1.1904,-1.2235,-1.2404,-1.2929,-1.3273,-1.3475,-1.3367,-1.3595,-1.3999,-1.4261,-1.4213,-1.4066,-1.4184,-1.4265,-1.4207,-1.4008,-1.4266,-1.4765,0.0,0.0,0.0,0.0,0.0,0.0,0.0,0.0,0.0,0.0,0.0,0.0,0.0,-0.0315,-0.0674,-0.1075,-0.1433,-0.1971,-0.2823,-0.3312,-0.3796,-0.4272,-0.4412,0.0,-0.4801,-0.4661,-0.4491,-0.4316,-0.4272,-0.4324,-0.4428,-0.47,-0.5112,-0.5687,-0.72,-0.7442,-0.6764,-0.7693,-0.7219,-0.5868,-0.6866,-0.6873,-0.641,-0.694,-0.7084,-0.7048,-0.7325,-0.7344,-0.7277,-0.7301,-0.7526,0.0,0.0,0.0,0.0,0.0,0.0,0.0,0.0,0.0,0.0,0.0,0.0,0.0,0.0,0.0,0.0,0.0,0.0,0.0,0.0,0.0,0.0,0.0,0.0,0.0,0.0,0.0,0.0,0.0,0.0,0.0,0.0,0.0,0.0,0.0,0.0,-0.8479,-0.8756,-0.9299,-0.9612,-0.964,-1.0697,-1.1198,-1.1194,-1.1596,-1.1898,-1.1883,-1.2021,-1.2226,-1.2539,-1.2539,-1.2845,-1.347,-1.397,-1.4196,-1.4238,-1.4288,-1.4394,-1.4646,-1.4333,-1.4166,-1.4151,-1.397,-1.3926,-1.4004,0.0,0.0,0.0,0.0,0.0,0.0,0.0,0.0,0.0,0.0,0.0,0.0,0.0,-0.0225,-0.0629,-0.1075,-0.1925,-0.2595,-0.2948,-0.3391,-0.388,-0.4412,-0.4456,-0.4635,-0.4941,-0.4709,-0.4574,-0.4491,-0.4184,-0.4144,-0.4324,-0.4542,-0.4943,-0.5542,-0.6829,-0.7032,-0.6526,-0.7788,-0.7295,-0.5766,-0.691,-0.6753,-0.5954,-0.6545,-0.6677,0.0,0.0,0.0,0.0,0.0,0.0,0.0,0.0,0.0,0.0,0.0,0.0,0.0,0.0,0.0,0.0,0.0,0.0,0.0,0.0,0.0,0.0,0.0,0.0,0.0,0.0,0.0,0.0,0.0,0.0,0.0,0.0,0.0,0.0,0.0,0.0,0.0,0.0,0.0,0.0,0.0,0.0,0.0,-0.9304,-0.946,-0.961,-0.9631,-1.0613,-1.1409,-1.1683,-1.2061,-1.1998,-1.1406,-1.16,-1.1639,-1.1644,-1.2181,-1.2638,-1.3238,-1.3635,-1.3743,-1.3846,-1.4207,-1.4115,-1.3945,-1.418,-1.4055,-1.3735,-1.3847,-1.3788,-1.3693,0.0,0.0,0.0,0.0,0.0,0.0,0.0,0.0,0.0,0.0941,0.0,0.0,0.0,0.0,-0.0494,-0.112,-0.2148,-0.2818,-0.299,-0.348,-0.4008,-0.4495,-0.4539,-0.4718,-0.5072,-0.4801,-0.4661,-0.4618,-0.4276,-0.4148,-0.4236,-0.4349,-0.4617,-0.4958,-0.5998,-0.6354,-0.6211,-0.7181,-0.6797,-0.5625,-0.6854,-0.6688,-0.5777,-0.6489,0.0,0.0,0.0,0.0,0.0,0.0,0.0,0.0,0.0,0.0,0.0,0.0,0.0,0.0,-0.9193,0.0,0.0,0.0,0.0,0.0,0.0,0.0,0.0,0.0,0.0,0.0,0.0,0.0,0.0,0.0,0.0,0.0,0.0,0.0,0.0,0.0,0.0,0.0,0.0,0.0,0.0,0.0,0.0,0.0,-0.9609,-0.9407,-0.9482,-1.0018,-1.09,-1.1697,-1.237,-1.2467,-1.2273,-1.178,-1.1516,-1.1419,-1.1524,-1.1865,-1.2451,-1.3098,-1.332,-1.3543,-1.3785,-1.4038,-1.3993,-1.3779,-1.4126,-1.3918,-1.3635,-1.3735,-1.3627,-1.3391,0.0,0.0,0.0,0.0,0.0,0.0,0.0,0.0,0.1031,0.0899,0.0,0.0,0.0,0.0,0.0,-0.121,-0.2059,-0.2637,-0.299,-0.3568,-0.41,-0.4574,-0.4618,-0.4792,-0.5193,-0.4932,-0.4709,-0.4618,-0.4539,-0.4372,-0.4108,-0.4108,-0.4062,-0.4023,-0.476,-0.5419,-0.6003,-0.5995,-0.5742,-0.5422,0.0,-0.6713,-0.6088,0.0,0.0,0.0,-0.734,-0.7516,0.0,-0.8108,0.0,0.0,0.0,0.0,0.0,0.0,0.0,0.0,0.0,0.0,0.0,0.0,0.0,0.0,0.0,0.0,0.0,0.0,0.0,0.0,0.0,0.0,0.0,0.0,0.0,0.0,0.0,0.0,0.0,0.0,0.0,0.0,0.0,0.0,0.0,0.0,0.0,-0.9573,-0.9486,-0.8897,-0.9255,-1.0786,-1.1284,-1.2073,-1.305,-1.2861,-1.2861,-1.3055,-1.1705,-1.151,-1.2214,-1.1711,-1.2104,-1.3082,-1.3051,-1.3487,-1.4243,-1.3993,-1.4023,-1.4146,-1.419,-1.4106,-1.3879,-1.3572,-1.3368,-1.3213,0.0,0.0,0.0,0.0,0.0,0.0,0.1344,0.1208,0.1031,0.0,0.0,0.0,0.0494,-0.009,-0.0716,-0.1254,-0.2233,-0.2946,-0.3262,-0.3832,-0.4316,-0.4574,-0.4618,-0.4705,-0.4888,-0.4753,-0.4618,-0.4618,-0.4447,-0.428,-0.4108,-0.4108,-0.4043,-0.395,-0.4032,-0.4186,-0.4438,-0.563,0.0,-0.5437,-0.6848,-0.6867,0.0,0.0,0.0,0.0,0.0,-0.7476,-0.7331,0.0,-0.8404,-0.8149,0.0,0.0,-0.7352,0.0,0.0,-0.7805,-0.817,0.0,0.0,0.0,0.0,0.0,0.0,0.0,0.0,0.0,0.0,0.0,0.0,0.0,0.0,0.0,0.0,0.0,0.0,0.0,0.0,0.0,0.0,0.0,0.0,0.0,0.0,0.0,-0.9258,-0.852,-0.6879,-0.8195,-0.9545,-1.0872,-1.1569,-1.2175,-1.2856,-1.2953,-1.2662,-1.1975,-1.1452,-1.1185,-1.1185,-1.1481,-1.1973,-1.2557,-1.2591,-1.299,-1.3683,-1.3862,-1.3518,-1.295,-1.387,-1.3735,-1.3105,-1.3412,-1.3215,-1.2927,0.0,0.0,0.0,0.0,0.0,0.1344,0.1344,0.1208,0.1075,0.0,0.0,0.0,0.0405,-0.0182,-0.073,-0.1256,-0.2188,-0.2901,-0.3306,-0.388,-0.432,-0.4574,-0.4661,-0.4753,-0.4893,-0.4801,-0.4753,-0.4666,-0.4491,-0.4364,-0.4284,-0.4192,-0.4104,-0.3972,-0.3836,-0.3694,-0.3634,-0.471,0.0,0.0,-0.6241,0.0,0.0,-0.698,-0.7048,0.0,0.0,0.0,-0.7454,-0.8376,-0.8412,0.0,0.0,0.0,0.0,0.0,0.0,-0.7404,-0.7753,-0.765,-0.7456,0.0,0.0,0.0,0.0,-0.9151,0.0,0.0,0.0,0.0,0.0,0.0,0.0,0.0,0.0,0.0,0.0,0.0,0.0,0.0,0.0,0.0,0.0,0.0,0.0,-0.9495,-0.891,-0.8125,-0.7125,-0.8398,-0.9749,-1.0872,-1.1576,-1.2174,-1.2764,-1.2958,-1.2662,-1.2078,-1.1585,-1.1292,-1.1292,-1.1487,-1.1785,-1.2083,-1.218,-1.2269,-1.2516,-1.2818,-1.2833,-1.2715,-1.3397,-1.334,-1.2704,-1.3203,-1.3161,-1.2818,0.0,0.0,0.0,0.1075,0.1208,0.1344,0.1389,0.1254,0.1164,0.0,0.1033,0.0675,0.0271,-0.0093,-0.0559,-0.1213,-0.2057,-0.2726,-0.3214,-0.3854,-0.4344,-0.4618,-0.4776,-0.4872,-0.4985,-0.4985,-0.4893,-0.4801,-0.4666,-0.4578,-0.4499,-0.4364,-0.4232,-0.4152,-0.3972,-0.3736,-0.3447,0.0,0.0,-0.4743,-0.5312,-0.575,0.0,0.0,-0.6757,-0.6623,-0.7156,-0.7426,-0.7733,-0.8431,-0.8508,0.0,0.0,0.0,0.0,0.0,-0.6922,-0.7015,-0.7298,-0.7164,-0.7042,0.0,0.0,0.0,-0.7742,-0.7501,-0.7612,0.0,0.0,0.0,0.0,0.0,0.0,0.0,0.0,0.0,0.0,0.0,0.0,0.0,0.0,0.0,0.0,-1.0159,-1.0286,-0.9472,-0.8418,-0.8234,-0.8906,-0.9298,-0.9925,-1.0849,-1.1462,-1.2061,-1.2759,-1.2764,-1.2759,-1.2662,-1.198,-1.1683,-1.1878,-1.1683,-1.159,-1.1502,-1.1725,-1.1529,-1.1162,-1.1536,-1.212,-1.278,-1.3029,-1.2897,-1.2668,-1.2993,-1.2974,-1.2829,0.0,0.0,0.1165,0.1119,0.1254,0.1389,0.1344,0.1299,0.121,0.0988,0.0764,0.0501,0.0377,-0.0138,-0.0632,-0.112,-0.2233,-0.3034,-0.335,-0.4323,-0.4843,-0.4762,-0.4961,-0.5024,-0.4994,-0.4801,-0.4709,-0.4801,-0.4626,-0.4539,-0.4574,-0.4403,-0.4364,-0.4416,-0.406,-0.3769,-0.3546,0.0,0.0,-0.4616,-0.5335,0.0,-0.6222,-0.6763,-0.6907,-0.686,-0.7118,-0.7045,-0.6915,0.0,-0.8003,-0.8265,0.0,0.0,0.0,0.0,0.0,0.0,0.0,0.0,0.0,0.0,0.0,0.0,-0.6699,-0.7105,-0.764,0.0,0.0,0.0,0.0,0.0,0.0,0.0,0.0,0.0,0.0,0.0,0.0,0.0,0.0,0.0,0.0,-1.0343,-1.046,-0.9892,-0.8668,-0.7978,-0.8267,-0.9444,-1.0385,-1.1008,-1.1632,-1.2129,-1.2467,-1.2467,-1.237,-1.2175,-1.1785,-1.1487,-1.1389,-1.1292,-1.1194,-1.1012,-1.1125,-1.1304,-1.1353,-1.1493,-1.1438,-1.1545,-1.2392,-1.2501,-1.216,-1.2835,-1.3077,-1.3044,0.0,0.0808,0.1032,0.121,0.1344,0.1433,0.1524,0.1478,0.139,0.1257,0.0914,0.0555,0.0325,-0.0282,-0.0802,-0.1204,-0.2667,-0.3547,-0.3604,-0.472,-0.526,-0.4965,-0.5056,-0.5066,-0.4994,-0.4801,-0.4753,-0.4801,-0.4587,-0.4539,-0.4618,-0.4451,-0.4369,-0.4346,-0.4044,-0.388,0.0,0.0,-0.3553,-0.4556,-0.4822,0.0,-0.5882,-0.641,-0.6434,-0.6343,-0.6766,-0.7048,-0.7325,-0.7579,-0.7841,0.0,0.0,-0.7531,-0.7712,0.0,-0.6666,-0.7156,0.0,0.0,0.0,-0.6164,0.0,0.0,0.0,-0.6659,-0.7165,0.0,0.0,0.0,0.0,0.0,0.0,0.0,0.0,0.0,0.0,0.0,0.0,0.0,0.0,0.0,0.0,-1.0413,-1.0318,-1.0233,-0.9022,-0.8552,-0.9078,-0.9625,-1.0276,-1.0935,-1.1432,-1.1798,-1.2011,-1.2119,-1.2078,-1.1785,-1.1785,-1.1585,-1.1194,-1.1194,-1.0998,-1.0618,-1.0624,-1.0764,-1.0852,-1.0852,-1.0999,-1.1226,-1.204,-1.2179,-1.2088,-1.2594,-1.2833,-1.2947,0.0539,0.0719,0.0898,0.1299,0.1389,0.1478,0.1703,0.1614,0.1482,0.145,0.1034,0.0526,-0.0047,-0.07,-0.1283,-0.1695,-0.347,-0.4386,-0.3956,-0.517,-0.5715,-0.5234,-0.5094,-0.5047,-0.5023,-0.4798,-0.4714,-0.4757,-0.4543,-0.4495,-0.4618,-0.4495,-0.4339,-0.4163,-0.4047,-0.3965,-0.3942,0.0,0.0,-0.4636,0.0,-0.4729,-0.5698,-0.6015,-0.6025,-0.5923,-0.6505,-0.7234,-0.7841,-0.7831,0.0,-0.7643,-0.7335,-0.7358,0.0,0.0,0.0,0.0,0.0,0.0,0.0,0.0,0.0,-0.5676,0.0,0.0,0.0,0.0,0.0,0.0,0.0,0.0,0.0,0.0,0.0,0.0,0.0,0.0,0.0,0.0,0.0,0.0,0.0,-0.9846,-0.9687,-1.0184,-0.906,-0.8793,-0.9758,-0.9814,-1.0164,-1.0866,-1.1144,-1.1465,-1.1652,-1.1773,-1.1883,-1.1683,-1.1883,-1.1683,-1.1194,-1.1096,-1.0801,-1.0323,-1.0222,-1.0205,-1.031,-1.0446,-1.0747,-1.1111,-1.1673,-1.1944,-1.2078,-1.237,-1.2591,-1.2856,0.036,0.0763,0.112,0.1299,0.1344,0.1389,0.1433,0.1299,0.1089,0.0894,0.0636,0.0,-0.1191,-0.1801,-0.2354,-0.2921,-0.5046,0.0,-0.4431,0.0,-0.6351,-0.5747,-0.516,-0.4918,-0.5101,-0.462,-0.4447,-0.4618,-0.4403,-0.4403,-0.4618,-0.4403,-0.4256,-0.4137,-0.42,0.0,0.0,0.0,-0.4065,0.0,-0.4442,-0.4938,0.0,-0.5929,-0.6146,-0.6531,-0.6433,-0.6877,-0.7526,0.0,-0.7461,-0.7533,0.0,-0.7359,-0.7859,0.0,0.0,0.0,0.0,0.0,0.0,0.0,-0.5765,0.0,0.0,0.0,0.0,0.0,0.0,0.0,0.0,0.0,0.0,0.0,0.0,0.0,0.0,0.0,0.0,0.0,0.0,0.0,0.0,0.0,-0.7986,-0.8983,-0.8093,-0.7797,-0.8436,-0.9776,-1.0617,-1.0756,-1.1316,-1.1627,-1.1657,-1.1676,-1.178,-1.198,-1.178,-1.1487,-1.1194,-1.0703,-1.0314,-1.0031,-1.0012,-1.0095,-1.0319,-1.0789,-1.0964,-1.1098,-1.1505,-1.1805,-1.2073,-1.257,-1.2894,-1.3071,0.0225,0.0494,0.0763,0.103,0.1031,0.1032,0.121,0.1164,0.1045,0.0899,0.0579,-0.005,-0.1044,0.0,0.0,0.0,0.0,-0.6176,0.0,0.0,-0.6618,-0.6132,-0.5148,-0.4851,-0.5358,-0.4752,-0.4525,-0.4717,-0.4429,-0.4381,-0.4517,-0.4365,-0.4214,-0.407,-0.4158,0.0,-0.4529,0.0,-0.4975,0.0,0.0,0.0,0.0,-0.5861,-0.5838,-0.6172,-0.6361,-0.6786,-0.7295,0.0,-0.7488,0.0,0.0,0.0,0.0,0.0,0.0,0.0,0.0,0.0,0.0,0.0,0.0,0.0,-0.5714,0.0,-0.5663,0.0,0.0,0.0,0.0,0.0,0.0,0.0,0.0,0.0,0.0,0.0,0.0,0.0,0.0,0.0,0.0,0.0,0.0,0.0,-0.7133,-0.7162,-0.811,-0.8926,-0.978,-1.0626,-1.1233,-1.1557,-1.1372,-1.1676,-1.1688,-1.159,-1.159,-1.1394,-1.0998,-1.0413,-1.0117,-1.0023,-0.9606,-0.9838,-1.0345,-1.0523,-1.0806,-1.1222,-1.1526,-1.1683,-1.1785,-1.1975,-1.233,-1.2724,0.009,0.0225,0.0,0.0,0.0,0.0718,0.0896,0.0949,0.0782,0.0379,0.0097,0.0,-0.1822,-0.2662,0.0,0.0,-0.614,-0.6949,0.0,0.0,-0.691,-0.6712,-0.5395,0.0,0.0,-0.5082,-0.473,-0.4902,-0.453,-0.4377,-0.4471,-0.4294,-0.4062,-0.3822,0.0,-0.4374,-0.4889,0.0,0.0,-0.6587,-0.6486,-0.6419,-0.6335,-0.5912,-0.5863,-0.6082,-0.6386,-0.6675,-0.7061,-0.7457,-0.7377,0.0,-0.7316,0.0,0.0,0.0,0.0,0.0,-0.6543,0.0,0.0,0.0,0.0,0.0,0.0,0.0,0.0,0.0,0.0,0.0,0.0,0.0,0.0,-0.5453,0.0,0.0,0.0,0.0,0.0,0.0,0.0,0.0,0.0,0.0,0.0,-0.6588,-0.5965,-0.6072,-0.7195,-0.792,-0.8857,-0.9892,-1.1008,-1.1527,-1.1273,-1.1646,-1.1688,-1.1292,-1.1389,-1.1198,-1.0801,-1.0216,-0.992,-0.9821,-0.943,-0.9727,-1.0314,-1.0413,-1.0703,-1.1198,-1.1389,-1.1487,-1.1487,-1.1688,-1.198,-1.2304,-0.018,0.0045,0.0,0.0,0.0,0.0,0.0,0.0,0.0,0.0,0.0,0.0,0.0,0.0,0.0,0.0,0.0,-0.8612,-0.7159,0.0,-0.7442,-0.7639,-0.6028,-0.5475,0.0,0.0,0.0,-0.5193,-0.4673,-0.4391,-0.4401,-0.4047,-0.3729,-0.3444,-0.3758,-0.4042,-0.4373,-0.4589,-0.5406,-0.6531,-0.6381,-0.6086,-0.5841,0.0,-0.646,-0.6347,-0.6656,0.0,0.0,-0.69,-0.7144,0.0,0.0,0.0,0.0,0.0,0.0,0.0,0.0,0.0,0.0,-0.6303,0.0,0.0,0.0,0.0,-0.5011,0.0,0.0,0.0,0.0,0.0,-0.4877,-0.527,-0.5189,0.0,0.0,0.0,0.0,0.0,0.0,0.0,0.0,0.0,0.0,-0.5733,-0.4814,-0.4403,-0.4981,-0.7021,-0.8162,-0.8257,-1.0454,-1.1546,-1.1318,-1.1471,-1.1585,-1.1585,-1.1096,-1.0806,-1.0801,-1.0216,-0.9826,-0.9628,-0.9628,-0.9723,-1.0019,-1.0314,-1.0703,-1.1194,-1.1194,-1.1194,-1.1292,-1.1785,-1.198,-1.2109,0.0,0.0,0.0,0.0,0.0,0.0,0.0,-0.0337,0.0,0.0,0.0,0.0,0.0,0.0,-0.5695,0.0,0.0,-0.7699,-0.6937,-0.6928,0.0,0.0,0.0,-0.5854,0.0,0.0,0.0,0.0,0.0,-0.477,-0.4868,-0.4149,-0.3729,-0.3539,0.0,-0.3887,0.0,0.0,0.0,0.0,0.0,-0.6792,-0.6491,0.0,0.0,-0.5785,-0.626,-0.6599,0.0,-0.7279,-0.7254,-0.7165,-0.7503,-0.7367,-0.7112,-0.7517,-0.7531,0.0,0.0,0.0,-0.8348,-0.7339,0.0,0.0,0.0,0.0,0.0,0.0,0.0,0.0,0.0,0.0,-0.54,-0.514,-0.5173,-0.512,0.0,0.0,0.0,0.0,0.0,0.0,0.0,0.0,0.0,-0.3048,-0.305,-0.3156,-0.3301,-0.4872,-0.6393,-0.7895,-0.9757,-1.0796,-1.1065,-1.1402,-1.1448,-1.1096,-1.0703,-1.0413,-1.0216,-0.9924,-0.9727,-0.9628,-0.943,-0.9628,-1.0019,-1.0117,-1.0413,-1.0998,-1.1096,-1.1292,-1.1487,-1.1487,-1.1688,-1.2129,-0.0837,0.0,0.0,0.0,0.0,0.0,0.0,0.0,0.0,0.0,-0.2673,0.0,-0.5564,0.0,-0.6276,0.0,-0.7351,-0.7449,-0.7099,-0.6827,0.0,-0.7683,-0.6534,0.0,0.0,0.0,0.0,0.0,0.0,-0.4996,-0.5096,-0.4108,-0.3563,-0.3394,0.0,-0.3566,-0.4129,0.0,-0.6012,0.0,0.0,-0.6986,0.0,0.0,-0.593,-0.5516,0.0,-0.6436,-0.6621,-0.7231,-0.7256,-0.7213,-0.7819,-0.7664,-0.7411,-0.8031,-0.8065,-0.8014,-0.8294,-0.8814,0.0,-0.7807,-0.8028,0.0,-0.6103,0.0,0.0,0.0,0.0,0.0,0.0,0.0,-0.5797,-0.5449,-0.5238,-0.4901,0.0,-0.3913,0.0,0.0,0.0,0.0,0.0,0.0,-0.3215,-0.1889,-0.2028,-0.2178,0.0,0.0,-0.5631,-0.7198,-0.956,-1.0871,-1.1042,-1.1382,-1.134,-1.0798,-1.0476,-1.0216,-1.0019,-0.9727,-0.9529,-0.943,-0.9335,-0.9529,-0.9821,-0.992,-1.0314,-1.0801,-1.11,-1.1389,-1.1585,-1.1487,-1.1737,-1.2251,0.0,0.0,0.0,0.0,-0.0657,0.0,0.0,0.0,-0.2808,0.0,-0.4433,-0.4942,-0.6652,-0.7236,-0.7486,-0.7494,-0.7821,0.0,-0.7507,-0.6881,0.0,0.0,-0.6946,-0.705,-0.8306,0.0,0.0,0.0,0.0,0.0,-0.5101,-0.3949,-0.3284,0.0,-0.2867,0.0,-0.3485,-0.4826,-0.557,-0.5957,-0.674,-0.6678,-0.6105,-0.626,-0.5979,-0.568,-0.6331,-0.631,-0.6096,-0.6848,-0.7222,-0.7409,-0.7725,-0.7907,-0.8104,-0.8277,-0.8471,-0.867,-0.8611,-0.8769,-0.8713,-0.7792,0.0,0.0,0.0,0.0,-0.6904,0.0,0.0,0.0,0.0,0.0,0.0,-0.6037,-0.5281,-0.4467,-0.3907,0.0,0.0,0.0,0.0,0.0,0.0,0.0,-0.2916,-0.2231,-0.182,0.0,0.0,0.0,-0.5642,-0.609,-0.9718,-1.1519,-1.1054,-1.1311,-1.1162,-1.07,-1.0223,-1.0019,-1.0019,-0.9727,-0.943,-0.9236,-0.943,-0.9628,-0.9628,-0.9826,-1.0314,-1.0801,-1.1096,-1.1389,-1.1683,-1.1883,-1.2122,-1.2355,-0.024,0.0383,0.0858,0.0,-0.0725,-0.1568,0.0,0.0,0.0,0.0,-0.3918,-0.4383,-0.7471,-0.7175,-0.7099,-0.7696,-0.681,0.0,0.0,0.0,0.0,-0.6791,-0.6244,-0.6695,-0.852,-0.709,0.0,-0.7685,0.0,0.0,-0.5214,0.0,0.0,0.0,0.0,0.0,-0.3418,-0.4566,-0.58,-0.7027,-0.7239,-0.6817,0.0,0.0,-0.5919,-0.5539,-0.6021,-0.6229,-0.6341,-0.6925,-0.7144,-0.7232,-0.7696,-0.7807,-0.7894,-0.8429,-0.859,-0.8663,-0.8841,-0.912,-0.9186,-0.8313,-0.8531,-0.8883,0.0,0.0,0.0,0.0,0.0,0.0,0.0,0.0,0.0,-0.5506,-0.4682,-0.4076,0.0,0.0,0.0,0.0,0.0,0.0,0.0,0.0,-0.2528,-0.185,-0.164,0.0,0.0,0.0,0.0,-0.3693,-0.5849,-0.7355,-0.8063,-0.8954,-0.9493,-0.9456,-0.9641,-0.9723,-0.9723,-0.9628,-0.9529,-0.9529,-0.9331,-0.9331,-0.9331,-0.9335,-0.9727,-1.0314,-1.0904,-1.178,-1.2662,-1.237,-1.2418,-1.2641,0.005,0.0,0.0,0.1285,0.0,0.0,-0.1777,0.0,0.0,-0.5503,-0.458,0.0,-0.7328,-0.7213,-0.7042,-0.7458,-0.6831,0.0,-0.6003,0.0,0.0,-0.6786,-0.6421,-0.6973,-0.85,-0.722,0.0,-0.7742,0.0,0.0,-0.5109,0.0,0.0,0.0,0.0,-0.2494,0.0,-0.4222,-0.5666,-0.708,-0.7156,0.0,0.0,-0.6339,-0.6147,-0.579,-0.5919,-0.6103,-0.6332,-0.6821,-0.7085,-0.7227,-0.7679,-0.7871,-0.8082,-0.8584,-0.8865,-0.9092,-0.9204,-0.9554,-0.9793,-0.9144,-0.9042,-0.9182,-0.9231,-0.9291,-1.0091,0.0,0.0,0.0,0.0,0.0,0.0,0.0,0.0,0.0,0.0,0.0,0.0,0.0,0.0,0.0,0.0,0.0,0.0,0.0,0.0,0.0,0.0,0.0,0.0,-0.3446,-0.5747,-0.7268,-0.7887,-0.9026,-0.9588,-0.9523,-0.96,-0.9628,-0.9628,-0.9628,-0.9628,-0.9628,-0.9331,-0.9232,-0.9331,-0.9236,-0.9628,-1.0314,-1.1292,-1.2273,-1.305,-1.2759,-1.2806,-1.282,0.0,0.0,0.0,0.0,0.0,0.0,0.0,-0.3367,0.0,-0.6378,0.0,-0.5488,-0.6909,-0.7119,-0.7112,-0.7026,0.0,-0.6909,-0.6375,-0.6638,-0.6893,-0.7097,-0.6859,-0.725,-0.8299,-0.7479,0.0,0.0,0.0,0.0,0.0,0.0,0.0,0.0,0.0,0.0,0.0,-0.4167,-0.5492,-0.6622,-0.6882,-0.6803,-0.6461,-0.6433,-0.6324,-0.6197,-0.6149,-0.6039,-0.6105,-0.6754,-0.7019,-0.7257,-0.7723,-0.8102,-0.8399,-0.8703,-0.916,-0.9544,-0.9463,-0.9857,-1.0095,-0.983,-0.9546,-0.9252,-0.8801,-1.0606,-1.2565,-1.3526,-1.1771,-1.0325,0.0,0.0,0.0,0.0,0.0,0.0,0.0,0.0,0.0,0.0,0.0,0.0,0.0,0.0,0.0,0.0,0.0,0.0,0.0,0.0,0.0,-0.41,-0.6979,-0.8649,-0.8772,0.0,-1.0283,-0.9921,-0.9744,-0.9628,-0.9628,-0.9628,-0.9628,-0.9628,-0.9331,-0.9335,-0.9529,-0.9335,-0.9727,-1.0605,-1.1975,-1.2759,-1.3147,-1.3147,-1.3079,-1.3066,0.0,0.0,0.0,0.0,0.0,-0.2671,-0.2872,-0.3466,-0.462,-0.6339,-0.539,-0.5308,-0.7264,-0.6902,-0.6695,-0.7026,-0.6309,0.0,0.0,0.0,0.0,-0.6083,-0.5902,-0.6471,-0.7911,-0.7102,-0.6897,0.0,0.0,0.0,0.0,0.0,0.0,0.0,0.0,0.0,-0.4352,-0.5173,0.0,-0.6605,-0.6687,-0.6393,-0.6058,-0.6237,-0.6139,-0.5941,-0.6426,-0.62,-0.5811,-0.6788,-0.7007,-0.7084,-0.7936,-0.8156,-0.8295,-0.8851,-0.9246,-0.9483,-0.9397,-0.9478,-0.9489,-0.9022,-0.9352,-0.9585,-0.8891,-1.0599,-1.2155,-1.17,-1.164,-1.1297,-1.0271,0.0,0.0,0.0,0.0,0.0,0.0,0.0,0.0,0.0,0.0,0.0,0.0,0.0,0.0,0.0,0.0,0.0,0.0,0.0,0.0,0.0,-0.4374,0.0,0.0,0.0,-0.861,-0.8991,-0.9356,-0.9628,-0.9628,-0.9628,-0.9628,-0.9628,-0.9331,-0.9232,-0.9232,-0.9236,-0.992,-1.1194,-1.2273,-1.2856,-1.3147,-1.3147,-1.298,-1.285,0.0,0.0,0.0,0.0,0.0,0.0,0.0,-0.4395,0.0,-0.6559,-0.573,-0.5627,-0.7076,-0.6927,-0.6729,-0.6814,-0.644,-0.6151,-0.6074,-0.6015,-0.6197,-0.6513,-0.6438,0.0,-0.757,-0.709,-0.6765,-0.6818,0.0,0.0,-0.4233,0.0,0.0,0.0,0.0,-0.3418,0.0,0.0,0.0,-0.6037,-0.6572,-0.6563,-0.6338,-0.6637,-0.6714,-0.6718,-0.7011,-0.7169,-0.7257,-0.7246,-0.7318,-0.7468,-0.8097,-0.8246,-0.8309,-0.9008,-0.9322,-0.9402,-0.9559,-0.9949,-1.0095,-0.8959,-0.868,-0.8966,-1.0275,-1.1118,-1.1444,-1.0672,-1.0864,-1.0859,-0.9673,-0.9008,0.0,0.0,0.0,0.0,0.0,0.0,0.0,0.0,0.0,0.0,0.0,0.0,0.0,0.0,0.0,0.0,0.0,0.0,0.0,0.0,0.0,0.0,0.0,0.0,0.0,-0.8236,-0.9158,-0.9628,-0.9628,-0.9628,-0.9628,-0.9628,-0.9331,-0.9236,-0.943,-0.9826,-1.0609,-1.1487,-1.2467,-1.2958,-1.305,-1.2953,-1.2759,-1.2602,0.0,0.1482,0.0,0.0,-0.1173,0.0,-0.3193,-0.4977,-0.6407,-0.6594,-0.6185,-0.6119,-0.6855,-0.68,-0.6741,-0.6534,-0.663,-0.669,-0.6644,-0.7032,-0.7177,-0.6947,-0.6925,-0.6965,-0.6933,-0.6833,-0.6649,0.0,0.0,0.0,0.0,0.0,0.0,0.0,0.0,0.0,0.0,0.0,-0.5554,-0.5778,-0.6533,-0.6799,-0.681,-0.7022,-0.7253,-0.7492,-0.7706,-0.8178,-0.8584,-0.7868,-0.7783,-0.8016,-0.8183,-0.8169,-0.8232,-0.8932,-0.9322,-0.9483,-0.97,-1.0327,-1.0466,-0.898,-0.8565,-0.9106,-1.1307,-1.1313,-1.0662,-1.0053,-1.0126,-1.0159,-0.9362,-0.9325,0.0,0.0,0.0,0.0,0.0,0.0,0.0,0.0,0.0,0.0,0.0,0.0,0.0,0.0,0.0,0.0,0.0,0.0,0.0,0.0,0.0,-0.3841,-0.463,0.0,-0.7463,-0.757,-0.8863,-0.9529,-0.9529,-0.9529,-0.9628,-0.9628,-0.9335,-0.943,-0.9723,-1.0609,-1.1198,-1.1683,-1.2467,-1.2861,-1.2953,-1.2759,-1.2467,-1.2217,0.0,0.0,0.0,0.0,0.0,0.0,-0.3362,-0.4433,-0.5435,-0.6065,-0.6471,-0.6819,-0.7078,-0.6641,-0.6361,-0.6392,-0.6325,-0.6324,-0.6491,-0.6656,-0.6556,-0.6314,-0.6352,-0.6129,-0.5511,-0.6045,-0.6129,0.0,0.0,0.0,0.0,0.0,0.0,0.0,0.0,0.0,0.0,-0.5636,-0.5959,-0.6521,-0.6626,-0.6872,-0.7103,-0.6996,-0.7145,-0.7621,-0.8331,-0.8646,-0.8646,-0.8228,-0.8313,-0.8565,-0.8241,-0.7833,-0.7736,-0.8519,-0.9246,-0.9803,-0.9427,-0.9664,-0.9685,-0.8495,-1.0007,-1.1528,-1.0444,-1.0137,-0.9961,-0.9882,-0.9933,-0.9841,-0.9374,-1.0593,-1.0854,0.0,0.0,0.0,0.0,0.0,0.0,0.0,0.0,0.0,0.0,0.0,0.0,0.0,0.0,0.0,0.0,0.0,0.0,-0.4339,0.0,-0.4492,-0.635,-0.6728,-0.6998,-0.7004,-0.8474,-0.9236,-0.9236,-0.9529,-0.9628,-0.9628,-0.9529,-0.9727,-1.0019,-1.1096,-1.1585,-1.1683,-1.2467,-1.2662,-1.2467,-1.2467,-1.2078,-1.1742,0.0,0.0,0.0,0.0,0.0,0.0,0.0,-0.4084,-0.4866,-0.4946,-0.5748,-0.6526,-0.6881,-0.6506,-0.6263,-0.6034,-0.6075,-0.5993,-0.5586,-0.6096,-0.6251,-0.5833,-0.6182,-0.607,-0.5436,-0.5888,-0.5915,0.0,0.0,0.0,0.0,0.0,0.0,0.0,0.0,-0.5306,-0.5892,-0.6145,-0.637,-0.6641,-0.7096,-0.7403,-0.7557,-0.7859,-0.7923,-0.7914,-0.8484,-0.9042,-0.9362,-0.8703,-0.8551,-0.8651,-0.8498,-0.8003,-0.7668,-0.8466,-0.9266,-0.9737,-0.911,-1.0143,-1.0877,-0.8934,-0.9316,-1.0113,-0.9988,-0.9797,-0.9627,-0.9689,-1.0008,-1.0115,-0.9579,-1.0187,-1.0582,0.0,0.0,0.0,0.0,0.0,0.0,0.0,0.0,0.0,0.0,0.0,0.0,0.0,0.0,0.0,0.0,0.0,0.0,-0.3665,0.0,-0.3831,-0.5389,-0.6076,-0.6532,-0.6729,-0.8275,-0.8928,-0.8928,-0.9027,-0.9126,-0.9126,-0.9426,-0.9821,-1.0314,-1.1194,-1.178,-1.2078,-1.2467,-1.2467,-1.237,-1.2078,-1.1683,-1.1339,-0.0548,0.0,-0.0279,0.0,-0.1783,-0.2183,-0.2497,-0.359,-0.4367,-0.4279,-0.5201,-0.6025,-0.6643,-0.6392,-0.5976,-0.5473,-0.5603,-0.5465,-0.4856,-0.5548,-0.5867,-0.5511,-0.5956,0.0,-0.5058,-0.5462,-0.5377,-0.4801,-0.5075,0.0,0.0,0.0,0.0,0.0,-0.5328,-0.5752,-0.6177,-0.644,-0.668,-0.7022,-0.7629,-0.7936,-0.8093,-0.8646,-0.8551,-0.8138,-0.8551,-0.9037,-0.9433,-0.8865,-0.8708,-0.8722,-0.8737,-0.8161,-0.766,-0.8461,-0.9094,-0.9397,-0.8832,-1.0489,-1.1784,-0.9711,-0.8952,-0.881,-0.9441,-0.9506,-0.9541,-0.9632,-1.003,-1.024,-0.9785,-1.017,-1.0668,-1.079,0.0,0.0,0.0,0.0,0.0,0.0,-0.6782,-0.6061,-0.6663,0.0,0.0,0.0,0.0,0.0,0.0,0.0,0.0,0.0,0.0,0.0,0.0,-0.5634,-0.6158,-0.6352,-0.7979,-0.8726,-0.8726,-0.8726,-0.8825,-0.8825,-0.9327,-0.9826,-1.0216,-1.0998,-1.1585,-1.1883,-1.1883,-1.1883,-1.1785,-1.1389,-1.1096,-1.0842,-0.0865,-0.0872,-0.1033,-0.1242,-0.1485,-0.1641,-0.1881,-0.2938,-0.3865,-0.4365,-0.4789,-0.5459,-0.6494,-0.616,-0.5505,-0.4695,-0.4676,-0.4658,-0.4605,-0.4833,-0.514,0.0,0.0,-0.5015,-0.3843,-0.4392,-0.4543,-0.4144,0.0,0.0,-0.4419,0.0,-0.4757,-0.5081,-0.5519,-0.6039,-0.6567,-0.6482,-0.6931,-0.7783,-0.8008,-0.8313,-0.8703,-0.9108,-0.8784,-0.8138,-0.8542,-0.8703,-0.8703,-0.8703,-0.8703,-0.8703,-0.8722,-0.8129,-0.769,-0.8491,-0.8699,-0.8689,-0.8737,-1.0475,-1.2005,-1.0761,-0.9589,-0.8737,-0.8741,-0.9097,-0.9574,-0.9818,-1.0067,-1.0138,-0.999,-1.0926,-1.1576,-1.1267,0.0,0.0,0.0,0.0,0.0,0.0,-0.7261,-0.697,-0.8223,0.0,0.0,0.0,0.0,0.0,0.0,0.0,0.0,-0.4302,-0.4318,0.0,-0.5189,-0.5556,-0.5784,-0.5787,-0.7589,-0.8432,-0.8432,-0.8726,-0.8825,-0.8825,-0.9327,-0.9628,-0.9628,-1.0511,-1.0806,-1.0806,-1.0806,-1.0708,-1.0408,-1.0413,-1.0216,-1.0074,-0.1334,-0.1397,-0.1541,-0.1877,-0.1959,-0.1959,-0.1882,-0.2898,-0.3693,-0.385,-0.47,-0.5632,-0.6368,-0.6283,-0.5907,0.0,-0.5707,-0.5665,0.0,-0.5498,-0.5741,-0.5143,-0.5341,-0.501,-0.4229,-0.4543,-0.4543,-0.4304,0.0,0.0,0.0,-0.4995,-0.5219,-0.5559,-0.5683,-0.6123,-0.6648,-0.677,-0.7328,-0.8246,-0.8394,-0.878,-0.9094,-0.9266,-0.8951,-0.8556,-0.8651,-0.8737,-0.8732,-0.8722,-0.8699,-0.867,-0.8675,-0.8505,-0.8732,-1.061,-1.1145,-1.1178,-1.1184,-1.0923,-1.0519,-0.9862,-0.9499,-0.9271,-0.9322,-0.9519,-0.9779,-0.9711,-0.9841,-0.9992,-0.9995,-1.0391,-1.0956,-1.176,-1.2221,0.0,0.0,0.0,0.0,0.0,-0.779,-0.6774,0.0,-0.7297,0.0,0.0,0.0,0.0,0.0,0.0,0.0,0.0,-0.5276,0.0,-0.6993,-0.7024,-0.7023,-0.7026,-0.7798,-0.8137,-0.8137,-0.8237,-0.8333,-0.8528,-0.9133,-0.9529,-0.992,-1.0507,-1.09,-1.0998,-1.0703,-1.0511,-1.0413,-1.0216,-0.992,-0.976,-0.1303,-0.1118,-0.1099,-0.1491,-0.1568,-0.1646,-0.1803,-0.2798,-0.3653,-0.3808,-0.4862,-0.5752,-0.6234,-0.65,0.0,-0.5507,-0.5826,-0.5714,-0.501,-0.5463,-0.5547,-0.5237,-0.524,-0.4929,-0.4073,-0.4384,0.0,-0.3992,-0.4631,-0.501,-0.5229,-0.5377,-0.5616,-0.5827,-0.5987,-0.6311,-0.6875,-0.719,-0.7799,-0.8556,-0.878,-0.9013,-0.9175,-0.9266,-0.9037,-0.8646,-0.8016,-0.8012,-0.8318,-0.8623,-0.867,-0.8874,-0.9781,-1.0084,-1.0374,-1.1865,-1.2322,-1.2282,-1.2267,-1.1166,-0.9857,-0.97,-0.9614,-0.9599,-0.9841,-1.0143,-1.0293,-1.0218,-0.991,-0.9813,-1.0048,-1.0121,-1.049,-1.1531,-1.1902,-1.2164,-1.2398,0.0,0.0,0.0,0.0,0.0,0.0,-0.7246,-0.685,0.0,0.0,0.0,0.0,0.0,0.0,-0.552,-0.6232,0.0,-0.7678,-0.766,-0.7628,-0.7682,-0.7923,-0.8038,-0.8038,-0.8038,-0.8137,-0.8432,-0.8832,-0.9327,-0.9727,-1.0019,-1.0353,-1.0509,-0.9842,-0.976,-0.9913,-0.9644,-0.9525,-0.9466,-0.0897,-0.0479,-0.0235,0.0,-0.0706,0.0,-0.1568,-0.2795,-0.3726,-0.4288,-0.517,-0.5814,-0.6061,-0.6727,-0.671,-0.5538,0.0,0.0,0.0,-0.4988,-0.5065,-0.5622,-0.5395,-0.4696,-0.3524,-0.407,-0.4148,-0.3524,-0.4535,-0.5162,-0.5321,-0.5709,-0.5858,-0.583,-0.6227,-0.6628,-0.7111,-0.7748,-0.8269,-0.878,-0.9089,-0.917,-0.9022,-0.919,-0.9037,-0.8489,-0.69,-0.6878,-0.7635,-0.8576,-0.8869,-0.9326,-1.1583,-1.226,-1.2155,-1.2249,-1.2284,-1.2277,-1.2214,-1.1081,-1.0045,-1.0187,-0.9898,-0.9711,-1.0293,-1.0749,-1.1067,-1.0986,-1.0275,-0.9731,-1.0126,-1.001,-1.007,-1.0665,-1.1192,-1.1563,-1.1783,0.0,0.0,0.0,0.0,0.0,0.0,-0.6969,-0.726,0.0,0.0,0.0,0.0,0.0,-0.5876,-0.6303,-0.7068,-0.7492,-0.7461,-0.7522,-0.7675,-0.7828,-0.797,-0.8038,-0.8038,-0.8041,-0.8137,-0.8432,-0.8726,-0.8935,-0.9153,-0.9153,-0.9349,-0.938,-0.8711,-0.874,-0.9056,-0.8888,-0.9031,-0.9283,0.0,0.0,-0.1099,-0.1493,-0.1571,-0.1885,-0.2591,-0.3072,-0.3634,-0.4504,-0.4964,-0.543,-0.6142,-0.6655,-0.6942,-0.7015,-0.6934,-0.678,-0.6549,-0.6549,-0.6398,-0.618,-0.5473,-0.4849,-0.4307,-0.4384,-0.454,-0.4851,-0.5085,-0.5321,-0.5559,-0.5476,-0.5623,-0.5993,-0.599,-0.6551,-0.7513,-0.7672,-0.8199,-0.8941,-0.8861,-0.878,-0.8784,-0.8861,-0.8646,-0.8277,-0.7464,-0.7359,-0.7812,-0.9818,-1.0964,-1.1527,-1.212,-1.1651,-1.1107,-1.2039,-1.2317,-1.2083,-1.1198,-1.072,-1.0404,-1.0084,-1.0008,-0.9916,-0.9679,-1.0286,-1.0738,-1.0191,-1.0221,-1.0374,-1.044,-1.0026,-0.9908,-1.0665,-1.1014,-1.0909,-1.0024,-0.9101,0.0,0.0,-0.6668,-0.6434,-0.7312,-0.7382,-0.7321,0.0,0.0,0.0,0.0,-0.6599,-0.6476,-0.656,-0.6974,-0.7396,-0.792,-0.7712,-0.7729,-0.7984,-0.8021,-0.8038,-0.8038,-0.8237,-0.8333,-0.8432,-0.8726,-0.8899,-0.9124,-0.9124,-0.9222,-0.9357,-0.9082,-0.9045,-0.9056,-0.9095,-0.9133,-0.9283,-0.091,-0.1128,-0.1415,-0.1808,-0.1963,-0.2276,-0.3137,-0.345,-0.3995,-0.4854,-0.5231,-0.5613,-0.6402,-0.6865,-0.7253,-0.7492,-0.7488,-0.7407,-0.718,-0.7269,-0.6883,-0.6106,-0.5556,-0.5034,-0.4456,-0.4537,-0.4775,-0.5246,-0.5352,-0.5404,-0.5326,-0.5634,-0.5861,-0.599,-0.6321,-0.6885,-0.7752,-0.7903,-0.8276,-0.8713,-0.8632,-0.8551,-0.8551,-0.8399,-0.8336,-0.8196,-0.7681,-0.7495,-0.7938,-1.0726,-1.1964,-1.2378,-1.2716,-1.1861,-1.0947,-1.187,-1.1919,-1.1687,-1.1514,-1.084,-1.0099,-0.9739,-1.0057,-1.0373,-1.0067,-1.0256,-1.0586,-1.0909,-1.0541,-1.0166,-1.0371,-1.0139,-0.988,-0.9742,-0.9772,-0.9511,-0.8672,-0.7893,0.0,-0.7097,-0.6602,-0.6516,-0.7191,-0.719,-0.7169,-0.7083,-0.7073,0.0,-0.7247,-0.7161,-0.7025,-0.7104,-0.7099,-0.7337,-0.7845,-0.7787,-0.7845,-0.7936,-0.8007,-0.8004,-0.7936,-0.8103,-0.8233,-0.8432,-0.8528,-0.8777,-0.8967,-0.8947,-0.8929,-0.8998,-0.8911,-0.8976,-0.9056,-0.8992,-0.9133,-0.9183,-0.0895,-0.1198,-0.1493,-0.1886,-0.2041,-0.243,-0.329,-0.3682,-0.4231,-0.5165,-0.578,-0.6167,-0.6563,-0.7019,-0.7407,-0.75,-0.7411,-0.733,-0.7504,-0.7358,-0.6891,-0.5876,-0.5655,-0.5165,-0.4456,-0.4705,-0.502,-0.5239,-0.5454,-0.5482,-0.5251,-0.5951,-0.6165,-0.6032,-0.6854,-0.7418,-0.7707,-0.8168,-0.8403,-0.8327,-0.8403,-0.8403,-0.8327,-0.8021,-0.8102,-0.8255,-0.7888,-0.7769,-0.8285,-1.1031,-1.2203,-1.258,-1.3142,-1.2459,-1.1533,-1.1783,-1.1527,-1.1316,-1.207,-1.0864,-0.9437,-0.9433,-0.9962,-1.0578,-1.0539,-1.0413,-1.0578,-1.1888,-1.0936,-1.001,-1.0358,-1.0343,-0.9856,-0.8826,-0.8471,-0.8117,-0.7745,0.0,-0.6419,-0.6912,-0.6691,-0.6576,-0.6782,-0.6792,-0.6881,-0.7054,-0.7323,-0.7415,-0.7415,-0.7415,-0.7415,-0.7507,-0.7255,-0.7322,-0.7725,-0.7902,-0.7974,-0.7845,-0.7977,-0.797,-0.7848,-0.798,-0.8137,-0.8333,-0.8457,-0.8582,-0.8711,-0.8653,-0.8738,-0.8774,-0.8805,-0.8889,-0.9195,-0.8899,-0.9046,-0.9218,-0.1136,-0.1438,-0.1649,-0.2119,-0.2118,-0.2352,-0.3212,-0.2971,-0.3359,-0.5162,-0.6504,-0.6972,-0.6325,-0.6388,-0.6777,-0.7407,-0.6853,-0.678,-0.7423,-0.6872,-0.6405,-0.618,-0.5504,-0.5004,-0.4859,-0.5106,-0.53,-0.5511,-0.5572,-0.5796,-0.6106,-0.6261,-0.6423,-0.6747,-0.7038,-0.7431,-0.7842,-0.8187,-0.8327,-0.8178,-0.8327,-0.8327,-0.8102,-0.8102,-0.8102,-0.8178,-0.8613,-0.911,-0.96,-1.0135,-1.1607,-1.3219,-1.2647,-1.2804,-1.297,-1.211,-1.1665,-1.1254,-1.0738,-0.9992,-0.9433,-0.9699,-0.9698,-0.9454,-0.9076,-0.993,-1.0757,-1.0502,-1.0937,-1.1353,-1.1445,-1.0529,-0.9681,-0.9526,-0.8689,-0.7909,-0.7475,0.0,-0.7241,-0.6776,-0.7107,-0.7214,-0.6792,-0.6966,-0.6966,-0.6881,-0.7054,-0.7143,-0.7143,-0.7143,-0.7234,-0.7507,-0.7361,-0.7574,-0.8076,-0.8052,-0.8124,-0.8297,-0.8127,-0.8028,-0.8004,-0.8223,-0.8233,-0.8045,-0.8477,-0.8607,-0.8519,-0.8543,-0.8814,-0.9229,-0.9139,-0.9267,-0.9561,-0.9249,-0.9222,-0.9372,-0.1196,-0.1425,-0.1729,-0.1963,-0.2198,-0.251,-0.3212,-0.3205,-0.3748,-0.5395,-0.5944,-0.6254,-0.6553,-0.6788,-0.6938,-0.6853,-0.6461,-0.6311,-0.6479,-0.6331,-0.6096,-0.555,-0.5218,-0.5203,-0.5514,-0.5433,-0.5482,-0.5741,-0.5746,-0.5709,-0.586,-0.6405,-0.671,-0.6784,-0.7326,-0.7718,-0.7953,-0.803,-0.8102,-0.8102,-0.7944,-0.7949,-0.7953,-0.7953,-0.803,-0.825,-0.913,-0.9632,-1.0088,-1.1433,-1.226,-1.2941,-1.332,-1.3957,-1.4227,-1.294,-1.226,-1.1632,-1.0519,-1.0084,-0.99,-0.962,-0.9426,-0.9215,-0.922,-0.9569,-1.0147,-1.1165,-1.1337,-1.1413,-1.1757,-1.1327,-1.0706,-1.0148,-0.8978,0.0,0.0,-0.7237,-0.6908,-0.6547,-0.7054,-0.7238,-0.6612,-0.6789,-0.6966,-0.6969,-0.7054,-0.7228,-0.7496,-0.7411,-0.7415,-0.7507,-0.7562,-0.7795,-0.8208,-0.7983,-0.8014,-0.8314,-0.81,-0.7898,-0.7727,-0.8001,-0.8082,-0.7955,-0.8251,-0.8374,-0.8482,-0.8482,-0.873,-0.8987,-0.9164,-0.9252,-0.924,-0.9088,-0.9037,-0.8999,-0.1257,-0.1493,-0.1729,-0.1964,-0.2276,-0.2744,-0.329,-0.3756,-0.4455,-0.5628,-0.5544,-0.5693,-0.6707,-0.7184,-0.7107,-0.6461,-0.623,-0.6002,-0.5705,-0.5944,-0.5789,-0.5004,-0.5037,-0.5258,-0.5755,-0.5675,-0.5657,-0.5781,-0.5833,-0.578,-0.5696,-0.6475,-0.6861,-0.6861,-0.7472,-0.7787,-0.7949,-0.7953,-0.7953,-0.7949,-0.7714,-0.7718,-0.788,-0.8077,-0.8141,-0.8403,-0.9706,-1.017,-1.0511,-1.2652,-1.3231,-1.3251,-1.4323,-1.4877,-1.4911,-1.3642,-1.2632,-1.1727,-1.0598,-1.0203,-0.9974,-0.9373,-0.9156,-0.9146,-0.9441,-0.9402,-0.9777,-1.1757,-1.1671,-1.1499,-1.21,-1.21,-1.1718,-1.067,0.0,0.0,0.0,-0.727,-0.6675,-0.6675,-0.7162,-0.7238,-0.652,-0.6704,-0.6894,-0.7012,-0.7071,-0.7333,-0.7731,-0.7613,-0.7627,-0.761,-0.7688,-0.7898,-0.8355,-0.8025,-0.7928,-0.8265,-0.8082,-0.7882,-0.7583,-0.7925,-0.8056,-0.7952,-0.8113,-0.8323,-0.8533,-0.8533,-0.8678,-0.8888,-0.9146,-0.9112,-0.8977,-0.884,-0.8758,-0.8749,-0.1493,-0.1729,-0.1964,-0.2118,-0.2353,-0.2824,-0.3606,-0.4382,-0.5162,-0.5718,-0.6028,-0.6331,-0.6703,-0.6872,-0.6876,-0.6703,-0.6163,-0.5786,-0.5796,-0.5559,-0.5321,-0.5004,-0.5031,-0.5009,-0.509,-0.583,-0.6093,-0.5799,-0.5786,-0.6015,-0.6483,-0.663,-0.6861,-0.718,-0.7395,-0.7548,-0.7561,-0.8097,-0.8021,-0.7561,-0.7949,-0.8025,-0.8124,-0.876,-0.8869,-0.888,-1.039,-1.1033,-1.1289,-1.2549,-1.3973,-1.5151,-1.5328,-1.4931,-1.4323,-1.3768,-1.2518,-1.1082,-1.0617,-0.9781,-0.9115,-0.8989,-0.8768,-0.867,-0.8935,-0.9593,-1.0376,-1.1241,-1.1843,-1.2448,-1.2966,-1.2448,-1.186,-1.1392,0.0,0.0,-0.9119,-0.807,-0.7379,-0.7727,-0.7584,-0.733,-0.6792,-0.6795,-0.6758,-0.6612,-0.6949,-0.7204,-0.7343,-0.767,-0.7904,-0.783,-0.7798,-0.8041,-0.8704,-0.8073,-0.7976,-0.8414,-0.8131,-0.8035,-0.7928,-0.8184,-0.8258,-0.8282,-0.8547,-0.8672,-0.8693,-0.8693,-0.9004,-0.9389,-0.9209,-0.9282,-0.9443,-0.898,-0.8831,-0.8898,-0.1335,-0.165,-0.1886,-0.1964,-0.2588,-0.3056,-0.329,-0.4307,-0.5249,-0.6038,-0.6193,-0.6342,-0.6475,-0.6486,-0.6331,-0.5928,-0.5783,-0.5553,-0.5321,-0.5398,-0.5243,-0.5004,-0.5529,-0.5795,-0.5792,-0.611,-0.6237,-0.6099,-0.6335,-0.6641,-0.6949,-0.7088,-0.7322,-0.765,-0.771,-0.771,-0.7723,-0.7791,-0.7791,-0.7723,-0.7876,-0.8249,-0.8746,-0.9287,-0.9587,-0.9968,-1.1236,-1.1338,-1.0954,-1.2196,-1.3687,-1.5028,-1.53,-1.4936,-1.426,-1.3251,-1.2311,-1.1253,-1.0379,-0.9471,-0.8796,-0.9065,-0.8709,-0.8674,-0.9557,-0.9689,-1.012,-1.1843,-1.1929,-1.2015,-1.2966,-1.2711,-1.2207,-1.1679,0.0,-0.9795,-0.9554,-0.8578,-0.7869,-0.7937,-0.768,-0.733,-0.6884,-0.6612,-0.6665,-0.6806,-0.6769,-0.6944,-0.7272,-0.7583,-0.7971,-0.8295,-0.7959,-0.8055,-0.8524,-0.808,-0.7885,-0.8137,-0.7842,-0.7543,-0.7247,-0.7788,-0.8007,-0.7998,-0.8414,-0.8676,-0.8845,-0.875,-0.8869,-0.9089,-0.9179,-0.9108,-0.8814,-0.8847,-0.8733,-0.8591,-0.1335,-0.165,-0.1964,-0.2043,-0.2588,-0.3132,-0.329,-0.4307,-0.5249,-0.5957,-0.6112,-0.6183,-0.6328,-0.6254,-0.5944,-0.5389,-0.5473,-0.5398,-0.5004,-0.5318,-0.5476,-0.5395,-0.5876,-0.6116,-0.6274,-0.6025,-0.6022,-0.6338,-0.6725,-0.703,-0.7253,-0.7395,-0.7633,-0.7885,-0.7791,-0.7714,-0.7723,-0.7718,-0.7718,-0.7808,-0.8245,-0.8732,-0.9331,-1.002,-1.037,-1.0541,-1.1582,-1.137,-1.0773,-1.1699,-1.3052,-1.4427,-1.4859,-1.4671,-1.3958,-1.2609,-1.1885,-1.1192,-1.006,-0.9206,-0.8813,-0.9011,-0.8888,-0.9004,-1.0086,-1.0033,-1.0381,-1.2357,-1.2272,-1.2015,-1.3052,-1.2966,-1.2619,-1.1843,-1.1068,-1.0376,-0.9689,-0.8811,-0.8113,-0.794,-0.768,-0.733,-0.6884,-0.6523,-0.6505,-0.6771,-0.6749,-0.6929,-0.7438,-0.7618,-0.7736,-0.8097,-0.7712,-0.7684,-0.8031,-0.7885,-0.7791,-0.7842,-0.7646,-0.7344,-0.6948,-0.7527,-0.7767,-0.7654,-0.8265,-0.8632,-0.8816,-0.8716,-0.8776,-0.892,-0.9173,-0.8891,-0.8514,-0.8657,-0.8539,-0.8345,-0.1572,-0.1729,-0.2043,-0.2433,-0.2506,-0.2818,-0.3684,-0.4462,-0.5082,-0.5398,-0.5628,-0.5941,-0.6261,-0.6022,-0.5709,-0.5321,-0.5321,-0.524,-0.5004,-0.555,-0.6022,-0.6261,-0.587,-0.5792,-0.6261,-0.5464,-0.5464,-0.6338,-0.6725,-0.7107,-0.7484,-0.7484,-0.7642,-0.7804,-0.7565,-0.7484,-0.7561,-0.7949,-0.7957,-0.7897,-0.9155,-0.9708,-0.9833,-1.1187,-1.115,-1.0465,-1.1123,-1.1198,-1.1023,-1.1284,-1.2292,-1.3633,-1.4008,-1.3828,-1.3313,-1.1821,-1.1149,-1.0643,-0.9564,-0.9141,-0.9011,-0.8952,-0.9257,-0.9689,-1.0207,-1.0636,-1.1413,-1.2699,-1.2875,-1.2875,-1.3307,-1.3228,-1.2796,-1.1849,-1.1068,-1.0376,-0.9689,-0.8811,-0.8113,-0.794,-0.768,-0.733,-0.6884,-0.6523,-0.6361,-0.6435,-0.6799,-0.7247,-0.7868,-0.7681,-0.7367,-0.7027,-0.6746,-0.681,-0.7235,-0.7593,-0.7697,-0.7646,-0.7646,-0.7444,-0.7247,-0.7525,-0.7651,-0.7663,-0.8256,-0.8484,-0.8484,-0.8826,-0.8872,-0.893,-0.908,-0.8948,-0.8695,-0.8428,-0.8365,-0.8281,-0.1335,-0.1805,-0.2118,-0.2275,-0.2899,-0.3526,-0.3763,-0.4467,-0.5168,-0.5482,-0.5476,-0.5631,-0.5944,-0.5709,-0.5395,-0.5082,-0.524,-0.5398,-0.5628,-0.5634,-0.5789,-0.6018,-0.5864,-0.5628,-0.5395,-0.5151,-0.5464,-0.6338,-0.6961,-0.7419,-0.7484,-0.7804,-0.7885,-0.7804,-0.7872,-0.7795,-0.7569,-0.8086,-0.8221,-0.8085,-0.9068,-0.9882,-1.0505,-1.1142,-1.164,-1.2021,-1.2346,-1.245,-1.2493,-1.2804,-1.3226,-1.3548,-1.3184,-1.3092,-1.2845,-1.1516,-1.1022,-1.0674,-0.999,-0.9775,-0.9611,-0.9244,-0.9325,-0.9762,-1.1031,-1.1154,-1.1499,-1.313,-1.3045,-1.279,-1.3137,-1.3143,-1.2711,-1.1413,-1.0895,-1.0289,-0.9257,-0.8552,-0.8113,-0.794,-0.7499,-0.7143,-0.7054,-0.6523,-0.6364,-0.6907,-0.6985,-0.7078,-0.7403,-0.7027,-0.694,-0.7171,-0.6682,-0.6501,-0.6637,-0.7099,-0.7447,-0.7486,-0.7486,-0.7178,-0.6777,-0.724,-0.7413,-0.734,-0.8144,-0.8374,-0.8156,-0.8716,-0.8716,-0.8545,-0.8904,-0.8694,-0.8216,-0.8361,-0.8255,-0.7951,-0.157,-0.1804,-0.2117,-0.2586,-0.2978,-0.3446,-0.3995,-0.4701,-0.5326,-0.5482,-0.5479,-0.5476,-0.5628,-0.5476,-0.524,-0.5004,-0.5162,-0.5476,-0.5786,-0.5637,-0.5712,-0.586,-0.5786,-0.5631,-0.5321,-0.5231,-0.5622,-0.657,-0.7111,-0.7419,-0.7642,-0.7804,-0.7842,-0.7827,-0.7888,-0.793,-0.8028,-0.8431,-0.848,-0.8439,-0.9452,-1.0213,-1.0744,-1.1216,-1.1951,-1.253,-1.2622,-1.2822,-1.3027,-1.2981,-1.3096,-1.319,-1.2589,-1.2493,-1.2326,-1.137,-1.0968,-1.0804,-1.0346,-1.0299,-1.0212,-0.9951,-0.9765,-1.0042,-1.1381,-1.1585,-1.2015,-1.3561,-1.3392,-1.3052,-1.3222,-1.2881,-1.2277,-1.1413,-1.0636,-0.9946,-0.9257,-0.8732,-0.8292,-0.8028,-0.7672,-0.7319,-0.7139,-0.6704,-0.6551,-0.7004,-0.7015,-0.6938,-0.6961,-0.6642,-0.6443,-0.6566,-0.6014,-0.5856,-0.6204,-0.6507,-0.6751,-0.693,-0.693,-0.6724,-0.6316,-0.6663,-0.6717,-0.6809,-0.7654,-0.7996,-0.7937,-0.8605,-0.8739,-0.8504,-0.8771,-0.8595,-0.8049,-0.7993,-0.7852,-0.7704,-0.204,-0.196,-0.2116,-0.3132,-0.2896,-0.3051,-0.4226,-0.5087,-0.5559,-0.5401,-0.5479,-0.5479,-0.5321,-0.5321,-0.5243,-0.5004,-0.524,-0.5401,-0.5559,-0.5559,-0.5634,-0.5864,-0.5712,-0.5715,-0.5876,-0.5628,-0.5935,-0.688,-0.7026,-0.7338,-0.7885,-0.7581,-0.7594,-0.7823,-0.7644,-0.8078,-0.8786,-0.8814,-0.8814,-0.8781,-1.006,-1.06,-1.0692,-1.1359,-1.1922,-1.2349,-1.2076,-1.2481,-1.3002,-1.2373,-1.2439,-1.2565,-1.2066,-1.1912,-1.1843,-1.1408,-1.1154,-1.0895,-1.0727,-1.0727,-1.0727,-1.0727,-1.0554,-1.0641,-1.1499,-1.2106,-1.2711,-1.3828,-1.3743,-1.3392,-1.3398,-1.2534,-1.1757,-1.1671,-1.0549,-0.9689,-0.9602,-0.8999,-0.8476,-0.8201,-0.8028,-0.7676,-0.7139,-0.6992,-0.6847,-0.6729,-0.6787,-0.6781,-0.6675,-0.6174,-0.5787,-0.5506,-0.5092,-0.5082,-0.5691,-0.5805,-0.5921,-0.6243,-0.6233,-0.6127,-0.5824,-0.5824,-0.5877,-0.6083,-0.7053,-0.7497,-0.7496,-0.8383,-0.8636,-0.8527,-0.8436,-0.8297,-0.7991,-0.7337,-0.7268,-0.7271,-0.1882,-0.2431,-0.2824,-0.2976,-0.3522,-0.407,-0.4382,-0.5087,-0.5559,-0.5401,-0.5398,-0.5321,-0.5321,-0.5168,-0.509,-0.524,-0.5401,-0.5559,-0.5559,-0.5479,-0.5476,-0.5637,-0.5789,-0.5944,-0.6183,-0.6103,-0.6331,-0.6868,-0.7022,-0.7261,-0.7581,-0.7552,-0.7553,-0.7593,-0.812,-0.8891,-0.9756,-0.9252,-0.8971,-0.8799,-0.9568,-1.0119,-1.0486,-1.0568,-1.1566,-1.2856,-1.2385,-1.2906,-1.3822,-1.3691,-1.3074,-1.2298,-1.1638,-1.1483,-1.1408,-1.1154,-1.0901,-1.0814,-1.0895,-1.0814,-1.0727,-1.0727,-1.0895,-1.1241,-1.1843,-1.2192,-1.2619,-1.3392,-1.3483,-1.3313,-1.3222,-1.2966,-1.254,-1.1849,-1.0982,-1.0207,-0.9689,-0.8999,-0.8476,-0.8201,-0.7845,-0.7584,-0.7415,-0.7265,-0.696,-0.6546,-0.6602,-0.6625,-0.6495,-0.5945,-0.5645,-0.5603,-0.5227,-0.5084,-0.5178,-0.5463,-0.5859,-0.647,-0.6381,-0.628,-0.6046,-0.6046,-0.6058,-0.6086,-0.6628,-0.6803,-0.6609,-0.7268,-0.7362,-0.7122,-0.7365,-0.7138,-0.6677,-0.6589,-0.6262,-0.5817,-0.2118,-0.2511,-0.2902,-0.329,-0.4073,-0.4776,-0.4932,-0.5246,-0.5479,-0.5398,-0.5321,-0.5321,-0.5321,-0.5246,-0.5246,-0.5401,-0.5559,-0.5559,-0.5479,-0.5321,-0.5398,-0.5712,-0.6018,-0.6409,-0.6721,-0.6949,-0.6945,-0.6865,-0.6942,-0.7176,-0.7496,-0.7352,-0.7392,-0.7801,-0.8817,-0.9785,-1.0616,-0.9335,-0.8914,-0.8968,-0.974,-1.0001,-1.0083,-1.084,-1.1634,-1.2433,-1.2506,-1.3218,-1.4083,-1.4117,-1.3089,-1.1787,-1.1397,-1.1332,-1.1262,-1.117,-1.0997,-1.0911,-1.1257,-1.1257,-1.117,-1.117,-1.1429,-1.1682,-1.1929,-1.2272,-1.2705,-1.3307,-1.3313,-1.3222,-1.3137,-1.2705,-1.2277,-1.1763,-1.0809,-1.0033,-0.9689,-0.8999,-0.8564,-0.8384,-0.7937,-0.7584,-0.7323,-0.7142,-0.6904,-0.6557,-0.6503,-0.6421,-0.6271,-0.5829,-0.556,-0.576,-0.5415,-0.5309,-0.5452,-0.551,-0.5714,-0.6182,-0.592,-0.5687,-0.5676,-0.5583,-0.5589,-0.5682,-0.6172,-0.6335,-0.6379,-0.6932,-0.7043,-0.6935,-0.6935,-0.671,-0.6262,-0.5929,-0.5594,-0.5156,-0.2433,-0.2588,-0.2901,-0.3684,-0.4389,-0.5015,-0.5404,-0.5479,-0.5398,-0.5246,-0.5321,-0.5321,-0.5321,-0.5398,-0.5476,-0.5559,-0.5637,-0.5559,-0.5398,-0.5398,-0.5553,-0.6015,-0.6405,-0.6714,-0.7103,-0.748,-0.7399,-0.6865,-0.7019,-0.7188,-0.7382,-0.7156,-0.7384,-0.7938,-0.9154,-1.0119,-1.0726,-0.9135,-0.8691,-0.9119,-0.9854,-0.9995,-0.9809,-1.1101,-1.1674,-1.1914,-1.2275,-1.3101,-1.4071,-1.4097,-1.2857,-1.1278,-1.1332,-1.1359,-1.137,-1.144,-1.1267,-1.1267,-1.1699,-1.1785,-1.1699,-1.1699,-1.1866,-1.2118,-1.202,-1.2363,-1.279,-1.3222,-1.3052,-1.2881,-1.2881,-1.2192,-1.1585,-1.1499,-1.0467,-0.9602,-0.9515,-0.8999,-0.8568,-0.8568,-0.8212,-0.7676,-0.7143,-0.6863,-0.6689,-0.6462,-0.6407,-0.6224,-0.6032,-0.5809,-0.5775,-0.5904,-0.5497,-0.553,-0.5927,-0.5633,-0.5625,-0.5684,-0.531,-0.5072,-0.5152,-0.4988,-0.5004,-0.5158,-0.5704,-0.5969,-0.6154,-0.671,-0.6932,-0.6824,-0.6601,-0.6265,-0.5929,-0.526,-0.4936,-0.4848,-0.251,-0.2899,-0.329,-0.3763,-0.4151,-0.4621,-0.5015,-0.5249,-0.5323,-0.5093,-0.5326,-0.5479,-0.5321,-0.5631,-0.5786,-0.5637,-0.5637,-0.5637,-0.5786,-0.5634,-0.5944,-0.671,-0.6475,-0.6475,-0.6942,-0.6791,-0.6791,-0.6865,-0.7399,-0.7484,-0.7096,-0.7248,-0.7327,-0.7267,-0.8287,-0.8888,-0.8913,-0.8012,-0.8078,-0.8746,-0.8828,-0.9321,-0.9966,-0.976,-1.1112,-1.2979,-1.1541,-1.2283,-1.4137,-1.4071,-1.2839,-1.1257,-1.1311,-1.1505,-1.1774,-1.1866,-1.1871,-1.1952,-1.2198,-1.2118,-1.1957,-1.1699,-1.2118,-1.254,-1.2123,-1.2198,-1.2534,-1.279,-1.2443,-1.2186,-1.2186,-1.1671,-1.1235,-1.0809,-1.0289,-0.9772,-0.9432,-0.8915,-0.8568,-0.8568,-0.8212,-0.7588,-0.6881,-0.6584,-0.631,-0.6004,-0.595,-0.5979,-0.5948,-0.5879,-0.5932,-0.6016,-0.5934,-0.58,-0.5512,-0.57,-0.5694,-0.5261,-0.5017,-0.4832,-0.491,-0.46,-0.4607,-0.4912,-0.5023,-0.5254,-0.5491,-0.5603,-0.5603,-0.5603,-0.5605,-0.5266,-0.4702,-0.4033,-0.396,-0.4127,-0.251,-0.2824,-0.3214,-0.3684,-0.4229,-0.4621,-0.4932,-0.509,-0.5249,-0.5326,-0.5404,-0.5556,-0.5789,-0.6251,-0.6328,-0.6028,-0.6103,-0.6099,-0.5941,-0.5948,-0.618,-0.6714,-0.6633,-0.6707,-0.6865,-0.7019,-0.6991,-0.6688,-0.7081,-0.7205,-0.7042,-0.7115,-0.7353,-0.7683,-0.7832,-0.7934,-0.793,-0.7664,-0.7994,-0.8845,-1.0298,-1.0733,-1.0496,-1.0668,-1.1225,-1.1791,-1.1235,-1.1397,-1.1843,-1.233,-1.2318,-1.2026,-1.1791,-1.1882,-1.2049,-1.1871,-1.2037,-1.2289,-1.2369,-1.2369,-1.2289,-1.1957,-1.2375,-1.2796,-1.2123,-1.2203,-1.2448,-1.2619,-1.2534,-1.2357,-1.2357,-1.2015,-1.1494,-1.0895,-1.0289,-0.9685,-0.917,-0.8828,-0.8476,-0.8212,-0.8032,-0.7588,-0.6884,-0.6587,-0.6312,-0.6098,-0.5997,-0.6038,-0.6074,-0.6033,-0.5991,-0.6237,-0.6042,-0.6025,-0.62,-0.6037,-0.5824,-0.5762,-0.4985,-0.4672,-0.4927,-0.4517,-0.4414,-0.4704,-0.4817,-0.4931,-0.5156,-0.527,-0.5298,-0.5229,-0.5229,-0.4798,-0.426,-0.3918,-0.3823,-0.3967]}]]